[[{"header":{"parameterUnit":"m.s-1","parameterCategory":1,"la1":31.0,"la2":29.5877,"lo1":-88.7671,"lo2":-86.6584,"dy":0.0162,"dx":0.0185,"nx":115,"ny":88,"refTime":"2023-05-19T06:00:00:Z","depth":0,"parameterNumber":2,"parameterNumberName":"U-component_of_WINDS"},"data":[0.0,0.0,0.0,0.0,0.0,0.0,0.0,0.0,0.0,0.0,0.0,0.0,0.0,0.0,0.0,0.0,0.0,0.0,0.0,0.0,0.0,0.0,0.0,0.0,0.0,0.0,0.0,0.0,0.0,0.0,0.0,0.0,0.0,0.0,0.0,0.0,0.0,0.0,0.0,0.0,0.0,0.0,0.0,0.0,0.0,0.0,0.0,0.0,0.0,0.0,0.0,0.0,0.0,0.0,0.0,0.0,0.0,0.0,0.0,0.0,0.0,0.0,0.0,0.0,0.0,0.0,0.0,0.0,0.0,0.0,0.0,0.0,0.0,0.0,0.0,0.0,0.0,0.0,0.0,0.0,0.0,0.0,0.0,0.0,0.0,0.0,0.0,0.0,0.0,0.0,0.0,0.0,0.0,0.0,0.0,0.0,0.0,0.0,0.0,0.0,0.0,0.0,0.0,0.0,0.0,0.0,0.0,0.0,0.0,0.0,0.0,0.0,0.0,0.0,0.0,0.0,0.0,0.0,0.0,0.0,0.0,0.0,0.0,0.0,0.0,0.0,0.0,0.0,0.0,0.0,0.0,0.0,0.0,0.0,0.0,0.0,0.0,0.0,0.0,0.0,0.0,0.0,0.0,0.0,0.0,0.0,0.0,0.0,0.0,0.0,0.0,0.0,0.0,0.0,0.0,0.0,0.0,0.0,0.0,0.0,0.0,0.0,0.0,0.0,0.0,0.0,0.0,0.0,0.0,0.0,0.0,0.0,0.0,0.0,0.0,0.0,0.0,0.0,0.0,0.0,0.0,0.0,0.0,0.0,0.0,0.0,0.0,0.0,0.0,0.0,0.0,0.0,0.0,0.0,0.0,0.0,0.0,0.0,0.0,0.0,0.0,0.0,0.0,0.0,0.0,0.0,0.0,0.0,0.0,0.0,0.0,0.0,0.0,0.0,0.0,0.0,0.0,0.0,0.0,0.0,0.0,0.0,0.0,0.0,0.0,0.0,0.0,0.0,0.0,0.0,0.0,0.0,0.0,0.0,0.0,0.0,0.0,0.0,0.0,0.0,0.0,0.0,0.0,0.0,0.0,0.0,0.0,0.0,0.0,0.0,0.0,0.0,0.0,0.0,0.0,0.0,0.0,0.0,0.0,0.0,0.0,0.0,0.0,0.0,0.0,0.0,0.0,0.0,0.0,0.0,0.0,0.0,0.0,0.0,0.0,0.0,0.0,0.0,0.0,0.0,0.0,0.0,0.0,0.0,0.0,0.0,0.0,0.0,0.0,0.0,0.0,0.0,0.0,0.0,0.0,0.0,0.0,0.0,0.0,0.0,0.0,0.0,0.0,0.0,0.0,0.0,0.0,0.0,0.0,0.0,0.0,0.0,0.0,0.0,0.0,0.0,0.0,0.0,0.0,0.0,0.0,0.0,0.0,0.0,0.0,0.0,0.0,0.0,0.0,0.0,0.0,0.0,0.0,0.0,0.0,0.0,0.0,0.0,0.0,0.0,0.0,0.0,0.0,0.0,0.0,0.0,0.0,0.0,0.0,0.0,0.0,0.0,0.0,0.0,0.0,0.0,0.0,0.0,0.0,0.0,0.0,0.0,0.0,0.0,0.0,0.0,0.0,0.0,0.0,0.0,0.0,0.0,0.0,0.0,0.0,0.0,0.0,0.0,0.0,0.0,0.0,0.0,0.0,0.0,0.0,0.0,0.0,0.0,0.0,0.0,0.0,0.0,0.0,0.0,0.0,0.0,0.0,0.0,0.0,0.0,0.0,0.0,0.0,0.0,0.0,0.0,0.0,0.0,0.0,0.0,0.0,0.0,0.0,0.0,0.0,0.0,0.0,0.0,0.0,0.0,0.0,0.0,0.0,0.0,0.0,0.0,0.0,0.0,0.0,0.0,0.0,0.0,0.0,0.0,0.0,0.0,0.0,0.0,0.0,0.0,0.0,0.0,0.0,0.0,0.0,0.0,0.0,0.0,0.0,0.0,0.0,0.0,0.0,0.0,0.0,0.0,0.0,0.0,0.0,0.0,0.0,0.0,0.0,0.0,0.0,0.0,0.0,0.0,0.0,0.0,0.0,0.0,0.0,0.0,0.0,0.0,0.0,0.0,0.0,0.0,0.0,0.0,0.0,0.0,0.0,0.0,0.0,0.0,0.0,0.0,0.0,0.0,0.0,0.0,0.0,0.0,0.0,0.0,0.0,0.0,0.0,0.0,0.0,0.0,0.0,0.0,0.0,0.0,0.0,0.0,0.0,0.0,0.0,0.0,0.0,0.0,0.0,0.0,0.0,0.0,0.0,0.0,0.0,0.0,0.0,0.0,0.0,0.0,0.0,0.0,0.0,0.0,0.0,0.0,0.0,0.0,0.0,0.0,0.0,0.0,0.0,0.0,0.0,0.0,0.0,0.0,0.0,0.0,0.0,0.0,0.0,0.0,0.0,0.0,0.0,0.0,0.0,0.0,0.0,0.0,0.0,0.0,0.0,0.0,0.0,0.0,0.0,0.0,0.0,0.0,0.0,0.0,0.0,0.0,0.0,0.0,0.0,0.0,0.0,0.0,0.0,0.0,0.0,0.0,0.0,0.0,0.0,0.0,0.0,0.0,0.0,0.0,0.0,0.0,0.0,0.0,0.0,0.0,0.0,0.0,0.0,0.0,0.0,0.0,0.0,0.0,0.0,0.0,0.0,0.0,0.0,0.0,0.0,0.0,0.0,0.0,0.0,0.0,0.0,0.0,0.0,0.0,0.0,0.0,0.0,0.0,0.0,0.0,0.0,0.0,0.0,0.0,0.0,0.0,0.0,0.0,0.0,0.0,0.0,0.0,0.0,0.0,0.0,0.0,0.0,0.0,0.0,0.0,0.0,0.0,0.0,0.0,0.0,0.0,0.0,0.0,0.0,0.0,0.0,0.0,0.0,0.0,0.0,0.0,0.0,0.0,0.0,0.0,0.0,0.0,0.0,0.0,0.0,0.0,0.0,0.0,0.0,0.0,0.0,0.0,0.0,0.0,0.0,0.0,0.0,0.0,0.0,0.0,0.0,0.0,0.0,0.0,0.0,0.0,0.0,0.0,0.0,0.0,0.0,0.0,0.0,0.0,0.0,0.0,0.0,0.0,0.0,0.0,0.0,0.0,0.0,0.0,0.0,0.0,0.0,0.0,0.0,0.0,0.0,0.0,0.0,0.0,0.0,0.0,0.0,0.0,0.0,0.0,0.0,0.0,0.0,0.0,0.0,0.0,0.0,0.0,0.0,0.0,0.0,0.0,0.0,0.0,0.0,0.0,0.0,0.0,0.0,0.0,0.0,0.0,0.0,0.0,0.0,0.0,0.0,0.0,0.0,0.0,0.0,0.0,0.0,0.0,0.0,0.0,0.0,0.0,0.0,0.0,0.0,0.0,0.0,0.0,0.0,0.0,0.0,0.0,0.0,0.0,0.0,0.0,0.0,0.0,0.0,0.0,0.0,0.0,0.0,0.0,0.0,0.0,0.0,0.0,0.0,0.0,0.0,0.0,0.0,0.0,0.0,0.0,0.0,0.0,0.0,0.0,0.0,0.0,0.0,0.0,0.0,0.0,0.0,0.0,0.0,0.0,0.0,0.0,0.0,0.0,0.0,0.0,0.0,0.0,0.0,0.0,0.0,0.0,0.0,0.0,0.0,0.0,0.0,0.0,0.0,0.0,0.0,0.0,0.0,0.0,0.0,0.0,0.0,0.0,0.0,0.0,0.0,0.0,0.0,0.0,0.0,0.0,0.0,0.0,0.0,0.0,0.0,0.0,0.0,0.0,0.0,0.0,0.0,0.0,0.0,0.0,0.0,0.0,0.0,0.0,0.0,0.0,0.0,0.0,0.0,0.0,0.0,0.0,0.0,0.0,0.0,0.0,0.0,0.0,0.0,0.0,0.0,0.0,0.0,0.0,0.0,0.0,0.0,0.0,0.0,0.0,0.0,0.0,0.0,0.0,0.0,0.0,0.0,0.0,0.0,0.0,0.0,0.0,0.0,0.0,0.0,0.0,0.0,0.0,0.0,0.0,0.0,0.0,0.0,0.0,0.0,0.0,0.0,0.0,0.0,0.0,0.0,0.0,0.0,0.0,0.0,0.0,0.0,0.0,0.0,0.0,0.0,0.0,0.0,0.0,0.0,0.0,0.0,0.0,0.0,0.0,0.0,0.0,0.0,0.0,0.0,0.0,0.0,0.0,0.0,0.0,0.0,0.0,0.0,0.0,0.0,0.0,0.0,0.0,0.0,0.0,0.0,0.0,-2.5303,0.0,0.0,0.0,0.0,0.0,0.0,0.0,0.0,0.0,0.0,0.0,0.0,0.0,0.0,0.0,0.0,0.0,0.0,0.0,0.0,0.0,0.0,0.0,0.0,0.0,0.0,0.0,0.0,0.0,0.0,0.0,0.0,0.0,0.0,0.0,0.0,0.0,0.0,0.0,0.0,0.0,0.0,0.0,0.0,0.0,0.0,0.0,0.0,0.0,0.0,0.0,0.0,0.0,0.0,0.0,0.0,0.0,0.0,0.0,0.0,0.0,0.0,0.0,0.0,0.0,0.0,0.0,0.0,0.0,0.0,0.0,0.0,0.0,0.0,0.0,0.0,0.0,0.0,0.0,0.0,0.0,0.0,0.0,0.0,0.0,0.0,0.0,0.0,0.0,0.0,0.0,0.0,0.0,0.0,0.0,0.0,0.0,0.0,0.0,0.0,0.0,0.0,0.0,0.0,0.0,0.0,0.0,0.0,0.0,0.0,-2.7456,-2.7077,-2.6776,-2.6422,-2.6024,0.0,0.0,0.0,0.0,0.0,0.0,0.0,0.0,0.0,0.0,0.0,0.0,0.0,0.0,0.0,0.0,0.0,0.0,0.0,0.0,0.0,0.0,0.0,0.0,0.0,0.0,0.0,0.0,0.0,0.0,0.0,0.0,0.0,0.0,0.0,0.0,0.0,0.0,0.0,0.0,0.0,0.0,0.0,0.0,0.0,0.0,0.0,0.0,0.0,0.0,0.0,0.0,0.0,0.0,0.0,0.0,0.0,0.0,0.0,0.0,0.0,0.0,0.0,0.0,0.0,0.0,0.0,0.0,0.0,0.0,0.0,0.0,0.0,0.0,0.0,0.0,0.0,0.0,0.0,0.0,0.0,0.0,0.0,0.0,0.0,0.0,0.0,0.0,0.0,0.0,0.0,0.0,0.0,0.0,0.0,0.0,0.0,0.0,0.0,0.0,0.0,0.0,0.0,0.0,0.0,0.0,0.0,0.0,0.0,0.0,0.0,0.0,-2.7828,-2.7539,-2.6969,0.0,0.0,0.0,0.0,0.0,0.0,0.0,0.0,0.0,0.0,0.0,0.0,0.0,0.0,0.0,0.0,0.0,0.0,0.0,0.0,0.0,0.0,0.0,0.0,0.0,0.0,0.0,0.0,0.0,0.0,0.0,0.0,0.0,0.0,0.0,0.0,0.0,0.0,0.0,0.0,0.0,0.0,0.0,0.0,0.0,0.0,0.0,0.0,0.0,0.0,0.0,0.0,0.0,0.0,0.0,0.0,0.0,0.0,0.0,0.0,0.0,0.0,0.0,0.0,0.0,0.0,0.0,0.0,0.0,0.0,0.0,0.0,0.0,0.0,0.0,0.0,0.0,0.0,0.0,0.0,0.0,0.0,0.0,0.0,0.0,0.0,0.0,0.0,0.0,0.0,0.0,0.0,0.0,0.0,0.0,0.0,0.0,0.0,0.0,0.0,0.0,0.0,0.0,0.0,0.0,0.0,0.0,0.0,0.0,0.0,-2.873,-2.8777,-2.8147,0.0,-2.7911,0.0,0.0,0.0,0.0,0.0,0.0,0.0,0.0,0.0,0.0,0.0,0.0,0.0,0.0,0.0,0.0,0.0,0.0,0.0,0.0,0.0,0.0,0.0,0.0,0.0,0.0,0.0,0.0,0.0,0.0,0.0,0.0,0.0,0.0,0.0,0.0,0.0,0.0,0.0,0.0,0.0,0.0,0.0,0.0,0.0,0.0,0.0,0.0,0.0,0.0,0.0,0.0,0.0,0.0,0.0,0.0,0.0,0.0,0.0,0.0,0.0,0.0,0.0,0.0,0.0,0.0,0.0,0.0,0.0,0.0,0.0,0.0,0.0,0.0,0.0,0.0,0.0,0.0,0.0,0.0,0.0,0.0,0.0,0.0,0.0,0.0,0.0,0.0,0.0,0.0,0.0,0.0,0.0,0.0,0.0,0.0,0.0,0.0,0.0,0.0,0.0,0.0,0.0,0.0,0.0,0.0,0.0,0.0,0.0,0.0,-2.9475,-2.9655,-2.895,-2.8856,0.0,0.0,0.0,0.0,0.0,0.0,0.0,0.0,0.0,0.0,0.0,0.0,0.0,0.0,0.0,0.0,0.0,0.0,0.0,0.0,0.0,0.0,0.0,0.0,0.0,0.0,0.0,0.0,0.0,0.0,0.0,0.0,0.0,0.0,0.0,0.0,0.0,0.0,0.0,0.0,0.0,0.0,0.0,0.0,0.0,0.0,0.0,0.0,0.0,0.0,0.0,0.0,0.0,0.0,0.0,0.0,0.0,0.0,0.0,0.0,0.0,0.0,0.0,0.0,0.0,0.0,0.0,0.0,0.0,0.0,0.0,0.0,0.0,0.0,0.0,0.0,0.0,0.0,0.0,0.0,0.0,0.0,0.0,0.0,0.0,0.0,0.0,0.0,0.0,0.0,0.0,0.0,0.0,0.0,0.0,0.0,0.0,0.0,0.0,0.0,0.0,0.0,0.0,0.0,0.0,0.0,0.0,0.0,0.0,0.0,-2.9907,-3.0003,-3.0194,-2.9747,-2.9853,-3.0574,0.0,0.0,0.0,0.0,0.0,0.0,0.0,0.0,0.0,0.0,0.0,0.0,0.0,0.0,0.0,0.0,0.0,0.0,0.0,0.0,0.0,0.0,0.0,0.0,0.0,0.0,0.0,0.0,0.0,0.0,0.0,0.0,0.0,0.0,0.0,0.0,0.0,0.0,0.0,0.0,0.0,0.0,0.0,0.0,0.0,0.0,0.0,0.0,0.0,0.0,0.0,0.0,0.0,0.0,0.0,0.0,0.0,0.0,0.0,0.0,0.0,0.0,0.0,0.0,0.0,0.0,0.0,0.0,0.0,0.0,0.0,0.0,0.0,0.0,0.0,0.0,0.0,0.0,0.0,0.0,0.0,0.0,0.0,0.0,0.0,0.0,0.0,0.0,0.0,0.0,0.0,0.0,0.0,0.0,0.0,0.0,0.0,0.0,0.0,0.0,0.0,0.0,0.0,0.0,0.0,0.0,0.0,0.0,-2.9895,-2.9912,-3.0022,-3.0299,-3.0394,-3.0482,0.0,0.0,0.0,0.0,0.0,0.0,0.0,0.0,0.0,0.0,0.0,0.0,0.0,0.0,0.0,0.0,0.0,0.0,0.0,0.0,0.0,0.0,0.0,0.0,0.0,0.0,0.0,0.0,0.0,0.0,0.0,0.0,0.0,0.0,0.0,0.0,0.0,0.0,0.0,0.0,0.0,0.0,0.0,0.0,0.0,0.0,0.0,0.0,0.0,0.0,0.0,0.0,0.0,0.0,0.0,0.0,0.0,0.0,0.0,0.0,0.0,0.0,0.0,0.0,0.0,0.0,0.0,0.0,0.0,0.0,0.0,0.0,0.0,0.0,0.0,0.0,0.0,0.0,0.0,0.0,0.0,0.0,0.0,0.0,0.0,0.0,0.0,0.0,0.0,0.0,0.0,0.0,0.0,0.0,0.0,0.0,0.0,0.0,0.0,0.0,0.0,0.0,0.0,0.0,0.0,0.0,0.0,0.0,0.0,-2.9699,-2.9893,-3.0064,-3.0299,-3.039,-3.049,0.0,0.0,0.0,0.0,0.0,0.0,0.0,0.0,0.0,0.0,0.0,0.0,0.0,0.0,0.0,0.0,0.0,0.0,0.0,0.0,0.0,0.0,0.0,0.0,0.0,0.0,0.0,0.0,0.0,0.0,0.0,0.0,0.0,0.0,0.0,0.0,0.0,0.0,0.0,0.0,0.0,0.0,0.0,0.0,0.0,0.0,0.0,0.0,0.0,0.0,0.0,0.0,0.0,0.0,0.0,0.0,0.0,0.0,0.0,0.0,0.0,0.0,0.0,0.0,0.0,0.0,0.0,0.0,0.0,0.0,0.0,0.0,0.0,0.0,0.0,0.0,0.0,0.0,0.0,0.0,0.0,0.0,0.0,0.0,0.0,0.0,0.0,0.0,0.0,0.0,0.0,0.0,0.0,0.0,0.0,0.0,0.0,0.0,0.0,0.0,0.0,0.0,0.0,0.0,0.0,0.0,0.0,0.0,0.0,-2.9588,0.0,-3.0064,-3.0273,-3.0323,-3.0439,0.0,0.0,0.0,0.0,0.0,0.0,0.0,0.0,0.0,0.0,0.0,0.0,0.0,0.0,0.0,0.0,0.0,0.0,0.0,0.0,0.0,0.0,0.0,0.0,0.0,0.0,0.0,0.0,0.0,0.0,0.0,0.0,0.0,0.0,0.0,0.0,0.0,0.0,0.0,0.0,0.0,0.0,0.0,0.0,0.0,0.0,0.0,0.0,0.0,0.0,0.0,0.0,0.0,0.0,0.0,0.0,0.0,0.0,0.0,0.0,0.0,0.0,0.0,0.0,0.0,0.0,0.0,0.0,0.0,0.0,0.0,0.0,0.0,0.0,0.0,0.0,0.0,0.0,0.0,0.0,0.0,0.0,0.0,0.0,0.0,0.0,0.0,0.0,0.0,0.0,0.0,0.0,0.0,0.0,0.0,0.0,0.0,0.0,0.0,0.0,0.0,0.0,0.0,0.0,0.0,0.0,0.0,0.0,-2.9626,-2.9605,-2.982,-3.0003,-3.0204,-3.0273,-3.0386,0.0,0.0,0.0,0.0,0.0,0.0,0.0,0.0,0.0,0.0,0.0,0.0,0.0,0.0,0.0,0.0,0.0,0.0,0.0,0.0,0.0,0.0,0.0,0.0,0.0,0.0,0.0,0.0,0.0,0.0,0.0,0.0,0.0,0.0,0.0,0.0,0.0,0.0,0.0,0.0,0.0,0.0,0.0,0.0,0.0,0.0,0.0,0.0,0.0,0.0,0.0,0.0,0.0,0.0,0.0,0.0,0.0,0.0,0.0,0.0,0.0,0.0,0.0,0.0,0.0,0.0,0.0,0.0,0.0,0.0,0.0,0.0,0.0,0.0,0.0,0.0,0.0,0.0,0.0,0.0,0.0,0.0,0.0,0.0,0.0,0.0,0.0,0.0,0.0,0.0,0.0,0.0,0.0,0.0,0.0,0.0,0.0,0.0,0.0,0.0,0.0,0.0,0.0,0.0,0.0,0.0,0.0,0.0,0.0,-2.9737,-2.9839,-2.9984,-3.0194,-3.0318,-3.0417,0.0,0.0,0.0,0.0,0.0,0.0,0.0,0.0,0.0,0.0,0.0,0.0,0.0,0.0,0.0,0.0,0.0,0.0,0.0,0.0,0.0,0.0,0.0,0.0,0.0,0.0,0.0,0.0,0.0,0.0,0.0,0.0,0.0,0.0,0.0,0.0,0.0,0.0,0.0,0.0,0.0,0.0,0.0,0.0,0.0,0.0,0.0,0.0,0.0,0.0,0.0,0.0,0.0,0.0,0.0,0.0,0.0,0.0,0.0,0.0,0.0,0.0,0.0,0.0,0.0,0.0,0.0,0.0,0.0,0.0,0.0,0.0,0.0,0.0,0.0,0.0,0.0,0.0,0.0,0.0,0.0,0.0,0.0,0.0,0.0,0.0,0.0,0.0,0.0,0.0,0.0,0.0,0.0,0.0,0.0,0.0,0.0,0.0,0.0,0.0,0.0,0.0,0.0,0.0,0.0,0.0,0.0,0.0,0.0,-3.0227,-3.0296,-3.0276,-3.0133,-3.0273,-3.0406,-3.0501,0.0,0.0,0.0,0.0,0.0,0.0,0.0,0.0,0.0,0.0,0.0,0.0,0.0,0.0,0.0,0.0,0.0,0.0,0.0,0.0,0.0,0.0,0.0,0.0,0.0,0.0,0.0,0.0,0.0,0.0,0.0,0.0,0.0,0.0,0.0,0.0,0.0,0.0,0.0,0.0,0.0,0.0,0.0,0.0,0.0,0.0,0.0,0.0,0.0,0.0,0.0,0.0,0.0,0.0,0.0,0.0,0.0,0.0,0.0,0.0,0.0,0.0,0.0,0.0,0.0,0.0,0.0,0.0,0.0,0.0,0.0,0.0,0.0,0.0,0.0,0.0,0.0,0.0,0.0,0.0,0.0,0.0,0.0,0.0,0.0,0.0,0.0,0.0,0.0,0.0,0.0,0.0,0.0,0.0,0.0,0.0,0.0,0.0,0.0,0.0,0.0,0.0,0.0,0.0,0.0,0.0,0.0,0.0,-3.0941,-3.1166,-3.089,-3.0122,-3.0245,-3.0359,0.0,0.0,0.0,0.0,0.0,0.0,0.0,0.0,0.0,0.0,0.0,0.0,0.0,0.0,0.0,0.0,0.0,0.0,0.0,0.0,0.0,0.0,0.0,0.0,0.0,0.0,0.0,0.0,0.0,0.0,0.0,0.0,0.0,0.0,0.0,0.0,0.0,0.0,0.0,0.0,0.0,0.0,0.0,0.0,0.0,0.0,0.0,0.0,0.0,0.0,0.0,0.0,0.0,0.0,0.0,0.0,0.0,0.0,0.0,0.0,0.0,0.0,0.0,0.0,0.0,0.0,0.0,0.0,0.0,0.0,0.0,0.0,0.0,0.0,0.0,0.0,0.0,0.0,0.0,0.0,0.0,0.0,0.0,0.0,0.0,0.0,0.0,0.0,0.0,0.0,0.0,0.0,0.0,0.0,0.0,0.0,0.0,0.0,0.0,0.0,0.0,0.0,0.0,0.0,0.0,0.0,0.0,0.0,0.0,-3.1727,-3.2562,-3.2397,-3.1092,-3.0565,-3.0348,0.0,0.0,0.0,0.0,0.0,0.0,0.0,0.0,0.0,0.0,0.0,0.0,0.0,0.0,0.0,0.0,0.0,0.0,0.0,0.0,0.0,0.0,0.0,0.0,0.0,0.0,0.0,0.0,0.0,0.0,0.0,0.0,0.0,0.0,0.0,0.0,0.0,0.0,0.0,0.0,0.0,0.0,0.0,0.0,0.0,0.0,0.0,0.0,0.0,0.0,0.0,0.0,0.0,0.0,0.0,0.0,0.0,0.0,0.0,0.0,0.0,0.0,0.0,0.0,0.0,0.0,0.0,0.0,0.0,0.0,0.0,0.0,0.0,0.0,0.0,0.0,0.0,0.0,0.0,0.0,0.0,0.0,0.0,0.0,0.0,0.0,0.0,0.0,0.0,0.0,0.0,0.0,0.0,0.0,0.0,0.0,0.0,0.0,0.0,0.0,0.0,0.0,0.0,0.0,0.0,0.0,0.0,0.0,-3.2425,-3.2692,-3.3373,-3.3323,-3.2492,-3.1416,-3.0929,0.0,0.0,0.0,0.0,0.0,0.0,0.0,0.0,0.0,0.0,0.0,0.0,0.0,0.0,0.0,0.0,0.0,0.0,0.0,0.0,0.0,0.0,0.0,0.0,0.0,0.0,0.0,0.0,0.0,0.0,0.0,0.0,0.0,0.0,0.0,0.0,0.0,0.0,0.0,0.0,0.0,0.0,0.0,0.0,0.0,0.0,0.0,0.0,0.0,0.0,0.0,0.0,0.0,0.0,0.0,0.0,0.0,0.0,0.0,0.0,0.0,0.0,0.0,0.0,0.0,0.0,0.0,0.0,0.0,0.0,0.0,0.0,0.0,0.0,0.0,0.0,0.0,0.0,0.0,0.0,0.0,0.0,0.0,0.0,0.0,0.0,0.0,0.0,0.0,0.0,0.0,0.0,0.0,0.0,0.0,0.0,0.0,0.0,0.0,0.0,0.0,0.0,0.0,0.0,0.0,0.0,0.0,0.0,-3.3256,-3.3734,-3.3864,-3.3965,-3.3953,-3.2453,-3.1734,0.0,0.0,0.0,0.0,0.0,0.0,0.0,0.0,0.0,0.0,0.0,0.0,0.0,0.0,0.0,0.0,0.0,0.0,0.0,0.0,0.0,0.0,0.0,0.0,0.0,0.0,0.0,0.0,0.0,0.0,0.0,0.0,0.0,0.0,0.0,0.0,0.0,0.0,0.0,0.0,0.0,0.0,0.0,0.0,0.0,0.0,0.0,0.0,0.0,0.0,0.0,0.0,0.0,0.0,0.0,0.0,0.0,0.0,0.0,0.0,0.0,0.0,0.0,0.0,0.0,0.0,0.0,0.0,0.0,0.0,0.0,0.0,0.0,0.0,0.0,0.0,0.0,0.0,0.0,0.0,0.0,0.0,0.0,0.0,0.0,0.0,0.0,0.0,0.0,0.0,0.0,0.0,0.0,0.0,0.0,0.0,0.0,0.0,0.0,0.0,0.0,0.0,0.0,0.0,0.0,0.0,0.0,0.0,-3.3583,-3.4586,-3.4754,-3.4571,-3.4074,-3.242,-3.1929,0.0,0.0,0.0,0.0,0.0,0.0,0.0,0.0,0.0,0.0,0.0,0.0,0.0,0.0,0.0,0.0,0.0,0.0,0.0,0.0,0.0,0.0,0.0,0.0,0.0,0.0,0.0,0.0,0.0,0.0,0.0,0.0,0.0,0.0,0.0,0.0,0.0,0.0,0.0,0.0,0.0,0.0,0.0,0.0,0.0,0.0,0.0,0.0,-3.4328,0.0,0.0,0.0,0.0,0.0,0.0,0.0,0.0,0.0,0.0,0.0,0.0,0.0,0.0,0.0,0.0,0.0,0.0,0.0,0.0,0.0,0.0,0.0,0.0,0.0,0.0,0.0,0.0,0.0,0.0,0.0,0.0,0.0,0.0,0.0,0.0,0.0,0.0,0.0,0.0,0.0,0.0,0.0,0.0,0.0,0.0,0.0,0.0,0.0,0.0,0.0,0.0,0.0,0.0,0.0,0.0,0.0,0.0,0.0,-3.4237,-3.5001,-3.5108,-3.4999,-3.4678,-3.3486,-3.3087,0.0,0.0,0.0,0.0,0.0,0.0,0.0,0.0,0.0,0.0,0.0,0.0,0.0,0.0,0.0,0.0,0.0,0.0,0.0,0.0,0.0,0.0,0.0,0.0,0.0,0.0,0.0,0.0,0.0,0.0,0.0,0.0,0.0,0.0,0.0,0.0,0.0,0.0,0.0,0.0,0.0,0.0,0.0,0.0,0.0,0.0,0.0,0.0,0.0,0.0,0.0,0.0,0.0,0.0,0.0,0.0,0.0,0.0,0.0,0.0,0.0,0.0,0.0,0.0,0.0,0.0,0.0,0.0,0.0,0.0,0.0,0.0,0.0,0.0,0.0,0.0,0.0,0.0,0.0,0.0,0.0,0.0,0.0,0.0,0.0,0.0,0.0,0.0,0.0,0.0,0.0,0.0,0.0,0.0,0.0,0.0,0.0,0.0,0.0,0.0,0.0,0.0,0.0,0.0,0.0,0.0,0.0,-3.4308,-3.4888,-3.5181,-3.5193,-3.5273,-3.5412,-3.4681,-3.4372,-3.4575,0.0,0.0,0.0,0.0,0.0,0.0,0.0,0.0,0.0,0.0,0.0,0.0,0.0,0.0,0.0,0.0,0.0,0.0,0.0,0.0,0.0,0.0,0.0,0.0,0.0,0.0,0.0,0.0,0.0,0.0,0.0,0.0,0.0,0.0,0.0,0.0,0.0,0.0,-3.6182,-3.5989,0.0,0.0,0.0,0.0,0.0,0.0,0.0,0.0,-3.6,0.0,0.0,0.0,0.0,0.0,0.0,0.0,0.0,0.0,0.0,0.0,0.0,0.0,0.0,0.0,0.0,0.0,0.0,0.0,0.0,0.0,0.0,0.0,0.0,0.0,0.0,0.0,0.0,0.0,0.0,0.0,0.0,0.0,0.0,0.0,0.0,0.0,0.0,0.0,0.0,0.0,0.0,0.0,0.0,0.0,0.0,0.0,0.0,0.0,0.0,0.0,0.0,0.0,0.0,0.0,0.0,-3.4395,-3.4655,-3.4908,-3.5193,-3.5174,-3.5308,-3.546,-3.4713,-3.4673,-3.5408,0.0,0.0,0.0,0.0,0.0,0.0,0.0,0.0,0.0,0.0,0.0,0.0,0.0,0.0,0.0,0.0,0.0,0.0,0.0,0.0,0.0,0.0,0.0,0.0,0.0,0.0,0.0,0.0,0.0,0.0,0.0,0.0,0.0,0.0,0.0,0.0,0.0,0.0,0.0,-3.7307,-3.6867,0.0,0.0,0.0,0.0,0.0,0.0,0.0,0.0,-3.587,0.0,0.0,0.0,0.0,0.0,0.0,0.0,0.0,0.0,0.0,0.0,0.0,0.0,0.0,0.0,0.0,0.0,0.0,0.0,0.0,0.0,0.0,0.0,0.0,0.0,0.0,0.0,0.0,0.0,0.0,0.0,0.0,0.0,0.0,0.0,0.0,0.0,0.0,0.0,0.0,0.0,0.0,0.0,0.0,0.0,0.0,0.0,0.0,0.0,0.0,0.0,0.0,0.0,0.0,0.0,-3.4691,-3.4851,-3.5053,-3.5239,-3.532,-3.5417,-3.5495,-3.5203,-3.5243,0.0,0.0,0.0,0.0,0.0,0.0,0.0,0.0,0.0,0.0,0.0,0.0,0.0,0.0,0.0,0.0,0.0,0.0,0.0,0.0,0.0,0.0,0.0,0.0,0.0,0.0,0.0,0.0,0.0,0.0,0.0,0.0,0.0,0.0,0.0,0.0,0.0,0.0,0.0,0.0,-3.819,-3.7521,-3.7111,0.0,0.0,0.0,0.0,0.0,0.0,-3.6475,-3.5914,0.0,0.0,0.0,0.0,0.0,0.0,0.0,0.0,0.0,0.0,0.0,0.0,0.0,0.0,0.0,0.0,0.0,0.0,0.0,0.0,0.0,0.0,0.0,0.0,0.0,0.0,0.0,0.0,0.0,0.0,0.0,0.0,0.0,0.0,0.0,0.0,0.0,0.0,0.0,0.0,0.0,0.0,0.0,0.0,0.0,0.0,0.0,0.0,0.0,0.0,0.0,0.0,0.0,0.0,0.0,-3.4851,-3.5034,-3.5187,-3.5315,-3.5427,-3.5515,-3.5528,-3.5637,-3.5717,0.0,0.0,0.0,0.0,0.0,0.0,0.0,0.0,0.0,0.0,0.0,0.0,0.0,0.0,0.0,0.0,0.0,0.0,0.0,0.0,0.0,0.0,0.0,0.0,0.0,0.0,0.0,0.0,0.0,0.0,0.0,0.0,0.0,0.0,0.0,0.0,0.0,0.0,0.0,0.0,0.0,-3.8246,-3.7628,-3.8024,0.0,0.0,0.0,0.0,-3.743,-3.6596,0.0,0.0,0.0,0.0,0.0,0.0,0.0,0.0,0.0,0.0,0.0,0.0,0.0,0.0,0.0,0.0,0.0,0.0,0.0,0.0,0.0,0.0,0.0,0.0,0.0,0.0,0.0,0.0,0.0,0.0,0.0,0.0,0.0,0.0,0.0,0.0,0.0,0.0,0.0,0.0,0.0,0.0,0.0,0.0,0.0,0.0,0.0,0.0,0.0,0.0,0.0,0.0,0.0,0.0,0.0,0.0,-3.4983,-3.5171,-3.5315,-3.5398,-3.546,-3.5528,-3.5589,-3.5657,-3.5727,0.0,0.0,0.0,0.0,0.0,0.0,0.0,0.0,0.0,0.0,0.0,0.0,0.0,0.0,0.0,0.0,0.0,0.0,0.0,0.0,0.0,0.0,0.0,0.0,0.0,0.0,0.0,0.0,0.0,0.0,0.0,0.0,0.0,0.0,0.0,0.0,0.0,0.0,0.0,0.0,0.0,-3.9411,-3.9325,-3.879,-3.8646,0.0,0.0,-3.7492,-3.822,-3.7024,0.0,0.0,0.0,0.0,0.0,0.0,0.0,0.0,0.0,0.0,0.0,0.0,0.0,0.0,0.0,0.0,0.0,0.0,0.0,0.0,0.0,0.0,0.0,0.0,0.0,0.0,0.0,0.0,0.0,0.0,0.0,0.0,0.0,0.0,0.0,0.0,0.0,0.0,0.0,0.0,0.0,0.0,0.0,0.0,0.0,0.0,0.0,0.0,0.0,0.0,0.0,0.0,0.0,0.0,0.0,-3.4262,-3.4352,-3.5009,-3.5393,-3.5449,-3.5528,-3.5572,-3.5585,-3.5718,-3.5782,0.0,0.0,0.0,0.0,0.0,0.0,0.0,0.0,0.0,0.0,0.0,0.0,0.0,0.0,0.0,0.0,0.0,0.0,0.0,0.0,0.0,0.0,0.0,0.0,0.0,0.0,0.0,0.0,0.0,0.0,0.0,0.0,0.0,0.0,0.0,0.0,0.0,0.0,0.0,0.0,0.0,0.0,-3.9644,-3.9723,0.0,0.0,0.0,-3.8628,-3.8532,0.0,0.0,0.0,0.0,0.0,0.0,0.0,0.0,0.0,0.0,0.0,0.0,0.0,0.0,0.0,0.0,0.0,0.0,0.0,0.0,0.0,0.0,0.0,0.0,0.0,0.0,0.0,0.0,0.0,0.0,0.0,0.0,0.0,0.0,0.0,0.0,0.0,0.0,0.0,0.0,0.0,0.0,0.0,0.0,0.0,0.0,0.0,0.0,0.0,0.0,0.0,0.0,0.0,0.0,0.0,0.0,0.0,-3.3851,-3.4879,-3.5449,-3.5483,-3.5553,-3.562,-3.5618,-3.5718,0.0,0.0,0.0,0.0,0.0,0.0,0.0,0.0,0.0,0.0,0.0,0.0,0.0,0.0,0.0,0.0,0.0,0.0,0.0,0.0,0.0,0.0,0.0,0.0,0.0,0.0,0.0,-3.8222,0.0,0.0,0.0,0.0,0.0,0.0,0.0,0.0,0.0,0.0,0.0,0.0,0.0,0.0,-4.0563,-3.9982,-4.0461,-4.0684,0.0,0.0,-3.9474,-3.8624,-3.7771,-3.7004,0.0,0.0,0.0,0.0,0.0,0.0,0.0,0.0,0.0,0.0,0.0,0.0,0.0,0.0,0.0,0.0,0.0,0.0,0.0,0.0,0.0,0.0,0.0,0.0,0.0,0.0,0.0,0.0,0.0,0.0,0.0,0.0,0.0,0.0,0.0,0.0,0.0,0.0,0.0,0.0,0.0,0.0,0.0,0.0,0.0,0.0,0.0,0.0,0.0,0.0,0.0,0.0,0.0,0.0,-3.3901,-3.4006,-3.4985,-3.5502,-3.5496,-3.5565,-3.5635,-3.5688,-3.5718,-3.5773,0.0,0.0,0.0,0.0,0.0,0.0,0.0,0.0,0.0,0.0,0.0,0.0,0.0,0.0,0.0,0.0,0.0,0.0,0.0,0.0,0.0,0.0,0.0,0.0,0.0,0.0,0.0,0.0,0.0,0.0,0.0,0.0,0.0,0.0,0.0,0.0,0.0,0.0,0.0,0.0,0.0,-4.0718,-4.0718,-4.082,-4.0897,0.0,-4.0225,-3.9435,-3.8617,-3.7781,-3.7195,-3.7211,0.0,0.0,0.0,0.0,0.0,0.0,0.0,0.0,0.0,0.0,0.0,0.0,0.0,0.0,0.0,0.0,0.0,0.0,0.0,0.0,0.0,0.0,0.0,0.0,0.0,0.0,0.0,0.0,0.0,0.0,0.0,0.0,0.0,0.0,0.0,0.0,0.0,0.0,0.0,0.0,0.0,0.0,0.0,0.0,0.0,0.0,0.0,0.0,0.0,0.0,0.0,0.0,0.0,-3.3134,-3.3238,-3.473,-3.5515,-3.556,-3.5577,-3.5646,-3.5708,-3.5699,-3.5763,0.0,0.0,0.0,0.0,0.0,0.0,0.0,0.0,0.0,0.0,0.0,0.0,0.0,0.0,0.0,0.0,0.0,0.0,0.0,0.0,0.0,0.0,0.0,0.0,0.0,0.0,0.0,0.0,-4.0912,-4.098,-4.0633,0.0,0.0,0.0,0.0,0.0,0.0,0.0,0.0,0.0,0.0,-4.0776,-4.0796,-4.0858,0.0,0.0,-4.0719,-4.0221,-3.9421,-3.9014,-3.8623,-3.8128,-3.8053,0.0,0.0,0.0,0.0,0.0,0.0,0.0,0.0,0.0,0.0,0.0,0.0,0.0,0.0,0.0,0.0,0.0,0.0,0.0,0.0,0.0,0.0,0.0,0.0,0.0,0.0,0.0,0.0,0.0,0.0,0.0,0.0,0.0,0.0,0.0,0.0,0.0,0.0,0.0,0.0,0.0,0.0,0.0,0.0,0.0,0.0,0.0,0.0,0.0,0.0,0.0,0.0,-3.2699,-3.2732,-3.4564,-3.5553,-3.5584,-3.5612,-3.5648,-3.5708,-3.5718,-3.5782,0.0,0.0,0.0,0.0,0.0,0.0,0.0,0.0,0.0,0.0,0.0,0.0,0.0,0.0,0.0,0.0,0.0,0.0,0.0,0.0,0.0,0.0,0.0,0.0,0.0,0.0,0.0,0.0,-4.1111,-4.1103,-4.1104,0.0,0.0,0.0,0.0,0.0,0.0,0.0,0.0,0.0,0.0,-4.0776,-4.0796,-4.0867,-4.0927,-4.0971,-4.0976,-4.0707,-3.989,-3.9797,-3.9604,-3.8946,0.0,0.0,0.0,0.0,0.0,0.0,0.0,0.0,0.0,0.0,0.0,0.0,0.0,0.0,0.0,0.0,0.0,0.0,0.0,0.0,0.0,0.0,0.0,0.0,0.0,0.0,0.0,0.0,0.0,0.0,-2.82,0.0,0.0,0.0,0.0,0.0,0.0,0.0,0.0,0.0,0.0,0.0,0.0,0.0,0.0,0.0,0.0,0.0,0.0,0.0,0.0,0.0,0.0,-3.2799,-3.2837,-3.4641,-3.5601,-3.562,-3.5657,-3.5698,-3.5708,-3.5766,-3.5793,-3.5799,0.0,0.0,0.0,0.0,0.0,0.0,0.0,0.0,0.0,0.0,0.0,0.0,0.0,0.0,0.0,0.0,0.0,0.0,0.0,0.0,0.0,0.0,0.0,0.0,0.0,0.0,-4.1172,-4.1132,-4.1108,0.0,0.0,0.0,0.0,0.0,0.0,0.0,0.0,0.0,0.0,-4.0738,-4.0718,-4.0776,-4.0867,-4.0898,-4.0888,-4.0954,-4.0719,-3.9855,-3.9772,-3.976,0.0,0.0,0.0,0.0,0.0,0.0,0.0,0.0,0.0,0.0,0.0,0.0,0.0,0.0,0.0,0.0,0.0,0.0,0.0,0.0,0.0,0.0,0.0,0.0,0.0,0.0,0.0,-3.0227,-2.9882,0.0,0.0,0.0,0.0,0.0,0.0,0.0,0.0,0.0,0.0,0.0,-3.0586,-3.024,0.0,0.0,0.0,0.0,0.0,0.0,0.0,0.0,0.0,0.0,0.0,0.0,-3.2799,-3.2889,-3.466,-3.562,-3.562,-3.5684,-3.5716,-3.5698,-3.5728,-3.5745,-3.5795,0.0,0.0,0.0,0.0,0.0,0.0,0.0,0.0,0.0,0.0,0.0,0.0,0.0,0.0,0.0,0.0,0.0,0.0,0.0,0.0,0.0,0.0,0.0,0.0,0.0,-4.1112,0.0,0.0,0.0,0.0,0.0,0.0,0.0,0.0,0.0,0.0,0.0,-4.0834,-4.08,-4.0773,-4.0773,-4.0792,-4.0826,-4.0839,0.0,0.0,0.0,0.0,0.0,0.0,0.0,0.0,0.0,0.0,0.0,0.0,0.0,0.0,-3.737,-3.6547,-3.6824,-3.7206,-3.721,0.0,0.0,0.0,0.0,0.0,0.0,0.0,0.0,0.0,0.0,0.0,0.0,0.0,0.0,-3.1246,0.0,-2.9779,0.0,0.0,0.0,0.0,0.0,0.0,0.0,0.0,-3.0604,-3.0615,-3.0595,-3.0521,-3.0491,0.0,-3.0466,-3.039,0.0,0.0,0.0,0.0,0.0,0.0,0.0,0.0,-3.2993,-3.3338,-3.4839,-3.5643,-3.5643,-3.5665,-3.5706,-3.5707,-3.5718,-3.5765,-3.5795,-3.5852,-3.5859,0.0,0.0,0.0,0.0,0.0,0.0,0.0,0.0,0.0,0.0,0.0,0.0,0.0,0.0,0.0,0.0,0.0,0.0,0.0,0.0,0.0,0.0,0.0,-4.1113,0.0,0.0,0.0,0.0,0.0,0.0,0.0,0.0,0.0,-3.9936,-4.0286,-4.0546,-4.0815,-4.0796,-4.0912,-4.1211,0.0,0.0,0.0,0.0,0.0,0.0,0.0,-3.9677,-3.9684,-3.8512,-3.7793,-3.8377,-3.8675,-3.8675,-3.8105,0.0,0.0,-3.6514,-3.6601,-3.6733,-3.6762,-3.7435,-3.8127,-3.8405,-3.8239,-3.7628,0.0,0.0,0.0,0.0,0.0,0.0,0.0,0.0,-3.2547,-3.2128,0.0,-3.1142,0.0,0.0,0.0,0.0,0.0,-3.0671,0.0,0.0,-3.0613,-3.0615,-3.0595,-3.0521,-3.05,-3.049,-3.0479,-3.0449,-3.0406,-3.0343,0.0,0.0,0.0,0.0,0.0,0.0,-3.3346,-3.4173,-3.5183,-3.5704,-3.5704,-3.5716,-3.5707,-3.5707,-3.5757,-3.5793,-3.5791,-3.5795,-3.5833,-3.5883,-3.585,0.0,0.0,0.0,0.0,0.0,0.0,0.0,0.0,0.0,0.0,0.0,0.0,0.0,0.0,0.0,0.0,0.0,0.0,0.0,0.0,-4.1111,0.0,0.0,0.0,0.0,0.0,0.0,0.0,0.0,0.0,0.0,-3.858,-3.919,-3.9964,-4.078,0.0,0.0,0.0,0.0,-4.0877,-4.0818,-4.0807,-4.0807,-4.0807,-4.0092,-3.9539,-3.9549,0.0,0.0,-3.8397,-3.9088,-3.9096,-3.7467,-3.7175,-3.7131,-3.715,-3.6473,-3.5967,-3.6025,-3.6654,-3.6863,-3.6298,-3.6815,-3.6475,-3.9353,0.0,0.0,0.0,0.0,-3.5524,-3.5435,-3.5152,-3.3685,-3.3027,-3.2929,-3.1496,0.0,0.0,0.0,0.0,0.0,0.0,-3.0695,-3.0673,-3.0629,-3.0613,-3.0615,-3.0588,-3.055,-3.0491,-3.049,-3.0479,-3.0469,-3.0402,-3.0482,-3.0725,0.0,0.0,0.0,0.0,-3.4005,-3.4306,-3.5226,-3.5704,-3.5704,-3.5715,-3.5706,-3.5707,-3.5699,-3.5747,-3.5793,-3.5807,-3.5791,-3.5813,-3.5275,0.0,0.0,0.0,0.0,0.0,0.0,0.0,0.0,0.0,0.0,0.0,0.0,0.0,0.0,0.0,0.0,0.0,0.0,0.0,-4.1092,-4.1107,-4.1105,0.0,0.0,0.0,0.0,0.0,0.0,0.0,0.0,0.0,-3.8447,-3.9634,-4.0626,0.0,0.0,-4.0964,-4.1147,-4.1003,-4.0897,-4.0877,-4.0834,0.0,-4.0867,-3.9596,-3.8606,-3.8665,-3.7967,-3.7617,-3.8237,-3.8529,-3.8548,-3.8069,-3.7514,-3.7102,-3.7097,-3.6463,-3.617,-3.6649,-3.6537,-3.6679,-3.7492,-3.7049,-3.6104,-3.9045,-3.7934,-3.7916,-3.7137,-3.5919,-3.589,-3.5955,-3.5901,-3.4508,-3.3711,-3.3318,-3.1962,-3.1167,-3.0798,-3.0802,0.0,0.0,0.0,-3.069,-3.0665,-3.061,-3.0613,-3.0606,-3.0578,-3.053,-3.0491,-3.0481,-3.049,-3.049,-3.0488,-3.0477,-3.0466,0.0,0.0,-3.2699,-3.3427,-3.4125,-3.4812,-3.5392,-3.5704,-3.5704,-3.5704,-3.5715,-3.5716,-3.5708,-3.5718,-3.5766,-3.5791,-3.5795,-3.5803,-3.5346,-3.5334,0.0,0.0,0.0,0.0,0.0,0.0,0.0,0.0,0.0,0.0,0.0,-3.768,-3.8541,0.0,0.0,0.0,-4.0283,-4.0064,-4.0064,-4.0372,0.0,0.0,0.0,0.0,0.0,0.0,0.0,-3.9754,-3.9321,-3.8994,-3.8953,-4.006,-4.0898,-4.0908,-4.0868,-4.0983,-4.1313,0.0,-4.0865,-4.0865,-4.0533,-4.0308,-4.0311,-3.8866,-3.7626,-3.7298,-3.7162,-3.7308,-3.8132,-3.8569,-3.884,-3.8848,-3.8488,-3.8011,-3.7677,-3.7214,-3.704,-3.7611,-3.7564,-3.7603,-3.7993,-3.74,-3.6767,-3.8717,-3.7201,-3.7133,-3.6645,-3.5914,-3.5903,-3.5946,-3.5929,-3.5058,-3.4198,-3.3354,-3.248,-3.1604,-3.0794,-3.0793,0.0,-3.0703,-3.0703,-3.0665,-3.061,-3.061,-3.0604,-3.0598,-3.053,-3.0491,-3.0491,-3.0491,-3.0481,-3.0479,-3.054,-3.0569,-3.049,-3.0425,-3.1602,-3.3853,-3.335,-3.3828,-3.5469,-3.5535,-3.5626,-3.5684,-3.5704,-3.5704,-3.5704,-3.5698,-3.5699,-3.5708,-3.5765,-3.5799,-3.5803,-3.5725,-3.5728,-3.5781,0.0,0.0,0.0,0.0,0.0,0.0,0.0,0.0,0.0,0.0,0.0,0.0,0.0,0.0,-3.9789,-3.9016,0.0,-3.8506,-3.9217,0.0,0.0,0.0,-3.9829,-3.9894,-3.9197,-3.9004,-3.9808,0.0,0.0,-3.9809,-4.039,-4.0791,-4.081,-4.0742,-4.1011,-4.1877,-4.1136,-4.0607,-4.051,-3.9909,-3.9414,-3.9364,-3.807,-3.6793,-3.6048,-3.6367,-3.7172,-3.8103,-3.8889,-3.9461,-3.9616,-3.9694,-3.9431,-3.8641,-3.8474,-3.8502,-3.8585,-3.8961,-3.8968,-3.7779,-3.7809,-3.7698,-3.8209,-3.7214,-3.6562,-3.6169,-3.5985,-3.5985,-3.5982,-3.5935,-3.5077,-3.4215,-3.335,-3.2472,-3.1613,-3.0786,-3.0799,-3.0784,-3.0778,-3.0736,-3.0697,-3.0673,-3.061,-3.0604,-3.0598,-3.055,-3.0491,-3.049,-3.0469,-3.0428,-3.0428,-3.0436,-3.0477,-3.0481,-3.0428,-3.1064,-3.2342,-3.2838,-3.3564,-3.4585,-3.4627,-3.4955,-3.5593,-3.5673,-3.5704,-3.5704,-3.5697,-3.5698,-3.5698,-3.5708,-3.5736,-3.5773,-3.5158,-3.4824,-3.4831,-3.4879,0.0,0.0,0.0,0.0,0.0,0.0,0.0,0.0,0.0,-3.7581,-3.8468,0.0,-3.9799,0.0,-3.9013,-3.851,-3.8518,-3.8686,0.0,0.0,-3.9673,-4.0059,-4.0715,-4.0554,-4.0493,-4.0688,-4.0721,-4.0711,-4.0707,-4.0235,-3.9917,-3.9908,-3.9878,-3.9964,-4.0189,-3.946,-3.8886,-3.8914,-3.8748,-3.8581,-3.8411,-3.763,-3.6635,-3.5822,-3.588,-3.6529,-3.8033,-3.844,-3.8829,-3.9452,-3.9617,-3.9549,-3.9412,-3.9401,-3.941,-3.9346,-3.8571,-3.7891,-3.8104,-3.7837,-3.72,-3.7487,-3.6689,-3.6207,-3.6011,-3.601,-3.6007,-3.6012,-3.5957,-3.5484,-3.4578,-3.3317,-3.2081,-3.1217,-3.0774,-3.0764,-3.0753,-3.0761,-3.0698,-3.0664,-3.0665,-3.0602,-3.0615,-3.0617,-3.0559,-3.055,-3.054,-3.0471,-3.0449,-3.0458,-3.0447,-3.0447,-3.0458,-3.0449,-3.0692,-3.1204,-3.2074,-3.2935,-3.3746,-3.4113,-3.4712,-3.557,-3.5639,-3.5651,-3.5643,-3.5308,-3.5116,-3.5107,-3.4768,-3.4593,-3.463,-3.4542,-3.4318,-3.3965,-3.4664,-3.4925,0.0,0.0,0.0,0.0,0.0,0.0,0.0,0.0,0.0,0.0,0.0,-3.9078,-3.8669,-3.7848,-3.7352,-3.7342,-3.7708,-3.7966,-3.8057,-3.8775,-3.9258,-3.9351,-3.9675,-3.989,-3.987,-3.9863,-3.9843,-3.9827,-3.9373,-3.9024,-3.9015,-3.8674,-3.8577,-3.8898,-3.8548,-3.8263,-3.8283,-3.7943,-3.7495,-3.7123,-3.6636,-3.6192,-3.5767,-3.5662,-3.6129,-3.7428,-3.8031,-3.8595,-3.9403,-3.9917,-4.018,-4.0238,-4.0228,-4.014,-3.966,-3.8976,-3.8298,-3.7975,-3.7553,-3.7013,-3.6794,-3.6015,-3.6015,-3.6015,-3.6013,-3.6015,-3.6015,-3.5991,-3.5886,-3.4859,-3.3134,-3.15,-3.0753,-3.0703,-3.0697,-3.071,-3.0685,-3.069,-3.0642,-3.0613,-3.0623,-3.0597,-3.0588,-3.0588,-3.0588,-3.0579,-3.051,-3.049,-3.0488,-3.049,-3.0469,-3.0402,-3.0458,-3.043,-3.0425,-3.121,-3.2042,-3.2905,-3.3716,-3.4496,-3.5225,-3.5263,-3.5268,-3.5234,-3.458,-3.4214,-3.4206,-3.3548,-3.3179,-3.3199,-3.3819,-3.3809,-3.3117,-3.441,-3.4923,0.0,-3.503,0.0,0.0,0.0,0.0,0.0,0.0,0.0,0.0,-3.7831,-3.7994,-3.7267,-3.6495,-3.606,-3.606,-3.6832,-3.7097,-3.6523,-3.772,-3.8402,-3.7809,-3.8273,-3.8643,-3.8643,-3.8517,-3.838,-3.8441,-3.8267,-3.8142,-3.8044,-3.7403,-3.714,-3.7751,-3.7827,-3.7785,-3.7943,-3.7282,-3.6513,-3.5929,-3.5693,-3.5642,-3.5623,-3.5616,-3.5921,-3.6775,-3.7564,-3.8391,-3.9228,-3.9897,-4.048,-4.0684,-4.0694,-4.0422,-3.9613,-3.9477,-3.9105,-3.7877,-3.7482,-3.7326,-3.6797,-3.6015,-3.6013,-3.6009,-3.6018,-3.6021,-3.6003,-3.5966,-3.5266,-3.3969,-3.2299,-3.1207,-3.0703,-3.0703,-3.0704,-3.0665,-3.061,-3.0626,-3.0613,-3.0607,-3.0607,-3.0569,-3.052,-3.053,-3.0479,-3.0439,-3.0425,-3.0414,-3.0421,-3.0414,-3.0414,-3.0406,-3.0364,-3.0371,-3.041,0.0,0.0,0.0,-3.2817,-3.333,-3.3473,-3.3496,-3.35,-3.35,-3.3327,0.0,-3.3272,-3.3117,-3.3051,-3.3102,-3.2599,0.0,0.0,0.0,0.0,0.0,0.0,0.0,0.0,0.0,0.0,0.0,-3.5834,-3.627,-3.6947,-3.7245,-3.7327,-3.7202,-3.7014,-3.6871,-3.6871,-3.7637,-3.8396,-3.8928,-3.9271,-3.968,-4.0154,-3.9789,-3.9482,-3.9463,-3.8799,-3.8306,-3.8258,-3.7705,-3.7228,-3.7149,-3.6419,-3.596,-3.6141,-3.6242,-3.6176,-3.6107,-3.6026,-3.5828,-3.5642,-3.5611,-3.5611,-3.5623,-3.5623,-3.5893,-3.66,-3.6972,-3.7472,-3.831,-3.8662,-3.9071,-3.9704,-3.985,-3.9646,-3.8818,-3.9226,-3.9391,-3.84,-3.8174,-3.7987,-3.6401,0.0,-3.6021,-3.6013,0.0,-3.5955,-3.5955,-3.5896,-3.5022,-3.3668,-3.2013,-3.1099,-3.0698,-3.0698,-3.0711,-3.0678,-3.0656,-3.0599,-3.0613,-3.0615,-3.0607,-3.0588,-3.0559,-3.051,-3.049,-3.046,-3.0425,-3.0394,-3.0394,-3.0394,-3.0394,-3.0394,-3.0352,-3.0359,-3.0348,-3.0292,-3.0746,-3.1635,-3.2102,-3.2506,-3.2878,-3.2923,-3.2967,-3.296,0.0,0.0,0.0,0.0,0.0,0.0,0.0,0.0,0.0,0.0,0.0,-3.2983,-3.3749,-3.4597,-3.547,-3.556,-3.5553,-3.5596,-3.5651,-3.5861,-3.6319,-3.6396,-3.6608,-3.7061,-3.7097,-3.7261,-3.7661,-3.8132,-3.8576,-3.9035,-3.9451,-3.975,-3.9723,-3.9699,-3.9488,-3.9032,-3.8239,-3.7667,-3.7647,-3.688,-3.6325,-3.6253,-3.589,-3.5616,-3.5604,-3.5639,-3.5631,-3.5608,-3.5572,-3.5566,-3.5541,-3.556,-3.556,-3.5541,-3.5554,-3.5701,-3.6087,-3.653,-3.6999,-3.7498,-3.792,-3.8418,-3.88,-3.9266,-3.9345,-3.8675,-3.9044,-3.9326,-3.8546,-3.8047,-3.7498,-3.6013,-3.6017,-3.6017,-3.5994,-3.5981,-3.5914,-3.5705,-3.5396,0.0,0.0,0.0,-3.1034,-3.071,-3.071,-3.071,-3.0703,-3.0668,-3.0637,-3.0593,-3.0585,-3.0588,-3.0569,-3.0588,-3.052,-3.0481,-3.0481,-3.0428,-3.0406,-3.0406,-3.0386,-3.0394,-3.039,-3.0383,-3.0371,-3.0304,-3.0292,-3.0637,-3.1309,-3.136,-3.1693,-3.2333,-3.2423,-3.2449,-3.2436,-3.1807,-3.1453,-3.1434,-3.0813,-3.0447,-3.0406,-3.1122,-3.1221,-3.0584,-3.1723,-3.2513,-3.2686,-3.3421,-3.429,-3.5172,-3.5383,-3.5501,-3.5579,-3.5591,-3.562,-3.5659,-3.5669,-3.5979,-3.6706,-3.6968,-3.7413,-3.822,-3.8508,-3.8688,-3.8818,-3.9457,-3.961,-3.8999,-3.9226,-3.9296,-3.8452,-3.7599,-3.6899,-3.6742,-3.614,-3.5574,-3.5596,-3.5611,-3.5579,-3.556,-3.5565,-3.5577,-3.5572,-3.5534,-3.5495,-3.5488,-3.5474,-3.5493,-3.5474,-3.5482,-3.5489,-3.5599,-3.6087,-3.6537,-3.6619,-3.7266,-3.7688,-3.7981,-3.8692,-3.9081,-3.8442,-3.8984,-3.9286,-3.8287,-3.7549,-3.6923,-3.6017,-3.6009,-3.6005,-3.5962,-3.5909,-3.589,-3.5051,-3.3667,-3.3537,-3.2513,-3.0892,-3.0762,-3.0703,-3.0707,-3.0703,-3.0673,-3.0606,-3.0615,-3.0577,0.0,-3.052,-3.052,-3.052,-3.05,-3.0469,-3.0428,-3.0394,-3.039,-3.039,-3.039,-3.039,-3.0398,-3.0348,-3.0304,-3.0292,-3.0234,-3.0278,-3.0387,-3.0452,-3.0529,-3.065,-3.0663,-3.0663,-3.0662,-3.058,-3.049,-3.049,-3.0412,-3.0328,-3.0316,-3.0506,-3.0537,-3.0441,-3.0597,-3.1008,-3.1738,-3.2544,-3.336,-3.4256,-3.4976,-3.5422,-3.5424,-3.5483,-3.5553,-3.5612,-3.5607,-3.5706,-3.5901,-3.659,-3.7366,-3.8219,-3.8966,-3.9636,-4.0266,-4.0537,-4.0557,-4.0363,-3.9906,-3.9324,-3.8471,-3.7489,-3.6643,-3.6071,-3.5717,-3.556,-3.5528,-3.5534,-3.5488,-3.5455,-3.5476,-3.5496,-3.5515,-3.5495,-3.5474,-3.5427,-3.5412,-3.5412,-3.5412,-3.5412,-3.5441,-3.5488,-3.5643,-3.5804,-3.574,-3.6047,-3.6385,-3.7011,-3.7827,-3.8391,-3.8363,-3.8935,-3.9023,-3.7607,-3.7085,-3.6948,-3.5934,-3.5958,-3.5958,-3.5933,-3.5889,-3.5897,-3.5172,-3.3944,-3.3456,-3.2302,-3.0782,-3.0697,-3.0703,-3.07,-3.0707,-3.0673,-3.066,-3.0604,-3.0567,-3.0558,-3.055,-3.055,-3.0491,-3.049,-3.0469,-3.0398,-3.0402,-3.0398,-3.0398,-3.0398,-3.0398,-3.0398,-3.0336,-3.0311,-3.0292,-3.0234,-3.0207,-3.0207,-3.0234,-3.0247,-3.0241,-3.0267,-3.0299,-3.0299,-3.0299,-3.0286,-3.0253,-3.0273,-3.0267,-3.026,-3.0318,-3.0349,-3.0349,-3.0305,-3.0624,-3.1454,-3.2288,-3.3115,-3.3991,-3.484,-3.5345,-3.534,-3.5388,-3.5402,-3.5443,-3.5534,-3.5794,-3.6261,-3.6709,-3.7282,-3.8121,-3.9027,-3.9696,-4.0045,-4.0471,-4.0742,-4.0754,-4.0479,-3.9855,-3.8984,-3.8098,-3.7223,-3.6354,-3.5849,-3.5547,-3.5507,-3.5446,-3.5398,-3.535,-3.5374,-3.5402,-3.5435,-3.5407,-3.5379,-3.5364,-3.535,-3.535,-3.533,-3.535,-3.5379,-3.5427,-3.5435,-3.5449,-3.5553,-3.5881,-3.6363,-3.6851,-3.7977,-3.8523,-3.8326,-3.8512,-3.8249,-3.7274,-3.6637,-3.6319,-3.5883,-3.5885,-3.5879,-3.5879,-3.5898,-3.5885,-3.5352,-3.4439,-3.3608,-3.2377,-3.1064,-3.0773,-3.0668,-3.0692,-3.0692,-3.0673,-3.0665,-3.0613,-3.0604,-3.0604,-3.0588,-3.0559,-3.051,-3.049,-3.0458,-3.0417,-3.0402,-3.0398,-3.0379,-3.0379,-3.0379,-3.0379,-3.0336,-3.0311,-3.0312,-3.0247,-3.0215,-3.0207,-3.0221,-3.0215,-3.0215,-3.0267,-3.0267,-3.0292,-3.0286,-3.0241,-3.0207,-3.0253,-3.0247,-3.0207,-3.0266,-3.0312,-3.0312,-3.0247,-3.0494,-3.1121,-3.1943,-3.2882,-3.391,-3.4779,-3.5289,-3.5266,-3.5285,-3.532,-3.532,-3.5435,-3.5785,-3.6395,-3.6523,-3.6921,-3.7662,-3.8382,-3.896,-3.9173,-3.9927,-4.0256,-4.021,-4.0301,-3.9972,-3.8975,-3.8196,-3.743,-3.6614,-3.5886,-3.5465,-3.5417,-3.5335,-3.527,-3.5254,-3.5254,-3.527,-3.5304,-3.532,-3.532,-3.53,-3.5285,-3.5285,-3.53,-3.532,-3.5335,-3.5364,-3.5379,-3.5398,-3.5537,-3.6194,-3.6645,-3.6895,-3.8188,-3.8846,-3.8408,-3.8247,-3.7861,-3.6783,-3.6149,-3.5736,-3.5885,-3.5885,-3.5885,-3.5885,-3.5878,-3.5838,-3.531,-3.4497,-3.3643,-3.2745,-3.182,-3.0959,-3.061,-3.061,-3.061,-3.0602,-3.0604,-3.0604,-3.0606,-3.0588,-3.053,-3.052,-3.0491,-3.0439,-3.0398,-3.0386,-3.0402,-3.0367,-3.0316,-3.0316,-3.0304,-3.0316,-3.0304,-3.0311,-3.0292,-3.0299,-3.0254,-3.0207,-3.0266,-3.0286,-3.0292,-3.0241,-3.0234,-3.0292,-3.024,-3.0218,-3.0256,-3.0213,-3.0221,-3.0207,-3.0266,-3.0312,-3.0312,-3.0312,-3.0291,-3.0338,-3.1102,-3.2214,-3.3767,-3.4721,-3.5196,-3.5209,-3.5315,-3.5331,-3.5312,-3.5339,-3.5398,-3.5641,-3.5708,-3.6132,-3.6807,-3.707,-3.7495,-3.8189,-3.9,-3.9212,-3.8711,-3.9039,-3.889,-3.7224,-3.703,-3.6507,-3.5806,-3.5456,-3.53,-3.5261,-3.5229,-3.5179,-3.5162,-3.5126,-3.5126,-3.5162,-3.5212,-3.5277,-3.5277,-3.5242,-3.5242,-3.5293,-3.5312,-3.5308,-3.53,-3.5315,-3.5315,-3.5441,-3.6099,-3.6647,-3.7156,-3.8084,-3.8973,-3.8311,-3.7926,-3.7553,-3.6202,-3.5674,-3.5631,-3.5872,-3.5818,-3.5845,-3.585,-3.5826,-3.5791,-3.5579,-3.5136,-3.4302,-3.3722,-3.3229,-3.1922,-3.106,-3.0613,-3.0604,-3.0604,-3.0615,-3.0606,-3.0616,-3.0597,-3.054,-3.0491,-3.049,-3.0439,-3.0394,-3.0352,-3.0348,-3.0343,-3.0299,-3.0318,-3.0318,-3.0305,-3.0254,-3.0228,-3.0234,-3.0228,-3.0247,-3.0266,-3.0279,-3.0292,-3.0318,-3.0267,-3.0286,-3.0299,-3.0273,-3.0529,-3.0904,-3.0508,-3.0437,-3.0871,-3.0494,-3.0259,-3.0226,-3.0226,-3.0218,-3.0223,-3.1356,-3.2578,-3.3775,-3.4651,-3.5127,-3.5145,-3.5654,-3.5766,-3.5308,-3.5698,-3.5856,-3.545,-3.5393,-3.5575,-3.5916,-3.6378,-3.6839,-3.7291,-3.8007,-3.8354,-3.806,-3.8277,-3.8012,-3.6868,-3.6642,-3.63,-3.5561,-3.5304,-3.5207,-3.5162,-3.5147,-3.5129,-3.5092,-3.5092,-3.5092,-3.5092,-3.5127,-3.5145,-3.5179,-3.5215,-3.5196,-3.5231,-3.5264,-3.5242,-3.5273,-3.5308,-3.5324,-3.532,-3.6132,-3.6876,-3.7394,-3.779,-3.8339,-3.7901,-3.6999,-3.6299,-3.5644,-3.5547,-3.5553,-3.5823,-3.576,-3.5788,-3.5791,-3.5775,-3.5794,-3.5757,-3.5601,-3.4788,-3.4419,-3.4225,-3.258,-3.1497,-3.0945,-3.0722,-3.0615,-3.0615,-3.0588,-3.0578,-3.0568,-3.0501,-3.046,-3.0477,-3.0406,-3.034,-3.0304,-3.0311,-3.0286,-3.0279,-3.0279,-3.0279,-3.0266,-3.0234,-3.0221,-3.0207,-3.0221,-3.0234,-3.0266,-3.0266,-3.026,-3.0312,-3.0286,-3.0279,-3.0279,-3.0267,-3.0676,-3.1511,-3.091,-3.0934,-3.179,-3.1226,-3.0892,-3.0906,-3.0873,-3.0814,-3.0868,-3.2039,-3.3102,-3.3781,-3.4599,-3.5075,-3.515,-3.5889,-3.6041,-3.5562,-3.6167,-3.6277,-3.5433,-3.5449,-3.556,-3.5396,-3.5871,-3.6232,-3.6358,-3.7053,-3.7459,-3.7203,-3.7344,-3.7229,-3.6412,-3.6144,-3.5997,-3.5411,-3.5209,-3.5162,-3.5092,-3.5075,-3.5057,-3.5057,-3.5057,-3.5057,-3.5057,-3.5001,-3.502,-3.5075,-3.5129,-3.5147,-3.5164,-3.5179,-3.5196,-3.5305,-3.5379,-3.5395,-3.5509,-3.6304,-3.6795,-3.7137,-3.7482,-3.7862,-3.7636,-3.6724,-3.5707,-3.5919,-3.5707,-3.5522,-3.5708,-3.5698,-3.5775,-3.5756,-3.5708,-3.5766,-3.5757,-3.5649,-3.4894,-3.4468,-3.4186,-3.2668,-3.1845,-3.1642,-3.0917,-3.0616,-3.0586,-3.0521,-3.0501,-3.0501,-3.0449,-3.0406,-3.041,-3.0328,-3.0311,-3.0305,-3.0292,-3.026,-3.0221,-3.0221,-3.0207,-3.0221,-3.0253,-3.0266,-3.0221,-3.0266,-3.0266,-3.0221,-3.0221,-3.0234,-3.026,-3.0234,-3.0221,-3.0221,-3.0213,-3.0633,-3.1422,-3.1408,-3.1762,-3.2704,-3.255,-3.255,-3.2613,-3.2501,-3.2349,-3.2416,-3.3124,-3.3656,-3.3862,-3.4527,-3.5058,-3.5208,-3.5949,-3.6024,-3.5488,-3.6613,-3.6727,-3.5353,-3.5736,-3.5866,-3.5404,-3.54,-3.5458,-3.5492,-3.6159,-3.6239,-3.5588,-3.6259,-3.6201,-3.5618,-3.5414,-3.5327,-3.5147,-3.511,-3.5113,-3.5077,-3.502,-3.5021,-3.4946,-3.4927,-3.4927,-3.4908,-3.4908,-3.4945,-3.5057,-3.5075,-3.5057,-3.5092,-3.511,-3.5129,-3.5413,-3.5604,-3.5581,-3.5825,-3.6791,-3.7206,-3.6974,-3.7105,-3.7504,-3.7248,-3.6309,-3.5705,-3.5907,-3.5782,-3.5622,-3.5718,-3.5766,-3.5747,-3.5718,-3.5708,-3.5728,-3.5697,-3.5687,-3.5356,-3.4861,-3.4193,-3.3119,-3.2297,-3.1755,-3.0916,-3.052,-3.055,-3.051,-3.05,-3.049,-3.0428,-3.0386,-3.0394,-3.0328,-3.0311,-3.0292,-3.0247,-3.0221,-3.0207,-3.0213,-3.0218,-3.0199,-3.0185,-3.0166,-3.0199,-3.0226,-3.0226,-3.0207,-3.0207,-3.0207,-3.0245,-3.0213,-3.0218,-3.0199,-3.024,-3.0923,-3.2283,-3.1776,-3.212,-3.3493,-3.3009,-3.2707,-3.2722,-3.2645,-3.258,-3.2571,-3.3257,-3.3695,-3.3808,-3.4472,-3.5211,-3.5799,-3.6578,-3.6673,-3.6273,-3.6863,-3.69,-3.5605,-3.5339,-3.5356,-3.5257,-3.5196,-3.5176,-3.5234,-3.5444,-3.5558,-3.5329,-3.5463,-3.5503,-3.5219,-3.5145,-3.5091,-3.5115,-3.5495,-3.5609,-3.5116,-3.542,-3.542,-3.5059,-3.4926,-3.4869,-3.4849,-3.483,-3.4849,-3.4888,-3.4964,-3.502,-3.5038,-3.5038,-3.5075,-3.5283,-3.5853,-3.5983,-3.5945,-3.6931,-3.7462,-3.7154,-3.669,-3.707,-3.6476,-3.5573,-3.5569,-3.5733,-3.5667,-3.5643,-3.5553,-3.5359,-3.5291,-3.5107,-3.4885,-3.4884,-3.4883,-3.4861,-3.4801,-3.4442,-3.3774,-3.2979,-3.2293,-3.1684,-3.0835,-3.0469,-3.0477,-3.0458,-3.0449,-3.0449,-3.0417,-3.0394,-3.0364,-3.0316,-3.0305,-3.0266,-3.0221,-3.0213,-3.0213,-3.0218,-3.0204,-3.0204,-3.0138,-3.0157,-3.0204,-3.0204,-3.0218,-3.0213,-3.0213,-3.0213,-3.0204,-3.0204,-3.0185,-3.0185,-3.0226,-3.0904,-3.2302,-3.2044,-3.2522,-3.3704,-3.3677,-3.3497,-3.3446,-3.3132,-3.3045,-3.3259,-3.3734,-3.4074,-3.4112,-3.4586,-3.5154,-3.5722,-3.6519,-3.671,-3.6046,-3.6862,-3.6597,-3.5552,-3.5305,-3.5362,-3.5096,-3.5039,-3.5058,-3.5075,-3.5092,-3.5092,-3.5075,-3.5075,-3.5075,-3.5038,-3.502,-3.4982,-3.4965,-3.5477,-3.5438,-3.4945,-3.5457,-3.5475,-3.5058,-3.4868,-3.4848,-3.4827,-3.4809,-3.4809,-3.481,-3.485,-3.4851,-3.487,-3.4946,-3.5002,-3.5229,-3.5855,-3.6234,-3.6252,-3.6593,-3.72,-3.7158,-3.6544,-3.6083,-3.5605,-3.5468,-3.5446,-3.5553,-3.5607,-3.5407,-3.5173,-3.4525,-3.44,-3.3974,-3.3393,-3.3413,-3.3258,-3.3313,-3.3244,-3.3222,-3.291,-3.2196,-3.1807,-3.1476,-3.0744,-3.0394,-3.0402,-3.0406,-3.0417,-3.0406,-3.0402,-3.0379,-3.0316,-3.0299,-3.0279,-3.0207,-3.0199,-3.0185,-3.0204,-3.0204,-3.0204,-3.0204,-3.0185,-3.0185,-3.0204,-3.0204,-3.0204,-3.0204,-3.0204,-3.0218,-3.0204,-3.0204,-3.0171,-3.0123,-3.0171,-3.0619,-3.1465,-3.2191,-3.2913,-3.3823,-3.4538,-3.5028,-3.4602,-3.4092,-3.4018,-3.4508,-3.4713,-3.4751,-3.4771,-3.483,-3.4906,-3.5095,-3.5663,-3.5778,-3.5268,-3.6137,-3.6305,-3.504,-3.5172,-3.5512,-3.4812,-3.4642,-3.4775,-3.5057,-3.5057,-3.502,-3.4925,-3.4925,-3.4926,-3.4737,-3.4624,-3.4813,-3.4813,-3.4851,-3.4756,-3.4623,-3.4756,-3.4774,-3.4508,-3.4374,-3.4619,-3.4619,-3.4314,-3.4086,-3.4408,-3.4732,-3.4675,-3.4656,-3.4772,-3.4868,-3.5096,-3.5571,-3.5875,-3.5989,-3.6178,-3.6671,-3.6037,-3.5539,-3.5611,-3.5286,-3.5283,-3.5283,-3.5468,-3.5446,-3.4887,-3.4631,-3.4323,-3.3751,-3.3403,-3.3161,-3.3131,-3.3111,-3.3089,-3.3056,-3.2675,-3.2143,-3.1862,-3.1395,-3.0864,-3.0498,-3.039,-3.0398,-3.039,-3.0402,-3.0402,-3.039,-3.0398,-3.0367,-3.0318,-3.0286,-3.0199,-3.0157,-3.0157,-3.0171,-3.0161,-3.0161,-3.0171,-3.0157,-3.0157,-3.0185,-3.0204,-3.0204,-3.0204,-3.0204,-3.0204,-3.0204,-3.0204,-3.0204,-3.0152,-3.0185,-3.0357,-3.0624,-3.1427,-3.2248,-3.3066,-3.3303,-3.3623,-3.4034,-3.4358,-3.4566,-3.4752,-3.4788,-3.4788,-3.4788,-3.479,-3.4772,-3.4848,-3.5055,-3.4772,-3.4149,-3.447,-3.4337,-3.3299,-3.3337,-3.3298,-3.3109,-3.3052,-3.3582,-3.4756,-3.4888,-3.4547,-3.4017,-3.3526,-3.3167,-3.311,-3.311,-3.3091,-3.3204,-3.3506,-3.3771,-3.3336,-3.3619,-3.3827,-3.326,-3.3182,-3.2935,-3.2954,-3.2914,-3.3137,-3.3327,-3.346,-3.3441,-3.3688,-3.4011,-3.418,-3.4542,-3.4826,-3.5208,-3.5513,-3.5742,-3.5589,-3.4958,-3.4727,-3.4819,-3.4893,-3.4814,-3.5021,-3.5398,-3.5089,-3.4381,-3.4012,-3.3384,-3.2841,-3.2435,-3.2232,-3.2173,-3.2132,-3.2122,-3.2077,-3.1715,-3.128,-3.121,-3.0929,-3.0475,-3.0398,-3.0398,-3.0398,-3.0398,-3.0398,-3.0398,-3.0398,-3.0398,-3.0398,-3.0318,-3.0253,-3.0199,-3.0157,-3.0157,-3.0157,-3.0113,-3.0132,-3.0161,-3.0064,-3.0079,-3.0157,-3.0176,-3.0157,-3.0204,-3.0204,-3.0204,-3.0204,-3.0204,-3.0185,-3.0171,-3.0185,-3.0185,-3.0228,-3.071,-3.1378,-3.2046,-3.2168,-3.2454,-3.3109,-3.3299,-3.3487,-3.3767,-3.3785,-3.3766,-3.3804,-3.3672,-3.3785,-3.3785,-3.3785,-3.3578,-3.3146,-3.3032,-3.273,-3.2354,-3.2297,-3.2221,-3.2201,-3.2182,-3.269,-3.3612,-3.3728,-3.3559,-3.3013,-3.2749,-3.2486,-3.2411,-3.2128,-3.2071,-3.2335,-3.258,-3.2882,-3.2429,-3.2674,-3.2956,-3.2314,-3.2178,-3.2083,-3.2081,-3.2229,-3.2323,-3.2152,-3.2152,-3.2133,-3.255,-3.3025,-3.3175,-3.3421,-3.365,-3.3936,-3.4243,-3.4491,-3.4471,-3.3954,-3.403,-3.4105,-3.4177,-3.4232,-3.4668,-3.484,-3.4247,-3.3729,-3.3325,-3.1864,-3.1738,-3.1332,-3.0762,-3.0655,-3.0692,-3.0576,-3.0543,-3.0548,-3.0467,-3.0525,-3.0467,-3.0398,-3.0398,-3.0398,-3.0398,-3.0398,-3.0398,-3.0398,-3.0398,-3.0379,-3.0355,-3.0337,-3.0272,-3.0199,-3.0171,-3.0157,-3.0109,-3.0064,-3.0083,-3.0094,-2.9984,-2.9988,-3.0079,-3.0083,-3.0132,-3.0157,-3.019,-3.019,-3.019,-3.019,-3.0157,-3.0128,-3.0157,-3.0157,-3.0113,-3.0198,-3.0556,-3.1268,-3.1331,-3.1631,-3.1958,-3.145,-3.1693,-3.2292,-3.2161,-3.2255,-3.2198,-3.2386,-3.2274,-3.218,-3.2159,-3.1953,-3.1878,-3.1802,-3.1744,-3.1672,-3.1708,-3.1763,-3.1744,-3.1723,-3.1796,-3.1829,-3.2044,-3.2084,-3.2083,-3.2385,-3.2086,-3.1804,-3.1578,-3.1446,-3.1808,-3.1901,-3.1901,-3.1881,-3.1899,-3.1934,-3.195,-3.1834,-3.196,-3.1998,-3.1976,-3.1976,-3.1976,-3.1995,-3.1995,-3.2088,-3.243,-3.2529,-3.2606,-3.2777,-3.2647,-3.2956,-3.3355,-3.326,-3.3051,-3.2976,-3.307,-3.3161,-3.3464,-3.4071,-3.3954,-3.3342,-3.3244,-3.2792,-3.1768,-3.111,-3.0743,-3.0588,-3.0479,-3.0469,-3.0499,-3.0425,-3.039,-3.0398,-3.0398,-3.0398,-3.0398,-3.0398,-3.0398,-3.0398,-3.0398,-3.0398,-3.0398,-3.0348,-3.0323,-3.0318,-3.0324,-3.0272,-3.0204,-3.0142,-3.0113,-3.0094,-3.0019,-3.0022,-3.0083,-2.9965,-2.995,-3.0019,-3.0049,-3.0068,-3.0068,-3.0117,-3.0132,-3.0132,-3.0132,-3.0098,-3.0098,-3.0098,-3.0083,-3.0038,-2.9975,-2.9983,-3.0232,-3.0751,-3.1036,-3.1203,-3.1445,-3.163,-3.1796,-3.1946,-3.1984,-3.1984,-3.1965,-3.1682,-3.114,-3.1082,-3.0781,-3.0144,-3.0126,-3.0105,-3.0107,-3.0105,-3.0143,-3.0083,-3.0116,-3.0073,-3.0052,-3.0644,-3.1065,-3.0988,-3.0653,-3.0355,-3.0206,-3.013,-3.0224,-3.0338,-3.0451,-3.0431,-3.0525,-3.0879,-3.1213,-3.1435,-3.1712,-3.1912,-3.1933,-3.1952,-3.1912,-3.189,-3.193,-3.1908,-3.1868,-3.2024,-3.2104,-3.2185,-3.2264,-3.189,-3.1631,-3.2444,-3.2599,-3.1921,-3.1487,-3.1732,-3.2562,-3.2787,-3.3336,-3.2931,-3.245,-3.2604,-3.2715,-3.1284,-3.109,-3.0849,-3.0608,-3.0449,-3.0439,-3.0469,-3.0402,-3.0348,-3.0348,-3.0374,-3.0362,-3.0362,-3.0362,-3.0374,-3.0348,-3.0374,-3.0374,-3.0398,-3.0336,-3.0311,-3.0292,-3.0312,-3.024,-3.0171,-3.0161,-3.0128,-3.0098,-3.0022,-3.0038,-2.9977,-2.963,-2.9614,-2.995,-2.9646,-2.9753,-2.9981,-3.0087,-3.0102,-3.0102,-3.0102,-3.0068,-3.0053,-3.0038,-2.9988,-2.9891,-2.9823,-2.9754,-2.9812,-3.0114,-3.0301,-3.0241,-3.0632,-3.087,-3.0889,-3.087,-3.087,-3.0889,-3.0886,-3.0642,-3.0232,-3.0118,-2.9872,-2.9518,-2.9349,-2.9349,-2.9425,-2.933,-2.931,-2.9249,-2.9265,-2.924,-2.9329,-2.9672,-3.0018,-3.0057,-2.9744,-2.9487,-2.9412,-2.9414,-2.9453,-2.9511,-2.9752,-2.9919,-3.0178,-3.0926,-3.1145,-3.1284,-3.16,-3.1857,-3.1935,-3.1861,-3.1801,-3.1634,-3.1578,-3.1771,-3.1727,-3.1782,-3.1846,-3.1912,-3.1955,-3.1771,-3.1565,-3.1829,-3.1869,-3.1461,-3.1406,-3.2272,-3.2822,-3.2694,-3.277,-3.2732,-3.2272,-3.2386,-3.2956,-3.0917,-3.157,-3.1407,-3.0791,-3.0604,-3.0563,-3.0458,-3.0371,-3.0316,-3.0316,-3.0318,-3.0318,-3.0312,-3.0318,-3.0299,-3.0304,-3.033,-3.033,-3.0343,-3.0323,-3.0286,-3.0266,-3.0266,-3.0213,-3.0123,-3.0157,-3.0147,-3.0102,-3.0087,-3.0072,-2.9924,-2.9241,-2.9263,-2.975,-2.9333,-2.9368,-2.9927,-3.0057,-3.0057,-3.0057,-3.0057,-3.0041,-2.9975,-2.9907,-2.9839,-2.9717,-2.9608,-2.9551,-2.9589,-2.957,-2.9568,-2.9448,-2.9429,-2.9425,-2.9479,-2.9572,-2.9537,-2.9425,-2.9548,-2.9416,-2.9381,-2.9357,-2.924,-2.924,-2.9218,-2.924,-2.924,-2.9218,-2.9156,-2.9134,-2.9134,-2.9112,-2.9085,-2.9122,-2.9108,-2.9175,-2.9277,-2.932,-2.9291,-2.9272,-2.9353,-2.958,-2.999,-3.0429,-3.0293,-3.1002,-3.15,-3.1695,-3.2006,-3.2093,-3.2038,-3.1866,-3.1644,-3.1427,-3.1209,-3.1459,-3.1607,-3.1677,-3.1737,-3.1823,-3.1868,-3.1908,-3.1949,-3.2176,-3.212,-3.1864,-3.2222,-3.2913,-3.2807,-3.2516,-3.3175,-3.3721,-3.2882,-3.2619,-3.3671,-3.2568,-3.269,-3.2257,-3.1602,-3.1457,-3.103,-3.0428,-3.0402,-3.0379,-3.0367,-3.0323,-3.0311,-3.0311,-3.0311,-3.0304,-3.0304,-3.0323,-3.0343,-3.0247,-3.0292,-3.0221,-3.0185,-3.0199,-3.0185,-3.0109,-3.0049,-3.0053,-3.0053,-2.995,-2.994,-2.9883,-2.9545,-2.9683,-2.9796,-2.9645,-2.9702,-2.9945,-2.9945,-2.9962,-2.9962,-2.9945,-2.991,-2.9823,-2.9755,-2.9682,-2.9608,-2.9451,-2.9388,-2.9368,-2.9388,-2.9349,-2.9326,-2.9265,-2.9243,-2.9203,-2.9203,-2.9225,-2.9222,-2.9178,-2.9134,-2.9134,-2.9067,-2.8975,-2.8975,-2.9017,-2.904,-2.904,-2.9017,-2.8975,-2.8947,-2.8905,-2.8905,-2.8881,-2.8881,-2.8905,-2.8975,-2.9067,-2.9156,-2.92,-2.9222,-2.9243,-2.9265,-2.9431,-2.9909,-3.0405,-3.1108,-3.1824,-3.212,-3.2281,-3.2188,-3.1979,-3.1795,-3.1573,-3.1528,-3.1293,-3.1298,-3.145,-3.1478,-3.1626,-3.1714,-3.1755,-3.1801,-3.2084,-3.2478,-3.2352,-3.2188,-3.2598,-3.3194,-3.2773,-3.2481,-3.301,-3.3315,-3.2895,-3.3012,-3.3978,-3.2557,-3.2863,-3.2304,-3.1283,-3.1124,-3.0871,-3.0463,-3.0402,-3.0379,-3.0336,-3.0311,-3.0299,-3.0299,-3.0299,-3.0311,-3.0304,-3.0336,-3.0299,-3.0234,-3.024,-3.0199,-3.0109,-3.0113,-3.0098,-3.0079,-3.0064,-3.0049,-2.9962,-2.9649,-2.9542,-2.9756,-2.9225,-2.9155,-2.9668,-2.9536,-2.9498,-2.9855,-2.9895,-2.9895,-2.9842,-2.9842,-2.979,-2.9719,-2.9608,-2.9549,-2.945,-2.9368,-2.9283,-2.924,-2.9218,-2.9197,-2.9197,-2.9156,-2.9134,-2.9112,-2.9067,-2.9089,-2.9067,-2.9021,-2.8975,-2.8998,-2.8905,-2.8839,-2.8834,-2.8834,-2.8858,-2.8858,-2.8858,-2.8834,-2.8828,-2.8804,-2.8785,-2.8761,-2.8761,-2.8767,-2.8815,-2.8934,-2.9044,-2.9089,-2.9134,-2.9152,-2.9193,-2.9281,-2.9728,-3.0369,-3.103,-3.169,-3.1673,-3.1839,-3.1912,-3.1759,-3.1612,-3.1525,-3.1531,-3.1431,-3.1251,-3.1288,-3.1265,-3.1473,-3.1649,-3.1668,-3.1668,-3.2011,-3.2335,-3.2711,-3.2678,-3.3101,-3.3324,-3.3408,-3.3287,-3.3127,-3.3153,-3.3481,-3.3655,-3.4071,-3.2036,-3.2717,-3.2111,-3.0839,-3.0721,-3.0632,-3.0406,-3.0402,-3.0367,-3.0304,-3.0318,-3.0305,-3.0312,-3.0305,-3.0299,-3.0292,-3.0279,-3.0241,-3.0174,-3.0166,-3.0157,-3.0098,-3.0068,-2.992,-2.9931,-2.9798,-2.9783,-2.9582,-2.9209,-2.9175,-2.9431,-2.8644,-2.8871,-2.9517,-2.9274,-2.9255,-2.9803,-2.9878,-2.9842,-2.9789,-2.9771,-2.9737,-2.9608,-2.9472,-2.9411,-2.9326,-2.924,-2.9197,-2.9175,-2.9112,-2.9067,-2.9067,-2.9067,-2.904,-2.8952,-2.8929,-2.8929,-2.8929,-2.8858,-2.8785,-2.8839,-2.8767,-2.8712,-2.8687,-2.8687,-2.8712,-2.8712,-2.8712,-2.8737,-2.8755,-2.873,-2.8687,-2.8669,-2.8669,-2.8644,-2.8694,-2.8815,-2.8881,-2.897,-2.8975,-2.8998,-2.9168,-2.9357,-2.9858,-3.0341,-3.0959,-3.1407,-3.1348,-3.1244,-3.125,-3.1023,-3.0748,-3.0491,-3.0496,-3.0617,-3.0554,-3.0628,-3.0696,-3.0849,-3.1038,-3.0775,-3.0761,-3.1686,-3.2145,-3.2405,-3.259,-3.2701,-3.3072,-3.3746,-3.377,-3.3217,-3.3501,-3.4167,-3.4139,-3.3851,-3.2806,-3.2949,-3.2447,-3.1618,-3.1515,-3.103,-3.0467,-3.039,-3.0367,-3.0304,-3.0304,-3.0318,-3.0305,-3.0311,-3.0304,-3.0292,-3.0254,-3.0207,-3.0138,-3.0123,-3.0079,-3.0053,-2.992,-2.9654,-2.914,-2.9026,-2.9026,-2.9068,-2.8882,-2.8871,-2.9026,-2.9172,-2.9593,-2.967,-2.9638,-2.9507,-2.9751,-2.9771,-2.9735,-2.9717,-2.9699,-2.9626,-2.9511,-2.9353,-2.9246,-2.9178,-2.9067,-2.8998,-2.904,-2.8975,-2.8952,-2.891,-2.8929,-2.8923,-2.8858,-2.8834,-2.8834,-2.881,-2.8712,-2.8662,-2.8612,-2.8562,-2.8484,-2.8458,-2.8484,-2.8536,-2.8543,-2.8543,-2.8562,-2.8543,-2.8536,-2.851,-2.851,-2.851,-2.8484,-2.8518,-2.8594,-2.8687,-2.8785,-2.881,-2.8858,-2.9033,-2.9185,-2.9465,-2.9764,-3.0136,-3.0643,-3.0815,-3.0589,-3.0387,-3.0051,-2.9661,-2.9405,-2.9222,-2.9379,-2.9462,-2.9572,-2.9646,-2.9651,-2.9687,-2.9462,-2.9766,-3.0725,-3.1404,-3.1663,-3.1908,-3.213,-3.2297,-3.2617,-3.2858,-3.3056,-3.3202,-3.3343,-3.3799,-3.3542,-3.2392,-3.2351,-3.1868,-3.1193,-3.1102,-3.0818,-3.0448,-3.0402,-3.0371,-3.0336,-3.0336,-3.0323,-3.0311,-3.0355,-3.0323,-3.0286,-3.026,-3.0226,-3.0171,-3.0113,-3.0083,-2.9924,-2.9673,-2.9239,-2.8764,-2.8436,-2.8455,-2.8684,-2.8293,-2.8624,-2.9225,-2.9366,-2.9408,-2.9695,-2.9716,-2.9718,-2.9737,-2.9718,-2.9681,-2.9645,-2.9608,-2.9531,-2.9334,-2.9188,-2.9093,-2.8998,-2.8929,-2.8858,-2.89,-2.8858,-2.8834,-2.881,-2.8785,-2.8761,-2.8785,-2.8761,-2.8737,-2.8687,-2.8612,-2.8536,-2.8502,-2.8424,-2.8398,-2.8353,-2.838,-2.8406,-2.8432,-2.8458,-2.8458,-2.8458,-2.8406,-2.8406,-2.8432,-2.8424,-2.8424,-2.8432,-2.8458,-2.851,-2.8612,-2.8662,-2.8712,-2.8743,-2.8919,-2.9053,-2.9241,-2.9448,-2.9801,-3.0204,-2.9984,-2.9673,-2.9448,-2.915,-2.9059,-2.8858,-2.89,-2.8947,-2.8923,-2.8923,-2.8952,-2.8975,-2.9007,-2.9237,-2.9803,-3.0346,-3.0849,-3.1177,-3.1385,-3.1436,-3.1528,-3.1898,-3.2194,-3.2292,-3.2501,-3.2937,-3.2905,-3.1534,-3.1493,-3.1097,-3.0557,-3.0479,-3.0455,-3.0402,-3.0394,-3.0352,-3.0316,-3.0367,-3.0367,-3.0336,-3.0336,-3.0355,-3.0292,-3.0292,-3.024,-3.0185,-3.0109,-3.0045,-2.965,-2.9372,-2.892,-2.8384,-2.8322,-2.8065,-2.8303,-2.8175,-2.8647,-2.9131,-2.8971,-2.9093,-2.9641,-2.9718,-2.9701,-2.9701,-2.9701,-2.9664,-2.9589,-2.9531,-2.9301,-2.8987,-2.8857,-2.8627,-2.82,-2.8099,-2.8275,-2.8385,-2.8494,-2.8561,-2.8658,-2.8637,-2.8656,-2.8712,-2.8687,-2.8612,-2.8562,-2.851,-2.8432,-2.838,-2.8353,-2.8327,-2.8273,-2.8246,-2.8318,-2.8345,-2.8327,-2.8345,-2.8345,-2.8327,-2.8345,-2.8345,-2.8345,-2.8345,-2.8345,-2.8327,-2.8353,-2.8432,-2.8484,-2.8536,-2.8569,-2.8644,-2.8796,-2.8864,-2.9077,-2.9107,-2.9418,-2.9308,-2.9089,-2.8974,-2.884,-2.884,-2.8767,-2.881,-2.8834,-2.8852,-2.8852,-2.8858,-2.8881,-2.89,-2.913,-2.93,-2.9507,-3.0013,-3.0328,-3.0522,-3.0443,-3.0567,-3.1057,-3.1297,-3.1394,-3.1671,-3.2059,-3.1474,-3.0645,-3.0665,-3.0577,-3.0499,-3.0458,-3.0406,-3.039,-3.039,-3.0359,-3.0304,-3.0367,-3.0367,-3.0336,-3.0316,-3.0304,-3.0279,-3.026,-3.0207,-3.0185,-3.0123,-2.976,-2.9235,-2.968,-2.8882,-2.8327,-2.8441,-2.8213,-2.8175,-2.8384,-2.8673,-2.9049,-2.9481,-2.9696,-2.9735,-2.9719,-2.9701,-2.9683,-2.9664,-2.9608,-2.9494,-2.9341,-2.8849,-2.8355,-2.7963,-2.7588,-2.7077,-2.7032,-2.7209,-2.7718,-2.7736,-2.8021,-2.8506,-2.8569,-2.8518,-2.8492,-2.8484,-2.845,-2.8424,-2.838,-2.8327,-2.83,-2.8264,-2.8182,-2.8136,-2.8081,-2.8081,-2.8071,-2.8099,-2.8154,-2.8154,-2.8154,-2.8182,-2.8182,-2.8182,-2.8209,-2.8209,-2.8237,-2.8219,-2.8246,-2.83,-2.8353,-2.8406,-2.8484,-2.8562,-2.8612,-2.8662,-2.8712,-2.8737,-2.8712,-2.873,-2.8662,-2.8669,-2.8669,-2.8687,-2.8712,-2.8737,-2.8779,-2.8761,-2.8785,-2.881,-2.881,-2.881,-2.8985,-2.9113,-2.9216,-2.9489,-2.9572,-2.9425,-2.9646,-3.0129,-3.0341,-3.0438,-3.0783,-3.1114,-3.0828,-3.0559,-3.052,-3.0481,-3.0479,-3.0428,-3.0394,-3.039,-3.0398,-3.0367,-3.0336,-3.0379,-3.0379,-3.0348,-3.0316,-3.0304,-3.0292,-3.0273,-3.024,-3.0199,-3.0104,-2.9874,-2.9593,-2.9391,-2.8749,-2.8578,-2.8559,-2.8601,-2.8449,-2.8601,-2.8962,-2.9415,-2.9652,-2.9735,-2.9756,-2.9683,-2.9608,-2.9457,-2.9139,-2.8858,-2.8689,-2.8256,-2.7747,-2.7331,-2.7086,-2.6699,-2.6468,-2.6799,-2.703,-2.7538,-2.781,-2.8221,-2.8478,-2.8492,-2.8432,-2.838,-2.8327,-2.8318,-2.8327,-2.83,-2.8273,-2.8209,-2.8154,-2.8109,-2.8071,-2.7996,-2.7968,-2.7996,-2.8042,-2.8042,-2.8042,-2.806,-2.8071,-2.8053,-2.8071,-2.8053,-2.8053,-2.8071,-2.8099,-2.8081,-2.8109,-2.8164,-2.8219,-2.8282,-2.8362,-2.8458,-2.8484,-2.851,-2.8536,-2.8536,-2.851,-2.851,-2.8536,-2.8569,-2.8587,-2.8587,-2.8612,-2.8656,-2.8662,-2.8687,-2.8737,-2.8743,-2.8718,-2.8761,-2.8901,-2.8925,-2.8881,-2.896,-2.9117,-2.9172,-2.9227,-2.9494,-2.9719,-2.9604,-2.9885,-3.0519,-3.053,-3.053,-3.051,-3.0479,-3.0439,-3.0425,-3.041,-3.0398,-3.0379,-3.0348,-3.0348,-3.0379,-3.0398,-3.0336,-3.0304,-3.0336,-3.0286,-3.0247,-3.0194,-3.0118,-2.9946,-2.9646,-2.9216,-2.9076,-2.8795,-2.9061,-2.9068,-2.9036,-2.9093,-2.9399,-2.9859,-2.9769,-2.9755,-2.9701,-2.9608,-2.9494,-2.9045,-2.8334,-2.796,-2.7773,-2.7228,-2.6779,-2.6397,-2.6161,-2.5958,-2.5841,-2.6027,-2.6331,-2.7164,-2.7429,-2.782,-2.8348,-2.8432,-2.8353,-2.8273,-2.8237,-2.8164,-2.8219,-2.8237,-2.8209,-2.8126,-2.806,-2.8014,-2.7986,-2.794,-2.7911,-2.7893,-2.7957,-2.7957,-2.7957,-2.7957,-2.7957,-2.7986,-2.7957,-2.794,-2.7968,-2.7968,-2.7968,-2.795,-2.7979,-2.7996,-2.8053,-2.8119,-2.8201,-2.83,-2.8345,-2.8327,-2.8353,-2.838,-2.8406,-2.8432,-2.8458,-2.8484,-2.8484,-2.8502,-2.8502,-2.851,-2.8536,-2.8562,-2.8587,-2.8612,-2.8612,-2.8662,-2.8712,-2.8687,-2.8637,-2.8743,-2.8881,-2.8955,-2.9009,-2.8978,-2.902,-2.8905,-2.8947,-3.0469,-3.0428,-3.055,-3.055,-3.0479,-3.0479,-3.0466,-3.0398,-3.0398,-3.0398,-3.0367,-3.0316,-3.0336,-3.0367,-3.033,-3.033,-3.0386,-3.026,-3.0247,-3.0221,-3.0128,-2.9785,-2.955,-2.9525,-2.9482,-2.9052,-2.9355,-2.9647,-2.9674,-2.954,-2.9693,-2.9789,-2.9754,-2.97,-2.9608,-2.9439,-2.8952,-2.8372,-2.755,-2.7103,-2.6953,-2.6595,-2.618,-2.5566,-2.5196,-2.4798,-2.4151,-2.4451,-2.5059,-2.6235,-2.6531,-2.7193,-2.8008,-2.8146,-2.8076,-2.8174,-2.8154,-2.8081,-2.8099,-2.8126,-2.8081,-2.8071,-2.7986,-2.79,-2.79,-2.7777,-2.773,-2.7777,-2.7824,-2.7824,-2.7824,-2.7795,-2.7842,-2.7842,-2.7842,-2.7824,-2.7824,-2.7882,-2.7864,-2.7818,-2.7818,-2.7836,-2.7853,-2.7893,-2.8035,-2.8136,-2.8164,-2.8191,-2.8291,-2.8318,-2.8371,-2.838,-2.838,-2.8406,-2.838,-2.8424,-2.8406,-2.8406,-2.8406,-2.8406,-2.8432,-2.8432,-2.851,-2.8484,-2.8536,-2.8484,-2.8458,-2.8594,-2.8712,-2.8785,-2.8828,-2.8876,-2.8881,-2.8881,-2.8905,-3.049,-3.0469,-3.051,-3.049,-3.0425,-3.0444,-3.0402,-3.0348,-3.0336,-3.0343,-3.033,-3.0273,-3.0273,-3.0305,-3.026,-3.0279,-3.0318,-3.0228,-3.0234,-3.0213,-3.008,-2.9889,-2.9783,-2.9737,-2.9753,-2.9529,-2.978,-2.9878,-2.9789,-2.9697,-2.97,-2.9682,-2.9568,-2.9664,-2.9533,-2.8932,-2.8203,-2.7457,-2.6711,-2.6191,-2.5948,-2.5409,-2.4962,-2.4586,-2.4431,-2.4182,-2.3982,-2.4335,-2.4834,-2.5371,-2.587,-2.6741,-2.7554,-2.7629,-2.7817,-2.8055,-2.8071,-2.8014,-2.8014,-2.8014,-2.8014,-2.7957,-2.7853,-2.7766,-2.7766,-2.7701,-2.7701,-2.7719,-2.7707,-2.7707,-2.7748,-2.7689,-2.7677,-2.7724,-2.7724,-2.7707,-2.7707,-2.7736,-2.7736,-2.7659,-2.763,-2.7647,-2.7647,-2.7647,-2.7824,-2.7996,-2.8025,-2.8053,-2.8136,-2.8209,-2.8246,-2.8273,-2.83,-2.8273,-2.8273,-2.83,-2.83,-2.83,-2.83,-2.83,-2.8318,-2.838,-2.8432,-2.8424,-2.8398,-2.838,-2.8406,-2.8484,-2.8562,-2.8662,-2.8737,-2.881,-2.8834,-2.8858,-2.8905,-3.0469,-3.0428,-3.0439,-3.0428,-3.0402,-3.0402,-3.0359,-3.0348,-3.0336,-3.0323,-3.0305,-3.0234,-3.0247,-3.0279,-3.024,-3.0234,-3.0279,-3.0234,-3.0207,-3.0199,-3.0142,-3.0102,-3.0038,-2.9972,-2.9869,-2.9874,-2.9876,-2.9825,-2.9755,-2.9473,-2.925,-2.9138,-2.9026,-2.8895,-2.8895,-2.8054,-2.7158,-2.6488,-2.5783,-2.5264,-2.502,-2.4576,-2.4168,-2.403,-2.3967,-2.3886,-2.3901,-2.4201,-2.4793,-2.5301,-2.5847,-2.6516,-2.7048,-2.7442,-2.7593,-2.783,-2.7986,-2.794,-2.7911,-2.7929,-2.7917,-2.7813,-2.7736,-2.7659,-2.7642,-2.7642,-2.7612,-2.7612,-2.76,-2.76,-2.7642,-2.76,-2.7587,-2.7635,-2.7647,-2.7617,-2.7557,-2.7557,-2.7544,-2.7513,-2.7513,-2.7513,-2.7557,-2.7557,-2.7617,-2.7795,-2.7929,-2.7911,-2.7922,-2.8007,-2.8109,-2.8136,-2.8191,-2.8164,-2.8154,-2.8182,-2.8209,-2.8136,-2.8136,-2.8164,-2.8219,-2.8273,-2.83,-2.8273,-2.8273,-2.83,-2.8353,-2.838,-2.8458,-2.8543,-2.8662,-2.8761,-2.881,-2.8858,-2.8881,-3.0379,-3.0316,-3.0316,-3.0352,-3.0406,-3.0398,-3.0394,-3.0379,-3.0367,-3.0336,-3.0311,-3.0247,-3.0247,-3.0267,-3.024,-3.0253,-3.026,-3.024,-3.0213,-3.0199,-3.0128,-3.0102,-3.0038,-2.9972,-2.9872,-2.9825,-2.9825,-2.979,-2.9607,-2.9005,-2.865,-2.8164,-2.7809,-2.7568,-2.8016,-2.6619,-2.5783,-2.5523,-2.4856,-2.4561,-2.4356,-2.4149,-2.3976,-2.3834,-2.381,-2.3747,-2.3793,-2.4068,-2.4671,-2.5374,-2.5672,-2.6461,-2.7558,-2.7662,-2.772,-2.7741,-2.7765,-2.7725,-2.7595,-2.7748,-2.7713,-2.763,-2.7617,-2.7587,-2.7526,-2.7509,-2.7509,-2.7539,-2.7526,-2.7496,-2.7526,-2.7557,-2.7544,-2.7544,-2.7557,-2.7526,-2.7483,-2.7421,-2.7421,-2.7407,-2.7407,-2.7407,-2.7483,-2.7496,-2.7496,-2.7587,-2.7771,-2.7813,-2.7777,-2.7806,-2.7911,-2.7979,-2.8007,-2.8025,-2.8025,-2.8071,-2.8071,-2.8042,-2.8014,-2.8042,-2.8071,-2.8081,-2.8109,-2.8126,-2.8154,-2.8209,-2.8264,-2.8318,-2.838,-2.8484,-2.8612,-2.8712,-2.8804,-2.8828,-2.881,-3.0417,-3.0348,-3.0352,-3.0383,-3.0402,-3.034,-3.0328,-3.0336,-3.033,-3.0318,-3.0305,-3.0279,-3.0279,-3.0292,-3.0279,-3.0247,-3.0234,-3.0234,-3.0226,-3.0204,-3.0132,-3.0102,-3.0053,-2.9972,-2.9853,-2.9874,-2.9822,-2.9448,-2.8944,-2.8402,-2.7975,-2.7509,-2.6707,-2.6376,-2.6414,-2.5801,-2.5504,-2.4857,-2.4487,-2.4303,-2.4094,-2.4034,-2.3915,-2.3747,-2.3721,-2.3678,-2.3665,-2.4033,-2.4705,-2.5254,-2.5458,-2.6286,-2.712,-2.7232,-2.7113,-2.7038,-2.701,-2.6895,-2.6836,-2.69,-2.7128,-2.7295,-2.7526,-2.7509,-2.7496,-2.7496,-2.7496,-2.7465,-2.7452,-2.7452,-2.7513,-2.7452,-2.7469,-2.7438,-2.7438,-2.7407,-2.7376,-2.7345,-2.7345,-2.7345,-2.7362,-2.7313,-2.7359,-2.7341,-2.7341,-2.7373,-2.7544,-2.7665,-2.7647,-2.7659,-2.7736,-2.7789,-2.7847,-2.7864,-2.7893,-2.7929,-2.7946,-2.7917,-2.7917,-2.7946,-2.7929,-2.794,-2.7986,-2.8025,-2.8071,-2.8126,-2.8004,-2.7996,-2.8273,-2.8432,-2.8272,-2.839,-2.8555,-2.8628,-2.8662,-3.0436,-3.039,-3.0383,-3.0402,-3.0398,-3.0348,-3.0316,-3.0336,-3.0311,-3.0305,-3.0305,-3.0305,-3.0305,-3.0305,-3.0292,-3.0279,-3.0234,-3.0207,-3.0213,-3.0204,-3.0132,-3.0102,-3.0053,-2.9899,-2.9626,-2.9572,-2.9347,-2.8976,-2.8098,-2.7761,-2.7054,-2.6202,-2.5685,-2.5391,-2.5263,-2.5097,-2.4949,-2.445,-2.4284,-2.4228,-2.4036,-2.3917,-2.3852,-2.3721,-2.3652,-2.3607,-2.3777,-2.4177,-2.4795,-2.4981,-2.5409,-2.5977,-2.6417,-2.6415,-2.6244,-2.6118,-2.6061,-2.5993,-2.5964,-2.5924,-2.612,-2.6385,-2.7005,-2.7417,-2.7452,-2.7421,-2.7421,-2.7438,-2.7376,-2.7359,-2.7341,-2.7327,-2.7345,-2.7345,-2.7345,-2.733,-2.725,-2.7218,-2.7264,-2.725,-2.725,-2.725,-2.7218,-2.7201,-2.7233,-2.7247,-2.731,-2.7404,-2.7513,-2.7574,-2.7557,-2.763,-2.7672,-2.7719,-2.7736,-2.7736,-2.7783,-2.7801,-2.7801,-2.783,-2.7842,-2.7836,-2.7882,-2.794,-2.795,-2.7901,-2.7673,-2.7647,-2.7538,-2.7471,-2.7403,-2.7664,-2.8179,-2.8227,-2.8196,-3.0398,-3.0398,-3.0398,-3.041,-3.039,-3.039,-3.039,-3.0398,-3.0336,-3.0304,-3.0304,-3.0318,-3.0318,-3.0304,-3.0318,-3.0292,-3.0273,-3.0234,-3.0226,-3.0185,-3.0147,-3.006,-2.992,-2.9763,-2.9244,-2.8799,-2.8482,-2.811,-2.7201,-2.6526,-2.567,-2.5007,-2.4847,-2.4668,-2.4597,-2.4524,-2.445,-2.4284,-2.4228,-2.4114,-2.3937,-2.3834,-2.3725,-2.3611,-2.3539,-2.3476,-2.3679,-2.4135,-2.4779,-2.5163,-2.55,-2.5922,-2.6026,-2.5732,-2.5404,-2.5147,-2.509,-2.4958,-2.5057,-2.5017,-2.5286,-2.5721,-2.6692,-2.7106,-2.7175,-2.704,-2.7075,-2.7213,-2.725,-2.7184,-2.7135,-2.7201,-2.725,-2.725,-2.7267,-2.7186,-2.7122,-2.7105,-2.7169,-2.7169,-2.712,-2.7087,-2.7089,-2.7089,-2.7105,-2.7137,-2.7152,-2.7233,-2.7327,-2.7452,-2.7483,-2.7465,-2.7526,-2.7557,-2.7557,-2.7587,-2.7635,-2.7665,-2.7665,-2.7647,-2.7659,-2.7719,-2.7748,-2.7777,-2.7818,-2.7621,-2.7095,-2.6665,-2.6348,-2.6368,-2.6651,-2.685,-2.7327,-2.7393,-2.7296,-3.0383,-3.0398,-3.0398,-3.0402,-3.0394,-3.0406,-3.0383,-3.039,-3.0379,-3.0379,-3.0367,-3.0367,-3.0367,-3.0367,-3.0367,-3.0343,-3.0311,-3.0267,-3.0247,-3.0188,-3.0061,-2.9708,-2.9383,-2.9095,-2.8556,-2.8055,-2.7664,-2.728,-2.6422,-2.5531,-2.5073,-2.4673,-2.4532,-2.4429,-2.4339,-2.4248,-2.4247,-2.4209,-2.4171,-2.4036,-2.3876,-2.3771,-2.3616,-2.3499,-2.3448,-2.3383,-2.3531,-2.4049,-2.4607,-2.4741,-2.5165,-2.5522,-2.554,-2.5335,-2.506,-2.4254,-2.3843,-2.3502,-2.4013,-2.4516,-2.4932,-2.5415,-2.6453,-2.6556,-2.6522,-2.647,-2.6659,-2.695,-2.7122,-2.7072,-2.7023,-2.704,-2.7072,-2.7057,-2.7089,-2.7057,-2.6975,-2.7007,-2.704,-2.7007,-2.699,-2.6957,-2.6959,-2.6942,-2.6975,-2.7007,-2.704,-2.7072,-2.7154,-2.7282,-2.7359,-2.7359,-2.739,-2.7373,-2.7434,-2.7465,-2.7526,-2.7526,-2.7526,-2.7526,-2.7557,-2.76,-2.76,-2.7432,-2.7162,-2.6747,-2.6231,-2.5825,-2.5421,-2.5864,-2.6164,-2.6273,-2.6381,-2.647,-2.6444,-3.0394,-3.0402,-3.0402,-3.0425,-3.0439,-3.0458,-3.0447,-3.0444,-3.0402,-3.0398,-3.0398,-3.0402,-3.039,-3.039,-3.039,-3.0359,-3.0304,-3.0292,-3.0267,-3.015,-2.9879,-2.9365,-2.8922,-2.8369,-2.7706,-2.7222,-2.6779,-2.6412,-2.5649,-2.5136,-2.4663,-2.4599,-2.4532,-2.4411,-2.4303,-2.4229,-2.4209,-2.417,-2.4094,-2.3976,-2.3834,-2.3685,-2.3567,-2.343,-2.3378,-2.3307,-2.3347,-2.3932,-2.4241,-2.4304,-2.476,-2.4838,-2.4696,-2.4413,-2.4026,-2.3295,-2.3035,-2.3134,-2.3636,-2.403,-2.4637,-2.5272,-2.5853,-2.5807,-2.6077,-2.6211,-2.6567,-2.6906,-2.6957,-2.6959,-2.6909,-2.6909,-2.6876,-2.6842,-2.6876,-2.6876,-2.6926,-2.6926,-2.6893,-2.6859,-2.6842,-2.6809,-2.6809,-2.6842,-2.6876,-2.6942,-2.6975,-2.7007,-2.7057,-2.7122,-2.7201,-2.7215,-2.7233,-2.7233,-2.7296,-2.7341,-2.7373,-2.7404,-2.7452,-2.7452,-2.7465,-2.7422,-2.7347,-2.6889,-2.6335,-2.5835,-2.5283,-2.4906,-2.4652,-2.5057,-2.5207,-2.5082,-2.5211,-2.5497,-2.5416,-3.0383,-3.0398,-3.0398,-3.0439,-3.0479,-3.0479,-3.0479,-3.0479,-3.0433,-3.039,-3.0402,-3.0386,-3.0394,-3.039,-3.0394,-3.0364,-3.034,-3.0316,-3.0145,-3.0087,-2.9448,-2.8859,-2.8165,-2.7785,-2.6944,-2.634,-2.5921,-2.5646,-2.5005,-2.4676,-2.4647,-2.4599,-2.4461,-2.4356,-2.4303,-2.4209,-2.417,-2.4151,-2.4034,-2.3896,-2.3792,-2.3682,-2.3544,-2.3383,-2.3289,-2.321,-2.3295,-2.3673,-2.4121,-2.4069,-2.4016,-2.4007,-2.3665,-2.3298,-2.2819,-2.2764,-2.272,-2.3039,-2.3522,-2.3998,-2.4299,-2.4611,-2.465,-2.5292,-2.5898,-2.6015,-2.6284,-2.6707,-2.6775,-2.6742,-2.6742,-2.6708,-2.6708,-2.6674,-2.6674,-2.6674,-2.6691,-2.6725,-2.6725,-2.6691,-2.6674,-2.6674,-2.664,-2.6674,-2.6708,-2.6826,-2.6809,-2.6792,-2.6876,-2.6909,-2.6973,-2.7004,-2.7087,-2.7105,-2.7169,-2.7201,-2.7233,-2.7264,-2.7296,-2.7359,-2.7341,-2.7195,-2.7061,-2.6225,-2.5312,-2.484,-2.4343,-2.4098,-2.3916,-2.3904,-2.3952,-2.3731,-2.3947,-2.4482,-2.4608,-3.0386,-3.0398,-3.0441,-3.049,-3.049,-3.0481,-3.05,-3.0479,-3.0417,-3.0406,-3.0406,-3.0447,-3.0436,-3.0402,-3.0406,-3.0386,-3.0375,-3.0321,-2.9951,-2.9538,-2.9002,-2.8109,-2.717,-2.6768,-2.6086,-2.5499,-2.512,-2.5069,-2.4782,-2.466,-2.4631,-2.4582,-2.4445,-2.4321,-2.4284,-2.419,-2.4132,-2.4112,-2.3953,-2.3852,-2.3771,-2.3616,-2.3453,-2.336,-2.3265,-2.3168,-2.3182,-2.3135,-2.3266,-2.318,-2.3076,-2.2997,-2.29,-2.2681,-2.2532,-2.25,-2.2864,-2.318,-2.3524,-2.4056,-2.4585,-2.5093,-2.543,-2.5899,-2.6117,-2.5866,-2.595,-2.6353,-2.6572,-2.6572,-2.6572,-2.6537,-2.6537,-2.6503,-2.6468,-2.6485,-2.645,-2.652,-2.6554,-2.652,-2.652,-2.6485,-2.6468,-2.652,-2.6554,-2.6503,-2.6452,-2.6435,-2.6521,-2.6555,-2.664,-2.6723,-2.694,-2.7007,-2.704,-2.7007,-2.699,-2.7023,-2.7055,-2.712,-2.7164,-2.6567,-2.5935,-2.5066,-2.426,-2.3937,-2.3724,-2.3565,-2.3401,-2.3289,-2.3354,-2.3383,-2.343,-2.3856,-2.3903,-3.0449,-3.046,-3.052,-3.055,-3.054,-3.055,-3.053,-3.054,-3.0519,-3.0479,-3.0439,-3.0469,-3.0458,-3.0414,-3.0428,-3.0428,-3.0398,-3.0394,-2.9848,-2.9236,-2.8535,-2.7529,-2.6702,-2.604,-2.5484,-2.4974,-2.4832,-2.4776,-2.4692,-2.4679,-2.4631,-2.4582,-2.4429,-2.4321,-2.4266,-2.4171,-2.4074,-2.4014,-2.3889,-2.3786,-2.3725,-2.3567,-2.3383,-2.3289,-2.3217,-2.3144,-2.3045,-2.2927,-2.285,-2.279,-2.271,-2.2647,-2.2685,-2.2824,-2.2683,-2.2598,-2.284,-2.3304,-2.353,-2.3988,-2.4661,-2.5013,-2.5428,-2.5577,-2.559,-2.5426,-2.5929,-2.633,-2.6417,-2.6417,-2.6382,-2.6347,-2.6329,-2.631,-2.6258,-2.6222,-2.6187,-2.617,-2.6222,-2.6187,-2.6187,-2.6187,-2.6151,-2.6134,-2.6187,-2.6222,-2.6118,-2.6154,-2.6206,-2.6191,-2.625,-2.6303,-2.6455,-2.6724,-2.6792,-2.6759,-2.6691,-2.6759,-2.6758,-2.6534,-2.6339,-2.5489,-2.4701,-2.4102,-2.3621,-2.3337,-2.3127,-2.3112,-2.3095,-2.3045,-2.3144,-2.3241,-2.3307,-2.3436,-2.3691,-3.0501,-3.052,-3.0569,-3.0617,-3.0617,-3.0617,-3.0598,-3.0598,-3.0569,-3.0569,-3.049,-3.049,-3.0449,-3.0419,-3.046,-3.0449,-3.0428,-3.0406,-2.9821,-2.9044,-2.8363,-2.7638,-2.6797,-2.5931,-2.5603,-2.5163,-2.4866,-2.4745,-2.4676,-2.4631,-2.4601,-2.4584,-2.4464,-2.4321,-2.421,-2.4114,-2.4034,-2.3915,-2.3807,-2.3718,-2.3589,-2.3453,-2.3336,-2.3241,-2.3168,-2.3095,-2.2995,-2.2893,-2.2799,-2.2685,-2.2542,-2.246,-2.2479,-2.2649,-2.2512,-2.2454,-2.2735,-2.304,-2.3226,-2.3564,-2.3933,-2.4232,-2.471,-2.5053,-2.5114,-2.5428,-2.5914,-2.6118,-2.6189,-2.6225,-2.6154,-2.6134,-2.6115,-2.6132,-2.6043,-2.599,-2.5954,-2.5917,-2.5917,-2.5897,-2.5897,-2.5897,-2.5844,-2.5844,-2.5844,-2.5881,-2.5881,-2.5917,-2.5921,-2.5822,-2.5832,-2.5758,-2.5729,-2.6016,-2.632,-2.6302,-2.615,-2.6335,-2.6303,-2.5982,-2.5486,-2.4692,-2.403,-2.3556,-2.3131,-2.2892,-2.2851,-2.2842,-2.2816,-2.2816,-2.2944,-2.3122,-2.3473,-2.3621,-2.3839,-3.0569,-3.0569,-3.0578,-3.0617,-3.0617,-3.0617,-3.0617,-3.0598,-3.053,-3.052,-3.051,-3.0481,-3.046,-3.0398,-3.0449,-3.0449,-3.0419,-3.0329,-2.9806,-2.9071,-2.8406,-2.7918,-2.7229,-2.6203,-2.6346,-2.5771,-2.5005,-2.4714,-2.4629,-2.4566,-2.4515,-2.4498,-2.4321,-2.4229,-2.419,-2.4074,-2.3955,-2.3831,-2.3725,-2.3611,-2.3476,-2.3383,-2.3319,-2.3223,-2.3144,-2.3045,-2.2944,-2.2868,-2.2764,-2.2605,-2.2432,-2.2349,-2.2338,-2.2387,-2.2283,-2.2291,-2.2568,-2.2739,-2.2957,-2.3422,-2.3737,-2.3983,-2.4554,-2.5242,-2.5353,-2.5533,-2.5852,-2.5881,-2.5954,-2.5974,-2.5937,-2.5864,-2.5844,-2.5897,-2.5844,-2.5807,-2.5754,-2.5807,-2.5807,-2.577,-2.5717,-2.568,-2.5605,-2.5605,-2.5567,-2.5567,-2.553,-2.5567,-2.5663,-2.5533,-2.5371,-2.5121,-2.4952,-2.5175,-2.5396,-2.5512,-2.5511,-2.5761,-2.5696,-2.5112,-2.4503,-2.39,-2.3299,-2.2915,-2.2794,-2.2654,-2.2623,-2.2632,-2.2685,-2.2685,-2.279,-2.2989,-2.3371,-2.3641,-2.372]},{"header":{"parameterUnit":"m.s-1","parameterCategory":1,"la1":31.0,"la2":29.5877,"lo1":-88.7671,"lo2":-86.6584,"dy":0.0162,"dx":0.0185,"nx":115,"ny":88,"refTime":"2023-05-19T06:00:00:Z","depth":0,"parameterNumber":3,"parameterNumberName":"V-component_of_WINDS"},"data":[0.0,0.0,0.0,0.0,0.0,0.0,0.0,0.0,0.0,0.0,0.0,0.0,0.0,0.0,0.0,0.0,0.0,0.0,0.0,0.0,0.0,0.0,0.0,0.0,0.0,0.0,0.0,0.0,0.0,0.0,0.0,0.0,0.0,0.0,0.0,0.0,0.0,0.0,0.0,0.0,0.0,0.0,0.0,0.0,0.0,0.0,0.0,0.0,0.0,0.0,0.0,0.0,0.0,0.0,0.0,0.0,0.0,0.0,0.0,0.0,0.0,0.0,0.0,0.0,0.0,0.0,0.0,0.0,0.0,0.0,0.0,0.0,0.0,0.0,0.0,0.0,0.0,0.0,0.0,0.0,0.0,0.0,0.0,0.0,0.0,0.0,0.0,0.0,0.0,0.0,0.0,0.0,0.0,0.0,0.0,0.0,0.0,0.0,0.0,0.0,0.0,0.0,0.0,0.0,0.0,0.0,0.0,0.0,0.0,0.0,0.0,0.0,0.0,0.0,0.0,0.0,0.0,0.0,0.0,0.0,0.0,0.0,0.0,0.0,0.0,0.0,0.0,0.0,0.0,0.0,0.0,0.0,0.0,0.0,0.0,0.0,0.0,0.0,0.0,0.0,0.0,0.0,0.0,0.0,0.0,0.0,0.0,0.0,0.0,0.0,0.0,0.0,0.0,0.0,0.0,0.0,0.0,0.0,0.0,0.0,0.0,0.0,0.0,0.0,0.0,0.0,0.0,0.0,0.0,0.0,0.0,0.0,0.0,0.0,0.0,0.0,0.0,0.0,0.0,0.0,0.0,0.0,0.0,0.0,0.0,0.0,0.0,0.0,0.0,0.0,0.0,0.0,0.0,0.0,0.0,0.0,0.0,0.0,0.0,0.0,0.0,0.0,0.0,0.0,0.0,0.0,0.0,0.0,0.0,0.0,0.0,0.0,0.0,0.0,0.0,0.0,0.0,0.0,0.0,0.0,0.0,0.0,0.0,0.0,0.0,0.0,0.0,0.0,0.0,0.0,0.0,0.0,0.0,0.0,0.0,0.0,0.0,0.0,0.0,0.0,0.0,0.0,0.0,0.0,0.0,0.0,0.0,0.0,0.0,0.0,0.0,0.0,0.0,0.0,0.0,0.0,0.0,0.0,0.0,0.0,0.0,0.0,0.0,0.0,0.0,0.0,0.0,0.0,0.0,0.0,0.0,0.0,0.0,0.0,0.0,0.0,0.0,0.0,0.0,0.0,0.0,0.0,0.0,0.0,0.0,0.0,0.0,0.0,0.0,0.0,0.0,0.0,0.0,0.0,0.0,0.0,0.0,0.0,0.0,0.0,0.0,0.0,0.0,0.0,0.0,0.0,0.0,0.0,0.0,0.0,0.0,0.0,0.0,0.0,0.0,0.0,0.0,0.0,0.0,0.0,0.0,0.0,0.0,0.0,0.0,0.0,0.0,0.0,0.0,0.0,0.0,0.0,0.0,0.0,0.0,0.0,0.0,0.0,0.0,0.0,0.0,0.0,0.0,0.0,0.0,0.0,0.0,0.0,0.0,0.0,0.0,0.0,0.0,0.0,0.0,0.0,0.0,0.0,0.0,0.0,0.0,0.0,0.0,0.0,0.0,0.0,0.0,0.0,0.0,0.0,0.0,0.0,0.0,0.0,0.0,0.0,0.0,0.0,0.0,0.0,0.0,0.0,0.0,0.0,0.0,0.0,0.0,0.0,0.0,0.0,0.0,0.0,0.0,0.0,0.0,0.0,0.0,0.0,0.0,0.0,0.0,0.0,0.0,0.0,0.0,0.0,0.0,0.0,0.0,0.0,0.0,0.0,0.0,0.0,0.0,0.0,0.0,0.0,0.0,0.0,0.0,0.0,0.0,0.0,0.0,0.0,0.0,0.0,0.0,0.0,0.0,0.0,0.0,0.0,0.0,0.0,0.0,0.0,0.0,0.0,0.0,0.0,0.0,0.0,0.0,0.0,0.0,0.0,0.0,0.0,0.0,0.0,0.0,0.0,0.0,0.0,0.0,0.0,0.0,0.0,0.0,0.0,0.0,0.0,0.0,0.0,0.0,0.0,0.0,0.0,0.0,0.0,0.0,0.0,0.0,0.0,0.0,0.0,0.0,0.0,0.0,0.0,0.0,0.0,0.0,0.0,0.0,0.0,0.0,0.0,0.0,0.0,0.0,0.0,0.0,0.0,0.0,0.0,0.0,0.0,0.0,0.0,0.0,0.0,0.0,0.0,0.0,0.0,0.0,0.0,0.0,0.0,0.0,0.0,0.0,0.0,0.0,0.0,0.0,0.0,0.0,0.0,0.0,0.0,0.0,0.0,0.0,0.0,0.0,0.0,0.0,0.0,0.0,0.0,0.0,0.0,0.0,0.0,0.0,0.0,0.0,0.0,0.0,0.0,0.0,0.0,0.0,0.0,0.0,0.0,0.0,0.0,0.0,0.0,0.0,0.0,0.0,0.0,0.0,0.0,0.0,0.0,0.0,0.0,0.0,0.0,0.0,0.0,0.0,0.0,0.0,0.0,0.0,0.0,0.0,0.0,0.0,0.0,0.0,0.0,0.0,0.0,0.0,0.0,0.0,0.0,0.0,0.0,0.0,0.0,0.0,0.0,0.0,0.0,0.0,0.0,0.0,0.0,0.0,0.0,0.0,0.0,0.0,0.0,0.0,0.0,0.0,0.0,0.0,0.0,0.0,0.0,0.0,0.0,0.0,0.0,0.0,0.0,0.0,0.0,0.0,0.0,0.0,0.0,0.0,0.0,0.0,0.0,0.0,0.0,0.0,0.0,0.0,0.0,0.0,0.0,0.0,0.0,0.0,0.0,0.0,0.0,0.0,0.0,0.0,0.0,0.0,0.0,0.0,0.0,0.0,0.0,0.0,0.0,0.0,0.0,0.0,0.0,0.0,0.0,0.0,0.0,0.0,0.0,0.0,0.0,0.0,0.0,0.0,0.0,0.0,0.0,0.0,0.0,0.0,0.0,0.0,0.0,0.0,0.0,0.0,0.0,0.0,0.0,0.0,0.0,0.0,0.0,0.0,0.0,0.0,0.0,0.0,0.0,0.0,0.0,0.0,0.0,0.0,0.0,0.0,0.0,0.0,0.0,0.0,0.0,0.0,0.0,0.0,0.0,0.0,0.0,0.0,0.0,0.0,0.0,0.0,0.0,0.0,0.0,0.0,0.0,0.0,0.0,0.0,0.0,0.0,0.0,0.0,0.0,0.0,0.0,0.0,0.0,0.0,0.0,0.0,0.0,0.0,0.0,0.0,0.0,0.0,0.0,0.0,0.0,0.0,0.0,0.0,0.0,0.0,0.0,0.0,0.0,0.0,0.0,0.0,0.0,0.0,0.0,0.0,0.0,0.0,0.0,0.0,0.0,0.0,0.0,0.0,0.0,0.0,0.0,0.0,0.0,0.0,0.0,0.0,0.0,0.0,0.0,0.0,0.0,0.0,0.0,0.0,0.0,0.0,0.0,0.0,0.0,0.0,0.0,0.0,0.0,0.0,0.0,0.0,0.0,0.0,0.0,0.0,0.0,0.0,0.0,0.0,0.0,0.0,0.0,0.0,0.0,0.0,0.0,0.0,0.0,0.0,0.0,0.0,0.0,0.0,0.0,0.0,0.0,0.0,0.0,0.0,0.0,0.0,0.0,0.0,0.0,0.0,0.0,0.0,0.0,0.0,0.0,0.0,0.0,0.0,0.0,0.0,0.0,0.0,0.0,0.0,0.0,0.0,0.0,0.0,0.0,0.0,0.0,0.0,0.0,0.0,0.0,0.0,0.0,0.0,0.0,0.0,0.0,0.0,0.0,0.0,0.0,0.0,0.0,0.0,0.0,0.0,0.0,0.0,0.0,0.0,0.0,0.0,0.0,0.0,0.0,0.0,0.0,0.0,0.0,0.0,0.0,0.0,0.0,0.0,0.0,0.0,0.0,0.0,0.0,0.0,0.0,0.0,0.0,0.0,0.0,0.0,0.0,0.0,0.0,0.0,0.0,0.0,0.0,0.0,0.0,0.0,0.0,0.0,0.0,0.0,0.0,0.0,0.0,0.0,0.0,0.0,0.0,0.0,0.0,0.0,0.0,0.0,0.0,0.0,0.0,0.0,0.0,0.0,0.0,0.0,0.0,0.0,0.0,0.0,0.0,0.0,0.0,0.0,0.0,0.0,0.0,0.0,0.0,0.0,0.0,0.0,0.0,0.0,0.0,0.0,0.0,0.0,0.0,0.0,0.0,0.0,0.0,0.0,0.0,0.0,0.0,0.4519,0.0,0.0,0.0,0.0,0.0,0.0,0.0,0.0,0.0,0.0,0.0,0.0,0.0,0.0,0.0,0.0,0.0,0.0,0.0,0.0,0.0,0.0,0.0,0.0,0.0,0.0,0.0,0.0,0.0,0.0,0.0,0.0,0.0,0.0,0.0,0.0,0.0,0.0,0.0,0.0,0.0,0.0,0.0,0.0,0.0,0.0,0.0,0.0,0.0,0.0,0.0,0.0,0.0,0.0,0.0,0.0,0.0,0.0,0.0,0.0,0.0,0.0,0.0,0.0,0.0,0.0,0.0,0.0,0.0,0.0,0.0,0.0,0.0,0.0,0.0,0.0,0.0,0.0,0.0,0.0,0.0,0.0,0.0,0.0,0.0,0.0,0.0,0.0,0.0,0.0,0.0,0.0,0.0,0.0,0.0,0.0,0.0,0.0,0.0,0.0,0.0,0.0,0.0,0.0,0.0,0.0,0.0,0.0,0.0,0.0,0.6276,0.6003,0.5448,0.5016,0.4589,0.0,0.0,0.0,0.0,0.0,0.0,0.0,0.0,0.0,0.0,0.0,0.0,0.0,0.0,0.0,0.0,0.0,0.0,0.0,0.0,0.0,0.0,0.0,0.0,0.0,0.0,0.0,0.0,0.0,0.0,0.0,0.0,0.0,0.0,0.0,0.0,0.0,0.0,0.0,0.0,0.0,0.0,0.0,0.0,0.0,0.0,0.0,0.0,0.0,0.0,0.0,0.0,0.0,0.0,0.0,0.0,0.0,0.0,0.0,0.0,0.0,0.0,0.0,0.0,0.0,0.0,0.0,0.0,0.0,0.0,0.0,0.0,0.0,0.0,0.0,0.0,0.0,0.0,0.0,0.0,0.0,0.0,0.0,0.0,0.0,0.0,0.0,0.0,0.0,0.0,0.0,0.0,0.0,0.0,0.0,0.0,0.0,0.0,0.0,0.0,0.0,0.0,0.0,0.0,0.0,0.0,0.0,0.0,0.0,0.0,0.0,0.0,0.5662,0.5104,0.4513,0.0,0.0,0.0,0.0,0.0,0.0,0.0,0.0,0.0,0.0,0.0,0.0,0.0,0.0,0.0,0.0,0.0,0.0,0.0,0.0,0.0,0.0,0.0,0.0,0.0,0.0,0.0,0.0,0.0,0.0,0.0,0.0,0.0,0.0,0.0,0.0,0.0,0.0,0.0,0.0,0.0,0.0,0.0,0.0,0.0,0.0,0.0,0.0,0.0,0.0,0.0,0.0,0.0,0.0,0.0,0.0,0.0,0.0,0.0,0.0,0.0,0.0,0.0,0.0,0.0,0.0,0.0,0.0,0.0,0.0,0.0,0.0,0.0,0.0,0.0,0.0,0.0,0.0,0.0,0.0,0.0,0.0,0.0,0.0,0.0,0.0,0.0,0.0,0.0,0.0,0.0,0.0,0.0,0.0,0.0,0.0,0.0,0.0,0.0,0.0,0.0,0.0,0.0,0.0,0.0,0.0,0.0,0.0,0.0,0.0,0.6831,0.6182,0.5663,0.0,0.4047,0.0,0.0,0.0,0.0,0.0,0.0,0.0,0.0,0.0,0.0,0.0,0.0,0.0,0.0,0.0,0.0,0.0,0.0,0.0,0.0,0.0,0.0,0.0,0.0,0.0,0.0,0.0,0.0,0.0,0.0,0.0,0.0,0.0,0.0,0.0,0.0,0.0,0.0,0.0,0.0,0.0,0.0,0.0,0.0,0.0,0.0,0.0,0.0,0.0,0.0,0.0,0.0,0.0,0.0,0.0,0.0,0.0,0.0,0.0,0.0,0.0,0.0,0.0,0.0,0.0,0.0,0.0,0.0,0.0,0.0,0.0,0.0,0.0,0.0,0.0,0.0,0.0,0.0,0.0,0.0,0.0,0.0,0.0,0.0,0.0,0.0,0.0,0.0,0.0,0.0,0.0,0.0,0.0,0.0,0.0,0.0,0.0,0.0,0.0,0.0,0.0,0.0,0.0,0.0,0.0,0.0,0.0,0.0,0.0,0.0,0.7076,0.6371,0.5627,0.4829,0.0,0.0,0.0,0.0,0.0,0.0,0.0,0.0,0.0,0.0,0.0,0.0,0.0,0.0,0.0,0.0,0.0,0.0,0.0,0.0,0.0,0.0,0.0,0.0,0.0,0.0,0.0,0.0,0.0,0.0,0.0,0.0,0.0,0.0,0.0,0.0,0.0,0.0,0.0,0.0,0.0,0.0,0.0,0.0,0.0,0.0,0.0,0.0,0.0,0.0,0.0,0.0,0.0,0.0,0.0,0.0,0.0,0.0,0.0,0.0,0.0,0.0,0.0,0.0,0.0,0.0,0.0,0.0,0.0,0.0,0.0,0.0,0.0,0.0,0.0,0.0,0.0,0.0,0.0,0.0,0.0,0.0,0.0,0.0,0.0,0.0,0.0,0.0,0.0,0.0,0.0,0.0,0.0,0.0,0.0,0.0,0.0,0.0,0.0,0.0,0.0,0.0,0.0,0.0,0.0,0.0,0.0,0.0,0.0,0.0,0.7526,0.7134,0.628,0.5513,0.4662,0.3889,0.0,0.0,0.0,0.0,0.0,0.0,0.0,0.0,0.0,0.0,0.0,0.0,0.0,0.0,0.0,0.0,0.0,0.0,0.0,0.0,0.0,0.0,0.0,0.0,0.0,0.0,0.0,0.0,0.0,0.0,0.0,0.0,0.0,0.0,0.0,0.0,0.0,0.0,0.0,0.0,0.0,0.0,0.0,0.0,0.0,0.0,0.0,0.0,0.0,0.0,0.0,0.0,0.0,0.0,0.0,0.0,0.0,0.0,0.0,0.0,0.0,0.0,0.0,0.0,0.0,0.0,0.0,0.0,0.0,0.0,0.0,0.0,0.0,0.0,0.0,0.0,0.0,0.0,0.0,0.0,0.0,0.0,0.0,0.0,0.0,0.0,0.0,0.0,0.0,0.0,0.0,0.0,0.0,0.0,0.0,0.0,0.0,0.0,0.0,0.0,0.0,0.0,0.0,0.0,0.0,0.0,0.0,0.0,0.7731,0.7666,0.7138,0.5958,0.5223,0.4556,0.0,0.0,0.0,0.0,0.0,0.0,0.0,0.0,0.0,0.0,0.0,0.0,0.0,0.0,0.0,0.0,0.0,0.0,0.0,0.0,0.0,0.0,0.0,0.0,0.0,0.0,0.0,0.0,0.0,0.0,0.0,0.0,0.0,0.0,0.0,0.0,0.0,0.0,0.0,0.0,0.0,0.0,0.0,0.0,0.0,0.0,0.0,0.0,0.0,0.0,0.0,0.0,0.0,0.0,0.0,0.0,0.0,0.0,0.0,0.0,0.0,0.0,0.0,0.0,0.0,0.0,0.0,0.0,0.0,0.0,0.0,0.0,0.0,0.0,0.0,0.0,0.0,0.0,0.0,0.0,0.0,0.0,0.0,0.0,0.0,0.0,0.0,0.0,0.0,0.0,0.0,0.0,0.0,0.0,0.0,0.0,0.0,0.0,0.0,0.0,0.0,0.0,0.0,0.0,0.0,0.0,0.0,0.0,0.0,0.8236,0.7661,0.6872,0.5752,0.5359,0.4761,0.0,0.0,0.0,0.0,0.0,0.0,0.0,0.0,0.0,0.0,0.0,0.0,0.0,0.0,0.0,0.0,0.0,0.0,0.0,0.0,0.0,0.0,0.0,0.0,0.0,0.0,0.0,0.0,0.0,0.0,0.0,0.0,0.0,0.0,0.0,0.0,0.0,0.0,0.0,0.0,0.0,0.0,0.0,0.0,0.0,0.0,0.0,0.0,0.0,0.0,0.0,0.0,0.0,0.0,0.0,0.0,0.0,0.0,0.0,0.0,0.0,0.0,0.0,0.0,0.0,0.0,0.0,0.0,0.0,0.0,0.0,0.0,0.0,0.0,0.0,0.0,0.0,0.0,0.0,0.0,0.0,0.0,0.0,0.0,0.0,0.0,0.0,0.0,0.0,0.0,0.0,0.0,0.0,0.0,0.0,0.0,0.0,0.0,0.0,0.0,0.0,0.0,0.0,0.0,0.0,0.0,0.0,0.0,0.0,0.8415,0.0,0.6872,0.5885,0.562,0.4957,0.0,0.0,0.0,0.0,0.0,0.0,0.0,0.0,0.0,0.0,0.0,0.0,0.0,0.0,0.0,0.0,0.0,0.0,0.0,0.0,0.0,0.0,0.0,0.0,0.0,0.0,0.0,0.0,0.0,0.0,0.0,0.0,0.0,0.0,0.0,0.0,0.0,0.0,0.0,0.0,0.0,0.0,0.0,0.0,0.0,0.0,0.0,0.0,0.0,0.0,0.0,0.0,0.0,0.0,0.0,0.0,0.0,0.0,0.0,0.0,0.0,0.0,0.0,0.0,0.0,0.0,0.0,0.0,0.0,0.0,0.0,0.0,0.0,0.0,0.0,0.0,0.0,0.0,0.0,0.0,0.0,0.0,0.0,0.0,0.0,0.0,0.0,0.0,0.0,0.0,0.0,0.0,0.0,0.0,0.0,0.0,0.0,0.0,0.0,0.0,0.0,0.0,0.0,0.0,0.0,0.0,0.0,0.0,0.8776,0.821,0.7712,0.7134,0.642,0.5885,0.5153,0.0,0.0,0.0,0.0,0.0,0.0,0.0,0.0,0.0,0.0,0.0,0.0,0.0,0.0,0.0,0.0,0.0,0.0,0.0,0.0,0.0,0.0,0.0,0.0,0.0,0.0,0.0,0.0,0.0,0.0,0.0,0.0,0.0,0.0,0.0,0.0,0.0,0.0,0.0,0.0,0.0,0.0,0.0,0.0,0.0,0.0,0.0,0.0,0.0,0.0,0.0,0.0,0.0,0.0,0.0,0.0,0.0,0.0,0.0,0.0,0.0,0.0,0.0,0.0,0.0,0.0,0.0,0.0,0.0,0.0,0.0,0.0,0.0,0.0,0.0,0.0,0.0,0.0,0.0,0.0,0.0,0.0,0.0,0.0,0.0,0.0,0.0,0.0,0.0,0.0,0.0,0.0,0.0,0.0,0.0,0.0,0.0,0.0,0.0,0.0,0.0,0.0,0.0,0.0,0.0,0.0,0.0,0.0,0.0,0.8247,0.7717,0.7129,0.628,0.5756,0.509,0.0,0.0,0.0,0.0,0.0,0.0,0.0,0.0,0.0,0.0,0.0,0.0,0.0,0.0,0.0,0.0,0.0,0.0,0.0,0.0,0.0,0.0,0.0,0.0,0.0,0.0,0.0,0.0,0.0,0.0,0.0,0.0,0.0,0.0,0.0,0.0,0.0,0.0,0.0,0.0,0.0,0.0,0.0,0.0,0.0,0.0,0.0,0.0,0.0,0.0,0.0,0.0,0.0,0.0,0.0,0.0,0.0,0.0,0.0,0.0,0.0,0.0,0.0,0.0,0.0,0.0,0.0,0.0,0.0,0.0,0.0,0.0,0.0,0.0,0.0,0.0,0.0,0.0,0.0,0.0,0.0,0.0,0.0,0.0,0.0,0.0,0.0,0.0,0.0,0.0,0.0,0.0,0.0,0.0,0.0,0.0,0.0,0.0,0.0,0.0,0.0,0.0,0.0,0.0,0.0,0.0,0.0,0.0,0.0,0.8454,0.7976,0.7338,0.6474,0.5885,0.5156,0.4287,0.0,0.0,0.0,0.0,0.0,0.0,0.0,0.0,0.0,0.0,0.0,0.0,0.0,0.0,0.0,0.0,0.0,0.0,0.0,0.0,0.0,0.0,0.0,0.0,0.0,0.0,0.0,0.0,0.0,0.0,0.0,0.0,0.0,0.0,0.0,0.0,0.0,0.0,0.0,0.0,0.0,0.0,0.0,0.0,0.0,0.0,0.0,0.0,0.0,0.0,0.0,0.0,0.0,0.0,0.0,0.0,0.0,0.0,0.0,0.0,0.0,0.0,0.0,0.0,0.0,0.0,0.0,0.0,0.0,0.0,0.0,0.0,0.0,0.0,0.0,0.0,0.0,0.0,0.0,0.0,0.0,0.0,0.0,0.0,0.0,0.0,0.0,0.0,0.0,0.0,0.0,0.0,0.0,0.0,0.0,0.0,0.0,0.0,0.0,0.0,0.0,0.0,0.0,0.0,0.0,0.0,0.0,0.0,0.8872,0.8351,0.7702,0.6885,0.6222,0.5422,0.0,0.0,0.0,0.0,0.0,0.0,0.0,0.0,0.0,0.0,0.0,0.0,0.0,0.0,0.0,0.0,0.0,0.0,0.0,0.0,0.0,0.0,0.0,0.0,0.0,0.0,0.0,0.0,0.0,0.0,0.0,0.0,0.0,0.0,0.0,0.0,0.0,0.0,0.0,0.0,0.0,0.0,0.0,0.0,0.0,0.0,0.0,0.0,0.0,0.0,0.0,0.0,0.0,0.0,0.0,0.0,0.0,0.0,0.0,0.0,0.0,0.0,0.0,0.0,0.0,0.0,0.0,0.0,0.0,0.0,0.0,0.0,0.0,0.0,0.0,0.0,0.0,0.0,0.0,0.0,0.0,0.0,0.0,0.0,0.0,0.0,0.0,0.0,0.0,0.0,0.0,0.0,0.0,0.0,0.0,0.0,0.0,0.0,0.0,0.0,0.0,0.0,0.0,0.0,0.0,0.0,0.0,0.0,0.0,0.9247,0.8497,0.7703,0.6751,0.6219,0.5488,0.0,0.0,0.0,0.0,0.0,0.0,0.0,0.0,0.0,0.0,0.0,0.0,0.0,0.0,0.0,0.0,0.0,0.0,0.0,0.0,0.0,0.0,0.0,0.0,0.0,0.0,0.0,0.0,0.0,0.0,0.0,0.0,0.0,0.0,0.0,0.0,0.0,0.0,0.0,0.0,0.0,0.0,0.0,0.0,0.0,0.0,0.0,0.0,0.0,0.0,0.0,0.0,0.0,0.0,0.0,0.0,0.0,0.0,0.0,0.0,0.0,0.0,0.0,0.0,0.0,0.0,0.0,0.0,0.0,0.0,0.0,0.0,0.0,0.0,0.0,0.0,0.0,0.0,0.0,0.0,0.0,0.0,0.0,0.0,0.0,0.0,0.0,0.0,0.0,0.0,0.0,0.0,0.0,0.0,0.0,0.0,0.0,0.0,0.0,0.0,0.0,0.0,0.0,0.0,0.0,0.0,0.0,0.0,0.9913,0.9066,0.8398,0.7693,0.6832,0.6249,0.5454,0.0,0.0,0.0,0.0,0.0,0.0,0.0,0.0,0.0,0.0,0.0,0.0,0.0,0.0,0.0,0.0,0.0,0.0,0.0,0.0,0.0,0.0,0.0,0.0,0.0,0.0,0.0,0.0,0.0,0.0,0.0,0.0,0.0,0.0,0.0,0.0,0.0,0.0,0.0,0.0,0.0,0.0,0.0,0.0,0.0,0.0,0.0,0.0,0.0,0.0,0.0,0.0,0.0,0.0,0.0,0.0,0.0,0.0,0.0,0.0,0.0,0.0,0.0,0.0,0.0,0.0,0.0,0.0,0.0,0.0,0.0,0.0,0.0,0.0,0.0,0.0,0.0,0.0,0.0,0.0,0.0,0.0,0.0,0.0,0.0,0.0,0.0,0.0,0.0,0.0,0.0,0.0,0.0,0.0,0.0,0.0,0.0,0.0,0.0,0.0,0.0,0.0,0.0,0.0,0.0,0.0,0.0,0.0,0.993,0.8646,0.8286,0.7686,0.6908,0.6235,0.5382,0.0,0.0,0.0,0.0,0.0,0.0,0.0,0.0,0.0,0.0,0.0,0.0,0.0,0.0,0.0,0.0,0.0,0.0,0.0,0.0,0.0,0.0,0.0,0.0,0.0,0.0,0.0,0.0,0.0,0.0,0.0,0.0,0.0,0.0,0.0,0.0,0.0,0.0,0.0,0.0,0.0,0.0,0.0,0.0,0.0,0.0,0.0,0.0,0.0,0.0,0.0,0.0,0.0,0.0,0.0,0.0,0.0,0.0,0.0,0.0,0.0,0.0,0.0,0.0,0.0,0.0,0.0,0.0,0.0,0.0,0.0,0.0,0.0,0.0,0.0,0.0,0.0,0.0,0.0,0.0,0.0,0.0,0.0,0.0,0.0,0.0,0.0,0.0,0.0,0.0,0.0,0.0,0.0,0.0,0.0,0.0,0.0,0.0,0.0,0.0,0.0,0.0,0.0,0.0,0.0,0.0,0.0,0.0,0.9789,0.8703,0.8263,0.7664,0.67,0.6302,0.563,0.0,0.0,0.0,0.0,0.0,0.0,0.0,0.0,0.0,0.0,0.0,0.0,0.0,0.0,0.0,0.0,0.0,0.0,0.0,0.0,0.0,0.0,0.0,0.0,0.0,0.0,0.0,0.0,0.0,0.0,0.0,0.0,0.0,0.0,0.0,0.0,0.0,0.0,0.0,0.0,0.0,0.0,0.0,0.0,0.0,0.0,0.0,0.0,0.2928,0.0,0.0,0.0,0.0,0.0,0.0,0.0,0.0,0.0,0.0,0.0,0.0,0.0,0.0,0.0,0.0,0.0,0.0,0.0,0.0,0.0,0.0,0.0,0.0,0.0,0.0,0.0,0.0,0.0,0.0,0.0,0.0,0.0,0.0,0.0,0.0,0.0,0.0,0.0,0.0,0.0,0.0,0.0,0.0,0.0,0.0,0.0,0.0,0.0,0.0,0.0,0.0,0.0,0.0,0.0,0.0,0.0,0.0,0.0,0.9414,0.8322,0.7944,0.7439,0.6662,0.6131,0.5463,0.0,0.0,0.0,0.0,0.0,0.0,0.0,0.0,0.0,0.0,0.0,0.0,0.0,0.0,0.0,0.0,0.0,0.0,0.0,0.0,0.0,0.0,0.0,0.0,0.0,0.0,0.0,0.0,0.0,0.0,0.0,0.0,0.0,0.0,0.0,0.0,0.0,0.0,0.0,0.0,0.0,0.0,0.0,0.0,0.0,0.0,0.0,0.0,0.0,0.0,0.0,0.0,0.0,0.0,0.0,0.0,0.0,0.0,0.0,0.0,0.0,0.0,0.0,0.0,0.0,0.0,0.0,0.0,0.0,0.0,0.0,0.0,0.0,0.0,0.0,0.0,0.0,0.0,0.0,0.0,0.0,0.0,0.0,0.0,0.0,0.0,0.0,0.0,0.0,0.0,0.0,0.0,0.0,0.0,0.0,0.0,0.0,0.0,0.0,0.0,0.0,0.0,0.0,0.0,0.0,0.0,0.0,0.9595,0.8941,0.7799,0.7561,0.7176,0.6563,0.5881,0.5214,0.4475,0.0,0.0,0.0,0.0,0.0,0.0,0.0,0.0,0.0,0.0,0.0,0.0,0.0,0.0,0.0,0.0,0.0,0.0,0.0,0.0,0.0,0.0,0.0,0.0,0.0,0.0,0.0,0.0,0.0,0.0,0.0,0.0,0.0,0.0,0.0,0.0,0.0,0.0,0.4683,0.4499,0.0,0.0,0.0,0.0,0.0,0.0,0.0,0.0,0.2596,0.0,0.0,0.0,0.0,0.0,0.0,0.0,0.0,0.0,0.0,0.0,0.0,0.0,0.0,0.0,0.0,0.0,0.0,0.0,0.0,0.0,0.0,0.0,0.0,0.0,0.0,0.0,0.0,0.0,0.0,0.0,0.0,0.0,0.0,0.0,0.0,0.0,0.0,0.0,0.0,0.0,0.0,0.0,0.0,0.0,0.0,0.0,0.0,0.0,0.0,0.0,0.0,0.0,0.0,0.0,0.0,0.9863,0.9367,0.8623,0.7561,0.7557,0.7103,0.6412,0.5809,0.5182,0.4426,0.0,0.0,0.0,0.0,0.0,0.0,0.0,0.0,0.0,0.0,0.0,0.0,0.0,0.0,0.0,0.0,0.0,0.0,0.0,0.0,0.0,0.0,0.0,0.0,0.0,0.0,0.0,0.0,0.0,0.0,0.0,0.0,0.0,0.0,0.0,0.0,0.0,0.0,0.0,0.4168,0.3875,0.0,0.0,0.0,0.0,0.0,0.0,0.0,0.0,0.2194,0.0,0.0,0.0,0.0,0.0,0.0,0.0,0.0,0.0,0.0,0.0,0.0,0.0,0.0,0.0,0.0,0.0,0.0,0.0,0.0,0.0,0.0,0.0,0.0,0.0,0.0,0.0,0.0,0.0,0.0,0.0,0.0,0.0,0.0,0.0,0.0,0.0,0.0,0.0,0.0,0.0,0.0,0.0,0.0,0.0,0.0,0.0,0.0,0.0,0.0,0.0,0.0,0.0,0.0,0.0,0.9458,0.877,0.8012,0.7249,0.6945,0.6644,0.6099,0.534,0.464,0.0,0.0,0.0,0.0,0.0,0.0,0.0,0.0,0.0,0.0,0.0,0.0,0.0,0.0,0.0,0.0,0.0,0.0,0.0,0.0,0.0,0.0,0.0,0.0,0.0,0.0,0.0,0.0,0.0,0.0,0.0,0.0,0.0,0.0,0.0,0.0,0.0,0.0,0.0,0.0,0.4689,0.4358,0.3982,0.0,0.0,0.0,0.0,0.0,0.0,0.2231,0.2118,0.0,0.0,0.0,0.0,0.0,0.0,0.0,0.0,0.0,0.0,0.0,0.0,0.0,0.0,0.0,0.0,0.0,0.0,0.0,0.0,0.0,0.0,0.0,0.0,0.0,0.0,0.0,0.0,0.0,0.0,0.0,0.0,0.0,0.0,0.0,0.0,0.0,0.0,0.0,0.0,0.0,0.0,0.0,0.0,0.0,0.0,0.0,0.0,0.0,0.0,0.0,0.0,0.0,0.0,0.0,0.8851,0.8008,0.7399,0.6865,0.6486,0.6103,0.5786,0.4929,0.4148,0.0,0.0,0.0,0.0,0.0,0.0,0.0,0.0,0.0,0.0,0.0,0.0,0.0,0.0,0.0,0.0,0.0,0.0,0.0,0.0,0.0,0.0,0.0,0.0,0.0,0.0,0.0,0.0,0.0,0.0,0.0,0.0,0.0,0.0,0.0,0.0,0.0,0.0,0.0,0.0,0.0,0.4866,0.4454,0.408,0.0,0.0,0.0,0.0,0.2289,0.2158,0.0,0.0,0.0,0.0,0.0,0.0,0.0,0.0,0.0,0.0,0.0,0.0,0.0,0.0,0.0,0.0,0.0,0.0,0.0,0.0,0.0,0.0,0.0,0.0,0.0,0.0,0.0,0.0,0.0,0.0,0.0,0.0,0.0,0.0,0.0,0.0,0.0,0.0,0.0,0.0,0.0,0.0,0.0,0.0,0.0,0.0,0.0,0.0,0.0,0.0,0.0,0.0,0.0,0.0,0.0,0.0,0.8479,0.7476,0.6865,0.6641,0.6412,0.6025,0.5398,0.4932,0.4229,0.0,0.0,0.0,0.0,0.0,0.0,0.0,0.0,0.0,0.0,0.0,0.0,0.0,0.0,0.0,0.0,0.0,0.0,0.0,0.0,0.0,0.0,0.0,0.0,0.0,0.0,0.0,0.0,0.0,0.0,0.0,0.0,0.0,0.0,0.0,0.0,0.0,0.0,0.0,0.0,0.0,0.4839,0.4567,0.4077,0.3551,0.0,0.0,0.254,0.217,0.1859,0.0,0.0,0.0,0.0,0.0,0.0,0.0,0.0,0.0,0.0,0.0,0.0,0.0,0.0,0.0,0.0,0.0,0.0,0.0,0.0,0.0,0.0,0.0,0.0,0.0,0.0,0.0,0.0,0.0,0.0,0.0,0.0,0.0,0.0,0.0,0.0,0.0,0.0,0.0,0.0,0.0,0.0,0.0,0.0,0.0,0.0,0.0,0.0,0.0,0.0,0.0,0.0,0.0,0.0,0.0,0.8305,0.801,0.7202,0.656,0.6251,0.6025,0.5634,0.516,0.4623,0.3919,0.0,0.0,0.0,0.0,0.0,0.0,0.0,0.0,0.0,0.0,0.0,0.0,0.0,0.0,0.0,0.0,0.0,0.0,0.0,0.0,0.0,0.0,0.0,0.0,0.0,0.0,0.0,0.0,0.0,0.0,0.0,0.0,0.0,0.0,0.0,0.0,0.0,0.0,0.0,0.0,0.0,0.0,0.4868,0.435,0.0,0.0,0.0,0.2532,0.2188,0.0,0.0,0.0,0.0,0.0,0.0,0.0,0.0,0.0,0.0,0.0,0.0,0.0,0.0,0.0,0.0,0.0,0.0,0.0,0.0,0.0,0.0,0.0,0.0,0.0,0.0,0.0,0.0,0.0,0.0,0.0,0.0,0.0,0.0,0.0,0.0,0.0,0.0,0.0,0.0,0.0,0.0,0.0,0.0,0.0,0.0,0.0,0.0,0.0,0.0,0.0,0.0,0.0,0.0,0.0,0.0,0.0,0.766,0.6859,0.6251,0.5938,0.5631,0.5323,0.4927,0.4465,0.0,0.0,0.0,0.0,0.0,0.0,0.0,0.0,0.0,0.0,0.0,0.0,0.0,0.0,0.0,0.0,0.0,0.0,0.0,0.0,0.0,0.0,0.0,0.0,0.0,0.0,0.0,0.0083,0.0,0.0,0.0,0.0,0.0,0.0,0.0,0.0,0.0,0.0,0.0,0.0,0.0,0.0,0.552,0.4998,0.461,0.4186,0.0,0.0,0.276,0.2278,0.2145,0.1858,0.0,0.0,0.0,0.0,0.0,0.0,0.0,0.0,0.0,0.0,0.0,0.0,0.0,0.0,0.0,0.0,0.0,0.0,0.0,0.0,0.0,0.0,0.0,0.0,0.0,0.0,0.0,0.0,0.0,0.0,0.0,0.0,0.0,0.0,0.0,0.0,0.0,0.0,0.0,0.0,0.0,0.0,0.0,0.0,0.0,0.0,0.0,0.0,0.0,0.0,0.0,0.0,0.0,0.0,0.7438,0.7228,0.6405,0.5941,0.586,0.5553,0.5087,0.4698,0.4465,0.3997,0.0,0.0,0.0,0.0,0.0,0.0,0.0,0.0,0.0,0.0,0.0,0.0,0.0,0.0,0.0,0.0,0.0,0.0,0.0,0.0,0.0,0.0,0.0,0.0,0.0,0.0,0.0,0.0,0.0,0.0,0.0,0.0,0.0,0.0,0.0,0.0,0.0,0.0,0.0,0.0,0.0,0.5542,0.509,0.4561,0.4208,0.0,0.3431,0.3017,0.27,0.2311,0.1949,0.1625,0.0,0.0,0.0,0.0,0.0,0.0,0.0,0.0,0.0,0.0,0.0,0.0,0.0,0.0,0.0,0.0,0.0,0.0,0.0,0.0,0.0,0.0,0.0,0.0,0.0,0.0,0.0,0.0,0.0,0.0,0.0,0.0,0.0,0.0,0.0,0.0,0.0,0.0,0.0,0.0,0.0,0.0,0.0,0.0,0.0,0.0,0.0,0.0,0.0,0.0,0.0,0.0,0.0,0.7194,0.6989,0.628,0.5864,0.5712,0.5476,0.501,0.4543,0.4462,0.3917,0.0,0.0,0.0,0.0,0.0,0.0,0.0,0.0,0.0,0.0,0.0,0.0,0.0,0.0,0.0,0.0,0.0,0.0,0.0,0.0,0.0,0.0,0.0,0.0,0.0,0.0,0.0,0.0,0.0714,0.1163,0.1596,0.0,0.0,0.0,0.0,0.0,0.0,0.0,0.0,0.0,0.0,0.5549,0.5099,0.4746,0.0,0.0,0.3383,0.2989,0.267,0.2301,0.194,0.1665,0.1578,0.0,0.0,0.0,0.0,0.0,0.0,0.0,0.0,0.0,0.0,0.0,0.0,0.0,0.0,0.0,0.0,0.0,0.0,0.0,0.0,0.0,0.0,0.0,0.0,0.0,0.0,0.0,0.0,0.0,0.0,0.0,0.0,0.0,0.0,0.0,0.0,0.0,0.0,0.0,0.0,0.0,0.0,0.0,0.0,0.0,0.0,0.0,0.0,0.0,0.0,0.0,0.0,0.6801,0.6734,0.6095,0.5631,0.5556,0.5243,0.4851,0.4384,0.4307,0.3919,0.0,0.0,0.0,0.0,0.0,0.0,0.0,0.0,0.0,0.0,0.0,0.0,0.0,0.0,0.0,0.0,0.0,0.0,0.0,0.0,0.0,0.0,0.0,0.0,0.0,0.0,0.0,0.0,0.0448,0.0897,0.1525,0.0,0.0,0.0,0.0,0.0,0.0,0.0,0.0,0.0,0.0,0.5549,0.5099,0.4837,0.4482,0.3855,0.3585,0.3293,0.2964,0.2608,0.2249,0.2126,0.0,0.0,0.0,0.0,0.0,0.0,0.0,0.0,0.0,0.0,0.0,0.0,0.0,0.0,0.0,0.0,0.0,0.0,0.0,0.0,0.0,0.0,0.0,0.0,0.0,0.0,0.0,0.0,0.0,0.0,0.154,0.0,0.0,0.0,0.0,0.0,0.0,0.0,0.0,0.0,0.0,0.0,0.0,0.0,0.0,0.0,0.0,0.0,0.0,0.0,0.0,0.0,0.0,0.6301,0.6309,0.5642,0.5321,0.5323,0.4932,0.4621,0.4384,0.4233,0.3999,0.3763,0.0,0.0,0.0,0.0,0.0,0.0,0.0,0.0,0.0,0.0,0.0,0.0,0.0,0.0,0.0,0.0,0.0,0.0,0.0,0.0,0.0,0.0,0.0,0.0,0.0,0.0,0.0,0.0269,0.0628,0.0,0.0,0.0,0.0,0.0,0.0,0.0,0.0,0.0,0.0,0.5544,0.5542,0.5097,0.4837,0.4569,0.4297,0.4034,0.3831,0.3838,0.3217,0.2867,0.0,0.0,0.0,0.0,0.0,0.0,0.0,0.0,0.0,0.0,0.0,0.0,0.0,0.0,0.0,0.0,0.0,0.0,0.0,0.0,0.0,0.0,0.0,0.0,0.0,0.0,0.0,-0.066,-0.013,0.0,0.0,0.0,0.0,0.0,0.0,0.0,0.0,0.0,0.0,0.0,0.4095,0.4452,0.0,0.0,0.0,0.0,0.0,0.0,0.0,0.0,0.0,0.0,0.0,0.0,0.6301,0.6244,0.5645,0.5323,0.5323,0.5015,0.4781,0.4621,0.4387,0.4073,0.3604,0.0,0.0,0.0,0.0,0.0,0.0,0.0,0.0,0.0,0.0,0.0,0.0,0.0,0.0,0.0,0.0,0.0,0.0,0.0,0.0,0.0,0.0,0.0,0.0,0.0,-0.0269,0.0,0.0,0.0,0.0,0.0,0.0,0.0,0.0,0.0,0.0,0.0,0.5104,0.5371,0.5277,0.5277,0.528,0.5013,0.4743,0.0,0.0,0.0,0.0,0.0,0.0,0.0,0.0,0.0,0.0,0.0,0.0,0.0,0.0,0.2613,0.1995,0.193,0.2113,0.2357,0.0,0.0,0.0,0.0,0.0,0.0,0.0,0.0,0.0,0.0,0.0,0.0,0.0,0.0,-0.0477,0.0,0.0585,0.0,0.0,0.0,0.0,0.0,0.0,0.0,0.0,0.3961,0.403,0.4028,0.4425,0.4625,0.0,0.503,0.5359,0.0,0.0,0.0,0.0,0.0,0.0,0.0,0.0,0.6115,0.6179,0.5518,0.5168,0.5168,0.5012,0.4859,0.4701,0.4465,0.4075,0.3604,0.3215,0.2901,0.0,0.0,0.0,0.0,0.0,0.0,0.0,0.0,0.0,0.0,0.0,0.0,0.0,0.0,0.0,0.0,0.0,0.0,0.0,0.0,0.0,0.0,0.0,0.0,0.0,0.0,0.0,0.0,0.0,0.0,0.0,0.0,0.0,0.4197,0.459,0.4889,0.5102,0.5099,0.5114,0.5243,0.0,0.0,0.0,0.0,0.0,0.0,0.0,0.3646,0.3559,0.3285,0.2974,0.302,0.3214,0.3214,0.2999,0.0,0.0,0.2233,0.2078,0.2166,0.2329,0.2208,0.2082,0.2349,0.2171,0.189,0.0,0.0,0.0,0.0,0.0,0.0,0.0,0.0,-0.0852,-0.028,0.0,0.0815,0.0,0.0,0.0,0.0,0.0,0.3224,0.0,0.0,0.3894,0.403,0.4028,0.4425,0.4694,0.4761,0.4827,0.4891,0.5156,0.5624,0.0,0.0,0.0,0.0,0.0,0.0,0.5805,0.5949,0.5337,0.5018,0.5018,0.4781,0.4701,0.4701,0.4311,0.3999,0.3841,0.3604,0.3214,0.2588,0.2507,0.0,0.0,0.0,0.0,0.0,0.0,0.0,0.0,0.0,0.0,0.0,0.0,0.0,0.0,0.0,0.0,0.0,0.0,0.0,0.0,0.0448,0.0,0.0,0.0,0.0,0.0,0.0,0.0,0.0,0.0,0.0,0.363,0.4379,0.4819,0.4736,0.0,0.0,0.0,0.0,0.4748,0.4921,0.501,0.501,0.501,0.4568,0.4243,0.4506,0.0,0.0,0.3697,0.385,0.3765,0.336,0.3334,0.3167,0.2679,0.255,0.2515,0.2519,0.2483,0.2578,0.2538,0.2413,0.2231,-0.4136,0.0,0.0,0.0,0.0,-0.2406,-0.1935,-0.1304,-0.0661,-0.0216,0.0216,0.0687,0.0,0.0,0.0,0.0,0.0,0.0,0.3362,0.3563,0.3761,0.3894,0.403,0.4231,0.4498,0.4625,0.4761,0.4827,0.4894,0.5292,0.5512,0.5487,0.0,0.0,0.0,0.0,0.5538,0.551,0.5186,0.5018,0.5018,0.494,0.4859,0.4701,0.4462,0.4231,0.3999,0.3684,0.3446,0.3212,0.2854,0.0,0.0,0.0,0.0,0.0,0.0,0.0,0.0,0.0,0.0,0.0,0.0,0.0,0.0,0.0,0.0,0.0,0.0,0.0,0.0359,0.0718,0.0807,0.0,0.0,0.0,0.0,0.0,0.0,0.0,0.0,0.0,0.3364,0.4078,0.4539,0.0,0.0,0.4848,0.4961,0.4853,0.475,0.4748,0.5104,0.0,0.4837,0.4774,0.4826,0.4662,0.441,0.4203,0.4103,0.4135,0.4137,0.3833,0.3695,0.3491,0.3327,0.295,0.2688,0.2563,0.2475,0.2404,0.254,0.2428,0.2208,-0.3244,-0.3402,-0.3151,-0.2841,-0.2354,-0.2195,-0.1727,-0.1097,-0.0527,0.0,0.0363,0.0837,0.1225,0.1614,0.1884,0.0,0.0,0.0,0.3226,0.3629,0.3758,0.3894,0.4097,0.4298,0.4495,0.4625,0.4691,0.4761,0.4761,0.4897,0.4964,0.503,0.0,0.0,0.5766,0.5444,0.5405,0.5436,0.5132,0.5018,0.5018,0.5018,0.494,0.4781,0.4543,0.4307,0.4233,0.3841,0.3604,0.3526,0.317,0.2858,0.0,0.0,0.0,0.0,0.0,0.0,0.0,0.0,0.0,0.0,0.0,0.1069,0.1009,0.0,0.0,0.0,0.0879,0.1049,0.1049,0.1233,0.0,0.0,0.0,0.0,0.0,0.0,0.0,0.1996,0.2405,0.2898,0.3408,0.3946,0.4389,0.448,0.4656,0.4851,0.489,0.0,0.5018,0.5018,0.5156,0.5217,0.5039,0.4944,0.4787,0.458,0.4563,0.4498,0.4345,0.4309,0.4339,0.4083,0.396,0.3827,0.3628,0.3338,0.3078,0.2795,0.2627,0.2629,0.2657,0.2451,0.2249,-0.2368,-0.2194,-0.2352,-0.2322,-0.2118,-0.196,-0.1491,-0.0784,-0.0229,0.0224,0.0582,0.1134,0.1518,0.1681,0.2018,0.0,0.2686,0.2686,0.3088,0.3758,0.3758,0.3961,0.43,0.4495,0.4625,0.4625,0.4625,0.4691,0.4827,0.4564,0.45,0.4761,0.516,0.5572,0.5969,0.5431,0.5282,0.5538,0.5231,0.5007,0.5015,0.5018,0.5018,0.5018,0.4621,0.4462,0.4384,0.4075,0.3763,0.3526,0.3519,0.3283,0.2895,0.0,0.0,0.0,0.0,0.0,0.0,0.0,0.0,0.0,0.0,0.0,0.0,0.0,0.0,0.1129,0.1448,0.0,0.1934,0.1798,0.0,0.0,0.0,0.1652,0.148,0.1797,0.2129,0.2435,0.0,0.0,0.3483,0.3978,0.4287,0.4289,0.4732,0.4945,0.4771,0.5051,0.5346,0.5333,0.5254,0.5276,0.5357,0.5012,0.4681,0.4506,0.4465,0.4482,0.4426,0.4431,0.4409,0.4251,0.426,0.4144,0.3806,0.3705,0.3623,0.3121,0.3066,0.2981,0.2642,0.2478,0.2388,-0.1585,-0.1543,-0.1197,-0.1263,-0.1492,-0.1492,-0.1021,-0.0392,0.023,0.0523,0.08,0.1347,0.1726,0.1816,0.2221,0.2423,0.249,0.2757,0.3159,0.3563,0.3758,0.3961,0.43,0.4498,0.4625,0.4761,0.4894,0.5024,0.5024,0.5093,0.4964,0.4691,0.5024,0.5129,0.505,0.4908,0.4941,0.5246,0.5098,0.5146,0.524,0.5093,0.5018,0.5018,0.4779,0.4621,0.4621,0.4384,0.4151,0.3997,0.3695,0.3507,0.3431,0.3128,0.0,0.0,0.0,0.0,0.0,0.0,0.0,0.0,0.0,0.2052,0.2269,0.0,0.226,0.0,0.1959,0.185,0.1682,0.1858,0.0,0.0,0.1645,0.1749,0.1956,0.2392,0.2743,0.2756,0.3115,0.3472,0.374,0.3963,0.4195,0.4459,0.472,0.4819,0.4579,0.4758,0.4947,0.5037,0.5101,0.5165,0.5398,0.5205,0.4986,0.4875,0.4883,0.489,0.4838,0.489,0.4768,0.4495,0.4426,0.4331,0.4142,0.4054,0.3968,0.3615,0.329,0.2982,0.2748,0.2646,0.252,-0.0982,-0.0881,-0.0553,-0.055,-0.0629,-0.0786,-0.0471,0.0157,0.0542,0.0905,0.1236,0.1751,0.2115,0.2287,0.2421,0.2555,0.2691,0.2956,0.3291,0.3629,0.3825,0.403,0.4303,0.4431,0.4498,0.4564,0.4758,0.4891,0.496,0.5027,0.5027,0.496,0.4891,0.4861,0.4872,0.4865,0.4922,0.5043,0.5098,0.5188,0.5395,0.5326,0.5249,0.5168,0.4884,0.4701,0.4622,0.4346,0.4171,0.4022,0.3936,0.3834,0.3645,0.372,0.3671,0.0,0.0,0.0,0.0,0.0,0.0,0.0,0.0,0.0,0.0,0.0,0.2818,0.2789,0.2481,0.2285,0.212,0.2224,0.2156,0.1911,0.2032,0.2143,0.2234,0.2687,0.2964,0.2963,0.3312,0.3749,0.3923,0.4138,0.4274,0.4531,0.4749,0.4737,0.469,0.4818,0.5037,0.504,0.5079,0.5186,0.53,0.5394,0.5328,0.5266,0.5171,0.5078,0.5094,0.5007,0.491,0.4577,0.4548,0.4489,0.4318,0.4228,0.413,0.3819,0.3581,0.3266,0.2905,0.2791,0.2669,-0.0482,-0.0236,-0.0236,0.0079,0.0393,0.0079,0.0157,0.0628,0.094,0.1293,0.1809,0.2272,0.2555,0.2686,0.2753,0.2822,0.309,0.3226,0.3491,0.3894,0.3964,0.4164,0.4367,0.4367,0.4367,0.4434,0.4628,0.4761,0.4897,0.4761,0.4894,0.5292,0.496,0.4888,0.516,0.5083,0.5075,0.4991,0.5114,0.5309,0.5579,0.5585,0.5428,0.5266,0.5014,0.4809,0.4579,0.4342,0.4147,0.415,0.4227,0.4151,0.3846,0.4378,0.452,0.0,0.4612,0.0,0.0,0.0,0.0,0.0,0.0,0.0,0.0,0.3227,0.3157,0.3179,0.3033,0.2838,0.2838,0.2737,0.2594,0.2394,0.2638,0.2685,0.2478,0.2844,0.3126,0.3126,0.3455,0.3865,0.404,0.4191,0.443,0.4755,0.4841,0.489,0.4886,0.5064,0.5226,0.5079,0.5157,0.5294,0.537,0.5494,0.5565,0.5562,0.5482,0.5288,0.525,0.5112,0.4969,0.473,0.4722,0.4612,0.4366,0.4277,0.4249,0.3902,0.3888,0.3679,0.3147,0.295,0.2938,0.0,0.0236,0.0393,0.0707,0.11,0.1022,0.0943,0.0863,0.1386,0.1929,0.2329,0.2525,0.2686,0.2686,0.2889,0.3088,0.342,0.3625,0.3894,0.4233,0.4233,0.4364,0.4561,0.4631,0.4827,0.4957,0.516,0.5226,0.5296,0.5226,0.5226,0.5156,0.5286,0.5355,0.5362,0.0,0.0,0.0,0.5418,0.5428,0.5526,0.538,0.5231,0.5231,0.5204,0.0,0.5047,0.5023,0.4939,0.4726,0.4654,0.0,0.0,0.0,0.0,0.0,0.0,0.0,0.0,0.0,0.0,0.0,0.4638,0.4293,0.4046,0.3832,0.3594,0.3255,0.3157,0.3226,0.3226,0.321,0.3275,0.3235,0.3349,0.3384,0.3337,0.3481,0.3628,0.3626,0.3992,0.4195,0.4274,0.4463,0.4819,0.4973,0.5118,0.5294,0.5401,0.5255,0.5165,0.5235,0.5384,0.5514,0.5565,0.564,0.564,0.5562,0.5562,0.5605,0.5633,0.5526,0.535,0.5129,0.5004,0.4884,0.4524,0.4452,0.4342,0.3994,0.4036,0.3966,0.3444,0.334,0.324,0.0635,0.0,0.1022,0.1258,0.0,0.1727,0.1727,0.1724,0.1989,0.2354,0.273,0.2858,0.2956,0.2956,0.3025,0.3157,0.3357,0.3689,0.3894,0.403,0.4233,0.4367,0.4431,0.4628,0.4761,0.4824,0.516,0.5223,0.5223,0.5223,0.5223,0.5223,0.5352,0.5422,0.5488,0.5683,0.5698,0.5721,0.5661,0.5732,0.5871,0.5731,0.5591,0.5516,0.0,0.0,0.0,0.0,0.0,0.0,0.0,0.0,0.0,0.0,0.0,0.5372,0.5648,0.579,0.5777,0.5712,0.5631,0.5479,0.5249,0.488,0.4379,0.4227,0.409,0.3895,0.3736,0.367,0.3792,0.3588,0.346,0.3587,0.3538,0.3478,0.3563,0.3823,0.3976,0.4016,0.4272,0.4458,0.4622,0.4773,0.4944,0.5176,0.5364,0.5482,0.5559,0.5326,0.5246,0.5401,0.5634,0.5792,0.5948,0.5951,0.5951,0.5948,0.587,0.5814,0.5877,0.5704,0.5612,0.5437,0.5245,0.5058,0.485,0.4734,0.457,0.4407,0.4449,0.4394,0.3966,0.3663,0.3446,0.1258,0.1651,0.1651,0.1729,0.1964,0.2118,0.234,0.2553,0.0,0.0,0.0,0.3125,0.3228,0.3228,0.3228,0.3295,0.3426,0.3694,0.3892,0.3959,0.4231,0.4364,0.4367,0.4561,0.4691,0.4691,0.5024,0.5156,0.5156,0.5153,0.5223,0.5359,0.5289,0.5355,0.5617,0.5888,0.5955,0.5874,0.5812,0.5946,0.6139,0.6082,0.5941,0.5792,0.5537,0.5405,0.5401,0.5087,0.5027,0.5156,0.5138,0.5015,0.4913,0.5451,0.5806,0.5837,0.627,0.651,0.636,0.6398,0.618,0.5715,0.5637,0.5323,0.4616,0.4538,0.4577,0.4588,0.4212,0.4097,0.4439,0.3962,0.3725,0.3994,0.3886,0.3727,0.3755,0.4036,0.4304,0.4296,0.4533,0.4776,0.4919,0.4999,0.5237,0.5479,0.564,0.5715,0.5712,0.5553,0.5476,0.5634,0.5867,0.6099,0.6257,0.6335,0.6338,0.6335,0.6177,0.6018,0.5957,0.5877,0.5787,0.5636,0.5403,0.5213,0.5085,0.4922,0.4799,0.472,0.4787,0.4737,0.4532,0.4112,0.3718,0.1651,0.1808,0.1887,0.1963,0.2196,0.2195,0.2451,0.2871,0.3008,0.3059,0.2975,0.3098,0.3295,0.3431,0.3295,0.3563,0.4097,0.403,0.4161,0.0,0.4561,0.4561,0.4561,0.4694,0.4894,0.5024,0.5223,0.5359,0.5359,0.5359,0.5359,0.5428,0.5488,0.5617,0.5888,0.6083,0.616,0.6113,0.5988,0.5796,0.5681,0.5822,0.5822,0.5614,0.5737,0.5789,0.5789,0.5568,0.5484,0.555,0.5379,0.5316,0.5299,0.5533,0.5677,0.5811,0.6179,0.6485,0.6581,0.6561,0.6405,0.6167,0.5938,0.5631,0.5243,0.5004,0.4859,0.4726,0.4574,0.4505,0.4608,0.4612,0.4604,0.4766,0.4798,0.48,0.4777,0.4812,0.4741,0.4639,0.4936,0.5068,0.5069,0.5338,0.5712,0.6025,0.6106,0.6257,0.6331,0.6096,0.586,0.5864,0.6099,0.6335,0.6486,0.6563,0.6563,0.6563,0.6563,0.6409,0.6257,0.6045,0.5911,0.5821,0.5629,0.5357,0.5119,0.5064,0.4969,0.488,0.4867,0.4791,0.4784,0.4553,0.421,0.2119,0.2357,0.2357,0.2434,0.251,0.2668,0.2923,0.3268,0.3443,0.3395,0.31,0.3159,0.3295,0.3498,0.3431,0.3563,0.3832,0.3961,0.4092,0.4159,0.4361,0.4498,0.4625,0.4761,0.4894,0.5087,0.5292,0.5428,0.5428,0.5428,0.5428,0.5428,0.5554,0.5686,0.5888,0.6083,0.6214,0.6214,0.6083,0.6017,0.5947,0.5815,0.5752,0.5752,0.5752,0.5818,0.6086,0.5885,0.5815,0.5951,0.5756,0.5693,0.5693,0.5822,0.6022,0.6257,0.6569,0.6813,0.6916,0.6851,0.671,0.663,0.6479,0.6402,0.617,0.5628,0.5349,0.5258,0.5159,0.5157,0.5358,0.5225,0.5226,0.5272,0.5328,0.5364,0.5275,0.5419,0.5513,0.5392,0.5524,0.5563,0.5433,0.5758,0.6028,0.6261,0.649,0.6641,0.6791,0.6556,0.6402,0.6328,0.6483,0.6637,0.6714,0.6791,0.6791,0.6788,0.6791,0.6637,0.6486,0.6328,0.6251,0.6109,0.5924,0.5759,0.5672,0.5676,0.5586,0.5301,0.5241,0.529,0.5073,0.4823,0.454,0.2588,0.2824,0.2902,0.2902,0.2904,0.3061,0.3326,0.362,0.3681,0.3617,0.3402,0.337,0.3426,0.3565,0.3565,0.3563,0.3629,0.3894,0.3961,0.3961,0.4231,0.4431,0.4628,0.4761,0.496,0.509,0.5292,0.5428,0.5425,0.5425,0.5425,0.5425,0.5554,0.5686,0.5892,0.6017,0.6079,0.6214,0.6148,0.6079,0.6079,0.5815,0.5815,0.5888,0.5818,0.5947,0.6214,0.6086,0.6017,0.6214,0.602,0.5892,0.5892,0.6017,0.6273,0.6615,0.679,0.7064,0.7208,0.7155,0.7099,0.7015,0.7019,0.6945,0.6945,0.6328,0.5908,0.5927,0.5621,0.56,0.5797,0.5736,0.5562,0.5593,0.57,0.5747,0.5651,0.5843,0.6063,0.5999,0.605,0.6012,0.6045,0.6247,0.6493,0.6644,0.6868,0.7096,0.7173,0.7173,0.7096,0.7022,0.6945,0.6945,0.6942,0.7019,0.7019,0.6942,0.6945,0.6868,0.6714,0.6637,0.6641,0.6426,0.6301,0.6214,0.6257,0.6219,0.6066,0.5826,0.5716,0.5658,0.5333,0.508,0.4784,0.3061,0.3061,0.3061,0.3061,0.3139,0.3372,0.3555,0.3626,0.3536,0.3659,0.3837,0.3801,0.3758,0.3758,0.3758,0.3825,0.3961,0.3961,0.4097,0.4231,0.4495,0.4561,0.4625,0.4957,0.5087,0.5153,0.5292,0.5491,0.555,0.555,0.5617,0.555,0.5617,0.5686,0.5888,0.5752,0.5881,0.6214,0.602,0.5818,0.5683,0.5947,0.6083,0.5888,0.6152,0.6354,0.6362,0.6284,0.6148,0.6214,0.602,0.5892,0.5892,0.5892,0.6094,0.6448,0.6611,0.6921,0.7409,0.7618,0.7642,0.7484,0.7265,0.7188,0.7184,0.6949,0.6641,0.6285,0.5895,0.5723,0.583,0.5788,0.5855,0.5963,0.609,0.6123,0.6045,0.6096,0.616,0.6062,0.628,0.6437,0.6475,0.6651,0.6942,0.7334,0.7488,0.7718,0.7795,0.7868,0.7868,0.7795,0.7565,0.7257,0.7257,0.733,0.733,0.718,0.7184,0.7103,0.6942,0.6865,0.6865,0.6729,0.6609,0.6544,0.6468,0.6373,0.626,0.6068,0.6007,0.5864,0.5653,0.5491,0.5246,0.3217,0.337,0.3294,0.3452,0.3686,0.3841,0.3975,0.4236,0.4136,0.4215,0.4375,0.4274,0.4089,0.3894,0.3961,0.3961,0.403,0.4097,0.4167,0.4164,0.4428,0.4625,0.4761,0.4957,0.5223,0.5352,0.5488,0.5624,0.5752,0.5756,0.5756,0.5822,0.5881,0.6013,0.6083,0.6013,0.6017,0.602,0.5954,0.5888,0.5756,0.5815,0.5818,0.5752,0.5885,0.6003,0.6217,0.6207,0.6262,0.6281,0.6273,0.6156,0.6218,0.6218,0.6354,0.67,0.7095,0.7446,0.7642,0.7841,0.7949,0.7872,0.7741,0.7684,0.7585,0.7344,0.7051,0.6891,0.656,0.6433,0.6414,0.6496,0.6579,0.6491,0.6702,0.6763,0.6625,0.6749,0.6788,0.675,0.6791,0.681,0.6832,0.7022,0.7403,0.7795,0.7953,0.803,0.8102,0.8102,0.8102,0.8102,0.7949,0.7872,0.7718,0.7646,0.7642,0.7569,0.7415,0.733,0.7176,0.7103,0.7026,0.6945,0.686,0.6918,0.7015,0.6919,0.6846,0.6513,0.6109,0.5912,0.5805,0.5789,0.5631,0.3528,0.3759,0.3682,0.3841,0.4155,0.4157,0.4311,0.4608,0.4503,0.4608,0.4734,0.4506,0.4357,0.4211,0.4113,0.403,0.403,0.4231,0.4298,0.4228,0.4558,0.4824,0.4964,0.5156,0.5418,0.5617,0.5686,0.5818,0.5954,0.5954,0.5954,0.602,0.6083,0.6148,0.6214,0.6148,0.6083,0.602,0.602,0.5951,0.5892,0.5818,0.5749,0.5749,0.5815,0.5963,0.6268,0.6289,0.6364,0.6468,0.6495,0.6566,0.6499,0.6562,0.6831,0.7126,0.7692,0.7947,0.7877,0.8067,0.8178,0.8115,0.8121,0.8073,0.7884,0.777,0.7628,0.737,0.7293,0.7235,0.6961,0.6973,0.6961,0.6821,0.7035,0.7197,0.6979,0.7174,0.7152,0.716,0.7107,0.7242,0.7285,0.7484,0.7795,0.8102,0.8178,0.8255,0.8255,0.8255,0.8255,0.8255,0.8403,0.8327,0.8178,0.803,0.7953,0.7876,0.7718,0.7642,0.7504,0.7439,0.7362,0.7386,0.7304,0.7236,0.7219,0.7286,0.7274,0.6891,0.6558,0.6136,0.6172,0.6136,0.5944,0.4384,0.4304,0.4155,0.4153,0.4384,0.4233,0.4311,0.4693,0.4439,0.4538,0.4729,0.4446,0.4405,0.4588,0.4414,0.4167,0.4095,0.4425,0.4558,0.4558,0.4891,0.5156,0.5362,0.5484,0.5686,0.5822,0.5888,0.5951,0.6148,0.6148,0.6214,0.6148,0.6086,0.602,0.6148,0.602,0.602,0.6148,0.6148,0.6083,0.5951,0.6083,0.6148,0.6148,0.6284,0.6372,0.6607,0.6676,0.6606,0.6579,0.6844,0.6844,0.6635,0.6982,0.7394,0.7708,0.8105,0.8314,0.813,0.8289,0.8336,0.8209,0.8299,0.8234,0.7949,0.8285,0.8226,0.7837,0.8004,0.7869,0.7123,0.7042,0.7053,0.6979,0.7029,0.7126,0.6998,0.713,0.7119,0.7247,0.7366,0.759,0.7953,0.8025,0.8187,0.834,0.8408,0.8489,0.8632,0.8627,0.8627,0.8703,0.8703,0.8551,0.8255,0.8178,0.8255,0.8102,0.8025,0.803,0.8013,0.8056,0.7888,0.7778,0.7652,0.757,0.7438,0.7381,0.7375,0.7156,0.6976,0.6698,0.6574,0.639,0.6281,0.4307,0.4233,0.4389,0.4465,0.4384,0.4545,0.4779,0.4857,0.4969,0.4977,0.4958,0.4876,0.4827,0.4888,0.4689,0.4561,0.4498,0.4628,0.4694,0.4761,0.5024,0.5153,0.5223,0.5484,0.5686,0.5888,0.6017,0.6148,0.6214,0.6284,0.6354,0.635,0.6416,0.6412,0.635,0.6218,0.6218,0.6214,0.6214,0.6214,0.6222,0.6284,0.6354,0.635,0.6152,0.6221,0.6495,0.6537,0.6608,0.6814,0.6941,0.6952,0.6881,0.7237,0.7522,0.7819,0.8138,0.8401,0.8351,0.8515,0.8616,0.8677,0.8782,0.8635,0.8458,0.8595,0.8519,0.8138,0.8077,0.8,0.7816,0.7642,0.7638,0.765,0.7696,0.772,0.7671,0.77,0.779,0.7808,0.7872,0.8021,0.8349,0.844,0.8549,0.8755,0.8749,0.8831,0.8823,0.887,0.8937,0.9013,0.9089,0.9013,0.8941,0.8556,0.8327,0.825,0.825,0.8178,0.8146,0.8195,0.806,0.8051,0.7934,0.7877,0.7728,0.7465,0.7458,0.7338,0.7076,0.6994,0.6865,0.6691,0.6606,0.4523,0.4342,0.4568,0.4622,0.4515,0.467,0.4825,0.4977,0.5123,0.5147,0.5123,0.515,0.5115,0.5089,0.4953,0.4894,0.4964,0.496,0.4891,0.4891,0.509,0.5223,0.5286,0.555,0.5822,0.602,0.6148,0.6284,0.6284,0.6354,0.642,0.642,0.6544,0.6548,0.642,0.642,0.6354,0.6284,0.6284,0.6284,0.642,0.642,0.6416,0.6416,0.6218,0.6217,0.6499,0.6592,0.6691,0.6857,0.7082,0.7273,0.7415,0.7649,0.7933,0.8292,0.8567,0.8654,0.8663,0.8784,0.8846,0.8989,0.9021,0.8983,0.8737,0.8935,0.8786,0.8453,0.8476,0.849,0.8426,0.8412,0.8336,0.8178,0.8102,0.8102,0.8178,0.8178,0.8178,0.825,0.8327,0.8399,0.8637,0.8763,0.8836,0.8875,0.8923,0.901,0.8985,0.9099,0.9175,0.9251,0.9246,0.9246,0.9165,0.8932,0.877,0.8694,0.8632,0.8484,0.8376,0.8443,0.8365,0.8286,0.8196,0.8077,0.7898,0.7684,0.7505,0.7406,0.7297,0.7211,0.7072,0.7002,0.6802,0.4865,0.4699,0.4605,0.4548,0.4619,0.4473,0.46,0.4904,0.4968,0.5113,0.5212,0.5099,0.518,0.5267,0.5145,0.5223,0.5292,0.5156,0.509,0.5156,0.5292,0.5425,0.555,0.5752,0.5954,0.6214,0.635,0.6416,0.642,0.642,0.642,0.642,0.6416,0.6416,0.642,0.642,0.642,0.642,0.642,0.6354,0.642,0.642,0.6482,0.6609,0.6482,0.6439,0.6688,0.6842,0.6921,0.6958,0.7262,0.7766,0.8227,0.8342,0.8639,0.9085,0.9301,0.9311,0.9236,0.9089,0.9027,0.9076,0.9223,0.9086,0.8875,0.9262,0.9389,0.8818,0.8933,0.9101,0.8922,0.8878,0.8751,0.8255,0.8255,0.8327,0.8385,0.8385,0.8466,0.858,0.8633,0.868,0.8761,0.8851,0.8908,0.8793,0.8908,0.8993,0.9005,0.913,0.9276,0.9276,0.9355,0.9373,0.9381,0.9306,0.9291,0.9286,0.9155,0.9099,0.8995,0.8951,0.8862,0.8723,0.8436,0.8298,0.7907,0.7716,0.7569,0.75,0.7419,0.7419,0.7297,0.7211,0.7019,0.479,0.4595,0.4593,0.4546,0.4439,0.4656,0.4801,0.4945,0.5162,0.5321,0.5307,0.5332,0.5395,0.5373,0.5309,0.5359,0.5428,0.5359,0.5292,0.5292,0.5359,0.5428,0.5491,0.5756,0.6024,0.635,0.6548,0.6548,0.6482,0.6618,0.6618,0.6482,0.6548,0.6548,0.6416,0.642,0.642,0.642,0.642,0.642,0.642,0.642,0.642,0.6478,0.6416,0.6453,0.6509,0.668,0.6855,0.6953,0.7155,0.7608,0.8249,0.8646,0.8939,0.9231,0.9322,0.9322,0.9322,0.9241,0.9155,0.9175,0.9229,0.9155,0.8911,0.9075,0.912,0.8689,0.8777,0.8844,0.8949,0.8934,0.892,0.8908,0.8941,0.8854,0.8798,0.867,0.8577,0.864,0.864,0.8712,0.8819,0.89,0.8891,0.8855,0.893,0.8985,0.899,0.9124,0.9211,0.9216,0.936,0.9502,0.9478,0.9437,0.9431,0.9422,0.9352,0.9399,0.9336,0.9332,0.9187,0.9019,0.8663,0.838,0.799,0.7858,0.7719,0.7656,0.7559,0.7524,0.7443,0.7298,0.7151,0.4704,0.4543,0.4616,0.4558,0.4315,0.4737,0.4874,0.4944,0.5224,0.5378,0.5375,0.5433,0.5454,0.5442,0.5428,0.5428,0.5428,0.5428,0.5428,0.5428,0.5428,0.5428,0.5428,0.5756,0.6086,0.635,0.6548,0.6548,0.6548,0.6745,0.6749,0.6618,0.6872,0.6806,0.6548,0.6552,0.6548,0.642,0.642,0.642,0.642,0.642,0.6416,0.6482,0.6416,0.6416,0.6494,0.6668,0.6813,0.6958,0.7131,0.7717,0.8409,0.8689,0.8973,0.9206,0.929,0.9285,0.9295,0.9259,0.929,0.929,0.929,0.9233,0.9037,0.9083,0.9,0.8897,0.8881,0.8936,0.9082,0.9076,0.9219,0.9401,0.9275,0.9228,0.9078,0.9005,0.8857,0.8836,0.8834,0.8819,0.8816,0.8882,0.8888,0.8917,0.8985,0.9062,0.9113,0.9303,0.9351,0.9427,0.9547,0.9574,0.96,0.96,0.9595,0.9564,0.947,0.9513,0.9504,0.9411,0.9332,0.9015,0.868,0.8355,0.7995,0.8013,0.7952,0.7812,0.7746,0.7765,0.7804,0.7592,0.74,0.4683,0.4549,0.4602,0.4543,0.4392,0.4718,0.4861,0.4843,0.5043,0.5249,0.5372,0.5382,0.5372,0.5428,0.5428,0.5428,0.5428,0.5428,0.5428,0.5428,0.5428,0.5425,0.5557,0.576,0.609,0.635,0.6482,0.6548,0.6675,0.6872,0.6876,0.6741,0.7129,0.7199,0.6806,0.6876,0.6749,0.6548,0.6486,0.6486,0.6486,0.6486,0.6548,0.6679,0.6548,0.6548,0.6745,0.6902,0.6914,0.686,0.7377,0.796,0.8488,0.8648,0.8938,0.926,0.9222,0.9249,0.9233,0.9287,0.9254,0.9227,0.9298,0.9238,0.9216,0.9269,0.9328,0.9157,0.9242,0.9333,0.9328,0.9397,0.9494,0.9655,0.9416,0.9276,0.9351,0.9363,0.92,0.912,0.9129,0.9091,0.8746,0.8847,0.8922,0.8991,0.9072,0.9232,0.9388,0.9505,0.9695,0.9706,0.9776,0.9776,0.9776,0.9782,0.9782,0.981,0.976,0.9635,0.9581,0.9554,0.9439,0.9062,0.8782,0.8447,0.824,0.8298,0.8245,0.8038,0.8111,0.818,0.7995,0.7698,0.7599,0.4682,0.4535,0.458,0.4526,0.4367,0.4827,0.4894,0.4831,0.516,0.5359,0.5428,0.5428,0.5428,0.5428,0.5428,0.5428,0.5428,0.5428,0.5428,0.5428,0.5488,0.562,0.5756,0.5826,0.609,0.642,0.6613,0.6745,0.6741,0.7068,0.7138,0.6876,0.7125,0.719,0.7068,0.6937,0.6942,0.6942,0.6815,0.6749,0.6749,0.6749,0.6811,0.6811,0.6811,0.6876,0.7073,0.7335,0.7545,0.7678,0.824,0.868,0.8947,0.9165,0.9369,0.9494,0.9539,0.955,0.955,0.9544,0.9535,0.9372,0.9429,0.9411,0.9288,0.9282,0.9348,0.9277,0.9348,0.936,0.9485,0.964,0.9771,0.9837,0.9589,0.9349,0.94,0.9226,0.9064,0.9019,0.9068,0.9025,0.8915,0.8948,0.9014,0.9042,0.922,0.9468,0.9611,0.9771,0.9985,0.9916,0.9921,0.9985,1.0055,0.9991,1.0061,1.0124,1.002,0.9892,0.9763,0.9634,0.9522,0.9295,0.9227,0.8964,0.8777,0.8732,0.8503,0.8497,0.8327,0.8389,0.7906,0.7566,0.7677,0.4671,0.4466,0.4716,0.461,0.437,0.4891,0.4957,0.4894,0.5292,0.5488,0.5488,0.5561,0.5627,0.5627,0.5627,0.5561,0.5488,0.5561,0.5561,0.5428,0.5554,0.5686,0.5888,0.5892,0.6152,0.6482,0.6618,0.6679,0.6811,0.7138,0.7073,0.699,0.7182,0.7247,0.719,0.7117,0.7006,0.706,0.6946,0.6881,0.6881,0.6881,0.6942,0.7007,0.7073,0.7199,0.7591,0.7852,0.8112,0.8268,0.8564,0.8904,0.9173,0.9365,0.9585,0.9591,0.9585,0.9585,0.9591,0.9664,0.9661,0.9532,0.9568,0.9634,0.952,0.9536,0.9536,0.949,0.953,0.9594,0.9716,0.9792,0.9926,1.0027,0.9928,0.9753,0.9694,0.9521,0.9297,0.9274,0.9204,0.9145,0.9022,0.9167,0.929,0.9443,0.9603,0.982,1.0089,1.0191,1.0351,1.0299,1.0275,1.0333,1.0278,1.026,1.017,1.0309,1.0327,1.0194,0.9985,0.9846,0.9713,0.9651,0.9655,0.9592,0.9319,0.9229,0.933,0.918,0.8837,0.8628,0.8465,0.7972,0.8,0.4778,0.4414,0.493,0.4834,0.4465,0.4916,0.5046,0.496,0.5355,0.555,0.555,0.5756,0.5756,0.5892,0.5756,0.5752,0.5617,0.569,0.569,0.5624,0.562,0.5818,0.602,0.602,0.6284,0.6609,0.6548,0.6683,0.6881,0.6946,0.7012,0.7046,0.7291,0.7364,0.7349,0.7246,0.7186,0.7116,0.7077,0.7077,0.7077,0.7077,0.7143,0.7335,0.7526,0.7717,0.8172,0.849,0.8683,0.8624,0.8619,0.8969,0.9356,0.935,0.949,0.9578,0.9608,0.9526,0.949,0.9744,0.9771,0.9688,0.9823,0.9926,0.9926,0.9989,0.9926,0.9926,0.9989,1.011,1.0174,1.0174,1.0238,1.0371,1.0384,1.0308,1.0117,0.9938,0.981,0.9588,0.9582,0.9396,0.9327,0.9456,0.9814,0.9916,1.0073,1.0311,1.0528,1.0709,1.0816,1.0798,1.0817,1.0742,1.0592,1.0443,1.0374,1.0422,1.0522,1.0465,1.0263,1.0124,1.0061,0.9997,0.9991,0.9974,0.9742,0.9774,0.9984,0.9796,0.9401,0.9513,0.959,0.8888,0.8588,0.4882,0.4867,0.5104,0.4965,0.4723,0.5264,0.5332,0.5024,0.5292,0.5425,0.5491,0.562,0.5686,0.5686,0.5686,0.5617,0.5617,0.562,0.5624,0.6017,0.5888,0.6148,0.6416,0.635,0.6416,0.6675,0.6937,0.7007,0.7007,0.719,0.7396,0.7381,0.7366,0.7538,0.7567,0.7529,0.7543,0.7536,0.7536,0.747,0.747,0.7536,0.7596,0.7852,0.8182,0.8441,0.87,0.9215,0.9478,0.9542,0.9478,0.9536,0.967,0.9792,0.9856,0.9913,0.9913,0.9849,0.9919,1.0047,1.0174,1.0174,1.0364,1.0618,1.0618,1.0561,1.0498,1.0498,1.0561,1.0618,1.0751,1.0807,1.0807,1.087,1.087,1.0807,1.0618,1.0364,1.011,0.9983,0.9919,0.9856,0.9792,0.9848,1.008,1.0321,1.056,1.088,1.0981,1.1115,1.1083,1.1089,1.1025,1.0949,1.0779,1.0623,1.0548,1.0523,1.0685,1.0736,1.0534,1.0471,1.0333,1.0347,1.0396,1.0278,1.0149,1.0278,1.0466,1.0176,0.993,0.9935,0.9868,0.9355,0.9155,0.5078,0.4938,0.5132,0.5044,0.4745,0.4999,0.5097,0.5166,0.5292,0.5425,0.5554,0.5686,0.5752,0.5752,0.5752,0.5686,0.5617,0.5554,0.5752,0.6083,0.6152,0.635,0.6675,0.6745,0.6811,0.6806,0.6872,0.6937,0.7055,0.7187,0.7297,0.7488,0.7354,0.7472,0.7673,0.7639,0.7629,0.7652,0.7731,0.7731,0.7857,0.7857,0.8052,0.8312,0.87,0.8964,0.9285,0.9542,0.9798,0.9926,0.9989,1.0053,1.0053,1.011,1.0174,1.0238,1.0364,1.0301,1.0364,1.0491,1.0618,1.0555,1.0807,1.0926,1.0996,1.0996,1.0933,1.0933,1.0933,1.0996,1.1066,1.1129,1.1122,1.1185,1.1185,1.1115,1.0989,1.0674,1.0428,1.0301,1.0174,1.018,1.0123,1.0226,1.0309,1.0605,1.0609,1.0912,1.1138,1.1197,1.1222,1.1246,1.1194,1.1086,1.1011,1.0823,1.0684,1.0697,1.0765,1.076,1.0667,1.0673,1.0673,1.0633,1.0584,1.0628,1.0539,1.0755,1.0828,1.0694,1.0495,1.0286,1.0136,0.9997,0.9889,0.5244,0.4859,0.5182,0.5014,0.4678,0.4797,0.4989,0.5156,0.5292,0.5491,0.5617,0.5756,0.5822,0.5892,0.5822,0.5752,0.5683,0.5749,0.5947,0.6276,0.6412,0.6548,0.6811,0.6942,0.6976,0.6841,0.6811,0.6876,0.6966,0.7012,0.7072,0.7338,0.7341,0.74,0.7634,0.7639,0.7634,0.7777,0.7797,0.7857,0.7982,0.8047,0.8247,0.87,0.9081,0.9344,0.967,0.9926,1.0053,1.0117,1.0238,1.0364,1.0364,1.0364,1.0498,1.0681,1.0744,1.0744,1.0744,1.0933,1.1122,1.0926,1.1115,1.131,1.1373,1.1373,1.131,1.131,1.131,1.1247,1.1254,1.1317,1.1373,1.1365,1.1365,1.1428,1.1303,1.0989,1.087,1.0688,1.0618,1.0555,1.0544,1.054,1.0647,1.0744,1.0812,1.0891,1.1178,1.1295,1.122,1.1215,1.1115,1.1022,1.0949,1.0842,1.067,1.0696,1.0795,1.0773,1.0763,1.0747,1.0667,1.0679,1.06,1.0685,1.0747,1.0783,1.0906,1.1046,1.0972,1.0713,1.0724,1.0691,1.0519,0.5135,0.5123,0.5219,0.5139,0.5008,0.5274,0.5332,0.5372,0.5359,0.5491,0.5617,0.5617,0.5756,0.5822,0.5686,0.5617,0.5683,0.5881,0.6214,0.6544,0.6609,0.6806,0.7007,0.6976,0.6914,0.6795,0.6768,0.6768,0.6845,0.6867,0.6998,0.7103,0.7409,0.7653,0.7742,0.7941,0.7976,0.7972,0.8047,0.8107,0.8172,0.8236,0.8495,0.9022,0.9396,0.9786,1.0047,1.0364,1.0555,1.0498,1.0618,1.0681,1.0737,1.0744,1.0814,1.0933,1.0996,1.0996,1.1059,1.131,1.1435,1.156,1.1685,1.1872,1.1934,1.1872,1.1747,1.1677,1.1677,1.1685,1.1677,1.1747,1.1809,1.1809,1.1809,1.1872,1.174,1.1553,1.1373,1.1122,1.1059,1.0933,1.0855,1.0839,1.087,1.0907,1.0969,1.1002,1.1216,1.1209,1.1135,1.1087,1.1016,1.0921,1.0853,1.0766,1.0651,1.069,1.0717,1.0646,1.0659,1.0651,1.0614,1.0654,1.066,1.0748,1.0754,1.0829,1.0885,1.0914,1.0994,1.1141,1.0948,1.0834,1.0819,0.5088,0.4986,0.5124,0.5047,0.4941,0.5135,0.5295,0.5369,0.5292,0.5355,0.5554,0.5554,0.562,0.5686,0.5557,0.562,0.5818,0.5951,0.6218,0.6482,0.6745,0.6876,0.7046,0.6919,0.6885,0.6773,0.663,0.6635,0.6688,0.6727,0.6938,0.7354,0.7595,0.7742,0.7957,0.8102,0.8242,0.8247,0.8242,0.8301,0.8501,0.856,0.8888,0.939,0.9837,1.0231,1.0555,1.0744,1.0933,1.0877,1.0933,1.0996,1.1059,1.1122,1.1185,1.1122,1.1185,1.1247,1.1373,1.156,1.1747,1.1879,1.2065,1.2127,1.2182,1.212,1.2058,1.1996,1.1934,1.1934,1.1934,1.2058,1.2058,1.1996,1.2065,1.2065,1.1996,1.1934,1.1809,1.156,1.1435,1.131,1.1178,1.1101,1.108,1.1078,1.1083,1.1142,1.1293,1.1211,1.1094,1.1083,1.1044,1.1009,1.0933,1.0877,1.0751,1.0814,1.0814,1.0681,1.0618,1.0701,1.0641,1.0627,1.0672,1.0773,1.0659,1.0654,1.0748,1.0779,1.0906,1.1007,1.0962,1.0953,1.0941,0.4991,0.4783,0.4918,0.4925,0.484,0.4827,0.5096,0.5292,0.5223,0.5352,0.555,0.5491,0.5491,0.5554,0.5554,0.5557,0.5888,0.5888,0.6152,0.6416,0.6675,0.6868,0.6845,0.6916,0.6876,0.6684,0.6604,0.6415,0.6599,0.6634,0.701,0.7331,0.756,0.7863,0.8081,0.8242,0.8376,0.8376,0.8376,0.8506,0.8765,0.8958,0.9238,0.9699,1.0077,1.049,1.0684,1.0786,1.0925,1.0967,1.1009,1.1107,1.1288,1.1498,1.1505,1.131,1.1373,1.156,1.1685,1.1809,1.1996,1.212,1.2182,1.2243,1.2367,1.2428,1.2313,1.2251,1.2243,1.2251,1.2251,1.2243,1.2251,1.2251,1.2251,1.2251,1.2251,1.2243,1.2182,1.1996,1.1872,1.1747,1.1615,1.1428,1.1416,1.1297,1.1234,1.11,1.1219,1.1177,1.1094,1.1122,1.1143,1.1143,1.1115,1.1059,1.0996,1.1003,1.1003,1.0933,1.087,1.0877,1.0819,1.0809,1.0813,1.085,1.0665,1.0584,1.0631,1.0749,1.077,1.0853,1.081,1.0905,1.1039,0.4915,0.4648,0.4651,0.4706,0.4831,0.496,0.5156,0.5359,0.5359,0.5422,0.5617,0.5491,0.5491,0.5554,0.555,0.5617,0.5749,0.5951,0.6214,0.6416,0.6609,0.6802,0.6817,0.7057,0.6867,0.667,0.6697,0.6643,0.6634,0.6684,0.6818,0.7175,0.7693,0.8027,0.8107,0.8312,0.8447,0.8511,0.8506,0.856,0.8807,0.9111,0.9304,0.9556,0.9971,1.0315,1.0394,1.0512,1.0649,1.0849,1.0856,1.1038,1.1301,1.1615,1.174,1.1802,1.1872,1.2003,1.2065,1.212,1.2243,1.2305,1.2436,1.2621,1.2674,1.2797,1.2797,1.2867,1.2805,1.2683,1.2683,1.2683,1.2621,1.2621,1.2621,1.256,1.256,1.2498,1.249,1.2428,1.2305,1.2182,1.2058,1.1872,1.1685,1.156,1.1435,1.131,1.1247,1.131,1.1317,1.1435,1.1365,1.1365,1.1373,1.131,1.1247,1.1192,1.1185,1.1122,1.1059,1.1059,1.1059,1.0982,1.103,1.0923,1.0806,1.069,1.0637,1.0717,1.0817,1.0744,1.0704,1.0901,1.1018,0.4745,0.4431,0.4561,0.4691,0.4827,0.5024,0.5223,0.5359,0.5428,0.5491,0.5554,0.5425,0.5425,0.5488,0.555,0.5617,0.5683,0.5885,0.6152,0.635,0.6605,0.6828,0.6832,0.6921,0.6836,0.6795,0.6791,0.6867,0.683,0.6867,0.6953,0.7402,0.7737,0.8107,0.8252,0.8511,0.87,0.8726,0.877,0.8754,0.8839,0.9045,0.9217,0.9411,0.9926,1.0182,1.0293,1.0624,1.0784,1.0986,1.1095,1.133,1.1578,1.1802,1.1996,1.212,1.2243,1.2313,1.2243,1.2305,1.2367,1.256,1.2683,1.2736,1.2867,1.2981,1.3042,1.2981,1.2928,1.2928,1.2928,1.2936,1.2867,1.2858,1.2867,1.2858,1.2858,1.2867,1.2805,1.2797,1.2736,1.2613,1.249,1.2297,1.2112,1.1934,1.1872,1.1809,1.1747,1.1747,1.1809,1.1809,1.1747,1.1615,1.1622,1.1622,1.156,1.1505,1.1435,1.1373,1.1247,1.1178,1.124,1.1185,1.1094,1.1031,1.087,1.0828,1.0742,1.0762,1.0782,1.0735,1.0744,1.0775,1.0803,0.4697,0.4495,0.4495,0.4628,0.4827,0.4957,0.516,0.5362,0.5428,0.5425,0.5488,0.5488,0.5425,0.5428,0.5554,0.5617,0.5554,0.5818,0.6017,0.628,0.6539,0.6776,0.6776,0.6812,0.6981,0.698,0.7044,0.718,0.7307,0.7321,0.7466,0.7792,0.7907,0.8182,0.8447,0.863,0.8807,0.8811,0.873,0.8682,0.8823,0.9045,0.9155,0.9477,0.9781,1.0094,1.0179,1.045,1.0638,1.0975,1.1152,1.1382,1.1742,1.1996,1.2182,1.2367,1.2498,1.2613,1.249,1.2498,1.256,1.2744,1.2936,1.2989,1.305,1.3103,1.3164,1.3155,1.3111,1.3111,1.3111,1.3111,1.3111,1.305,1.3111,1.3103,1.3042,1.3042,1.3042,1.3033,1.2972,1.2981,1.2858,1.2666,1.2482,1.2305,1.2251,1.2243,1.2182,1.212,1.2058,1.1996,1.1934,1.1872,1.1872,1.1879,1.1879,1.1809,1.1747,1.1685,1.1622,1.156,1.156,1.1435,1.131,1.1373,1.1498,1.1178,1.087,1.0898,1.0918,1.0835,1.0778,1.0807,1.0751,0.4894,0.5024,0.4498,0.4498,0.4827,0.4827,0.503,0.5428,0.5428,0.5428,0.5491,0.555,0.5554,0.5491,0.569,0.569,0.5495,0.5951,0.6017,0.6148,0.6404,0.6603,0.6754,0.6952,0.7214,0.7243,0.7319,0.7598,0.7882,0.7777,0.7887,0.7982,0.8112,0.8306,0.849,0.872,0.8713,0.8674,0.8489,0.8545,0.8757,0.9028,0.9271,0.9305,0.9735,0.9894,0.9513,0.9817,1.0188,1.0666,1.0922,1.1264,1.1745,1.202,1.2281,1.2544,1.2683,1.2797,1.2805,1.2744,1.2797,1.2867,1.305,1.3233,1.3233,1.3398,1.345,1.3398,1.3346,1.3346,1.3346,1.3407,1.3354,1.3354,1.3354,1.3346,1.3346,1.3224,1.3216,1.3268,1.3268,1.3277,1.3285,1.3155,1.285,1.2674,1.2613,1.2552,1.2375,1.2313,1.2189,1.212,1.212,1.2058,1.212,1.2065,1.2058,1.2058,1.2058,1.2058,1.1996,1.1996,1.1809,1.1872,1.1747,1.1872,1.1934,1.1553,1.131,1.1122,1.1066,1.094,1.087,1.087,1.0807,0.4761,0.4894,0.4628,0.4761,0.516,0.5163,0.5292,0.5488,0.5554,0.5624,0.569,0.5885,0.5885,0.5822,0.5951,0.5954,0.5756,0.6013,0.6083,0.6284,0.6531,0.6763,0.6876,0.7071,0.7418,0.7431,0.7632,0.7797,0.7982,0.8096,0.8306,0.8371,0.827,0.8436,0.8608,0.8777,0.8757,0.8591,0.8422,0.8447,0.8808,0.8873,0.9024,0.9253,0.9439,0.9647,0.9568,0.9894,1.0223,1.0509,1.0782,1.1282,1.1767,1.2085,1.2385,1.2712,1.2867,1.2989,1.2989,1.2989,1.2989,1.3111,1.3285,1.3467,1.3467,1.3511,1.3511,1.3519,1.3588,1.3588,1.3459,1.358,1.3649,1.3597,1.3597,1.3588,1.3588,1.3528,1.3528,1.364,1.37,1.3709,1.3709,1.3709,1.3346,1.2981,1.292,1.2858,1.2674,1.256,1.2428,1.2367,1.2305,1.2367,1.2367,1.2305,1.2305,1.2305,1.2305,1.2305,1.2313,1.212,1.1996,1.2065,1.2127,1.212,1.2058,1.1872,1.1685,1.1435,1.1247,1.1059,1.0996,1.0933,1.0807,0.4894,0.5024,0.4957,0.5024,0.5292,0.5292,0.5422,0.5488,0.5554,0.562,0.5822,0.6083,0.6017,0.5954,0.6152,0.6083,0.5954,0.6083,0.6214,0.635,0.6613,0.6881,0.7073,0.7265,0.7517,0.7657,0.7727,0.7922,0.8182,0.8174,0.8318,0.8355,0.8392,0.8422,0.8697,0.8711,0.8693,0.8607,0.844,0.8515,0.886,0.8884,0.8976,0.9285,0.9501,0.965,0.9717,0.9963,1.027,1.0675,1.1038,1.1461,1.1901,1.2218,1.2502,1.283,1.305,1.3103,1.3164,1.3172,1.3241,1.3415,1.3528,1.364,1.3631,1.3631,1.3692,1.3692,1.3761,1.3761,1.3631,1.3761,1.383,1.3778,1.3709,1.3769,1.389,1.389,1.3959,1.4019,1.4019,1.4019,1.389,1.389,1.3769,1.3407,1.3172,1.3164,1.3094,1.2911,1.2736,1.2674,1.2552,1.2613,1.2683,1.2621,1.256,1.2674,1.2674,1.2613,1.249,1.2367,1.2305,1.2367,1.2367,1.2305,1.2182,1.212,1.1934,1.1677,1.1435,1.1185,1.1059,1.0933,1.087,0.5425,0.555,0.555,0.5352,0.5156,0.5087,0.5223,0.5425,0.5491,0.5554,0.5686,0.6017,0.6017,0.5815,0.6152,0.6086,0.5951,0.6152,0.6284,0.635,0.6679,0.6881,0.7073,0.7265,0.7587,0.7922,0.7922,0.8052,0.835,0.818,0.8215,0.8209,0.8171,0.8297,0.8766,0.8521,0.844,0.854,0.8317,0.8517,0.8805,0.9029,0.9263,0.9569,0.9681,0.9836,0.9977,1.0031,1.0409,1.0902,1.1296,1.1781,1.2342,1.2679,1.2926,1.3158,1.3243,1.3373,1.3683,1.3459,1.3442,1.37,1.3769,1.383,1.395,1.3941,1.3941,1.3881,1.395,1.401,1.395,1.389,1.3959,1.3959,1.389,1.395,1.4079,1.4198,1.4198,1.4267,1.4267,1.4267,1.4079,1.401,1.401,1.383,1.3545,1.3415,1.3398,1.3338,1.3164,1.2972,1.2911,1.292,1.292,1.2867,1.2867,1.2928,1.2989,1.2928,1.2867,1.2797,1.2736,1.2744,1.2683,1.256,1.2436,1.2313,1.212,1.1872,1.156,1.131,1.1129,1.1066,1.1059,0.509,0.5488,0.5352,0.5289,0.5292,0.5418,0.5484,0.5554,0.569,0.5756,0.5822,0.5954,0.5954,0.5888,0.5954,0.6017,0.6083,0.6083,0.6218,0.642,0.6749,0.6881,0.7007,0.7265,0.7582,0.7657,0.7782,0.7822,0.7891,0.7943,0.8088,0.8083,0.8038,0.8253,0.8392,0.8321,0.8348,0.8438,0.8372,0.8487,0.9008,0.9166,0.942,0.9836,0.9947,1.0051,1.0229,1.0263,1.0678,1.1178,1.1535,1.1979,1.2503,1.2771,1.2932,1.3042,1.3101,1.3336,1.3453,1.3412,1.3525,1.3758,1.395,1.3941,1.401,1.401,1.401,1.407,1.4139,1.4139,1.4019,1.4139,1.4148,1.4207,1.4207,1.4267,1.4327,1.4387,1.4387,1.4387,1.4396,1.4446,1.4318,1.4309,1.4309,1.4249,1.3959,1.3718,1.3709,1.364,1.3528,1.3329,1.3208,1.3216,1.3155,1.3172,1.318,1.3241,1.3241,1.318,1.3172,1.3103,1.305,1.292,1.2867,1.2744,1.2541,1.2318,1.222,1.1996,1.1567,1.1327,1.1176,1.1205,1.1435,0.5093,0.5359,0.5289,0.5292,0.5428,0.5488,0.555,0.5554,0.5686,0.5822,0.5822,0.5822,0.5822,0.5822,0.5888,0.5954,0.6083,0.6214,0.6284,0.642,0.6749,0.6881,0.7007,0.7316,0.7524,0.7579,0.759,0.7696,0.7726,0.7699,0.7758,0.7886,0.7975,0.8128,0.8269,0.8336,0.8348,0.8419,0.848,0.8639,0.9106,0.9361,0.9577,0.9947,1.0162,1.0265,1.0462,1.0764,1.1104,1.145,1.1781,1.2182,1.253,1.267,1.28,1.288,1.2994,1.3173,1.323,1.3352,1.3525,1.3735,1.3983,1.4121,1.4139,1.4198,1.4198,1.4207,1.4327,1.4318,1.4309,1.4378,1.4387,1.4387,1.4387,1.4455,1.4565,1.4625,1.4497,1.4565,1.4565,1.4565,1.4625,1.4616,1.4556,1.4488,1.4369,1.4189,1.4019,1.3899,1.389,1.37,1.3571,1.3519,1.3528,1.3528,1.3476,1.3484,1.3484,1.3424,1.3354,1.3277,1.3224,1.3103,1.3033,1.2862,1.2466,1.2237,1.1902,1.1661,1.1421,1.1247,1.1171,1.1261,1.1392,0.5428,0.5428,0.5428,0.5362,0.5359,0.5359,0.5359,0.5428,0.5554,0.5617,0.5617,0.5756,0.5756,0.5617,0.5756,0.5888,0.5885,0.6083,0.6218,0.6416,0.6683,0.6802,0.6976,0.7214,0.7359,0.7448,0.7499,0.7532,0.7671,0.7544,0.7482,0.7586,0.7775,0.8015,0.823,0.8385,0.8419,0.854,0.8639,0.8896,0.9309,0.9569,0.9888,1.0205,1.0419,1.0514,1.0729,1.0999,1.1423,1.1801,1.2095,1.2434,1.2623,1.269,1.2735,1.2813,1.2922,1.2923,1.3113,1.3232,1.3516,1.3821,1.4118,1.4337,1.4373,1.4378,1.4396,1.4469,1.4565,1.4606,1.4656,1.4616,1.4565,1.4565,1.4575,1.4684,1.4803,1.4793,1.4675,1.4675,1.4725,1.4784,1.4862,1.4862,1.4793,1.4734,1.4666,1.4556,1.4378,1.4139,1.4079,1.407,1.395,1.389,1.389,1.383,1.3778,1.3718,1.3718,1.3709,1.364,1.3519,1.3459,1.3398,1.3268,1.2953,1.2276,1.1802,1.1456,1.1261,1.1244,1.1122,1.1041,1.0929,1.0959,0.5289,0.5428,0.5428,0.5292,0.5223,0.5156,0.5289,0.5359,0.5425,0.5425,0.5491,0.5491,0.5491,0.5491,0.5491,0.5624,0.5686,0.5815,0.6017,0.621,0.6527,0.6586,0.6784,0.6985,0.7054,0.7125,0.7154,0.731,0.7265,0.7261,0.7367,0.7543,0.7735,0.8055,0.8262,0.8468,0.8586,0.8692,0.8798,0.9106,0.9465,0.9725,1.0146,1.0462,1.0624,1.0718,1.091,1.1278,1.1606,1.1735,1.2206,1.2586,1.2595,1.27,1.2768,1.2626,1.2611,1.2628,1.3038,1.338,1.3678,1.4015,1.4438,1.4494,1.4475,1.4447,1.455,1.4709,1.4803,1.4852,1.4902,1.4911,1.4852,1.4921,1.4862,1.4921,1.5029,1.497,1.4911,1.497,1.4961,1.502,1.5098,1.5088,1.5029,1.497,1.4911,1.4852,1.4743,1.4506,1.4318,1.4318,1.4258,1.4249,1.413,1.407,1.395,1.395,1.395,1.395,1.389,1.3761,1.3761,1.3528,1.3101,1.2472,1.1816,1.1431,1.1186,1.1246,1.1241,1.1085,1.0927,1.0762,1.0617,0.5223,0.5292,0.5292,0.516,0.4957,0.496,0.5027,0.5163,0.5292,0.5428,0.5428,0.5292,0.5359,0.5359,0.5359,0.5422,0.5617,0.5683,0.5815,0.6203,0.6351,0.651,0.6611,0.6745,0.6908,0.6913,0.6988,0.7077,0.7053,0.7148,0.7306,0.7521,0.7735,0.8109,0.8368,0.858,0.8692,0.8857,0.9008,0.9263,0.9569,0.9932,1.0308,1.0616,1.0777,1.093,1.1073,1.1479,1.1693,1.1788,1.2277,1.2384,1.2448,1.2574,1.2641,1.2517,1.2507,1.2692,1.3035,1.3251,1.3727,1.4153,1.4553,1.4675,1.4753,1.4754,1.4878,1.4991,1.502,1.5098,1.5147,1.5147,1.5205,1.5264,1.5205,1.5205,1.5156,1.5156,1.5215,1.5274,1.5264,1.5323,1.5323,1.5264,1.5205,1.5088,1.5029,1.497,1.4921,1.4803,1.4616,1.4547,1.4556,1.4556,1.4437,1.4309,1.4249,1.4189,1.4139,1.4139,1.407,1.3897,1.3784,1.326,1.2702,1.2116,1.1589,1.1285,1.104,1.1091,1.1091,1.0841,1.0637,1.0561,1.0398,0.5289,0.5087,0.5087,0.4957,0.4827,0.4827,0.4827,0.4827,0.5229,0.5359,0.5292,0.5153,0.5223,0.5359,0.5223,0.5286,0.5418,0.555,0.5723,0.6121,0.6125,0.6266,0.6502,0.6671,0.6655,0.6812,0.6946,0.6992,0.7111,0.7192,0.7359,0.7521,0.783,0.815,0.8368,0.8692,0.8857,0.891,0.9166,0.9413,0.9673,0.9991,1.036,1.0718,1.0922,1.1133,1.1362,1.161,1.1895,1.2,1.2105,1.2166,1.2319,1.2388,1.2454,1.2553,1.2594,1.2903,1.324,1.3509,1.3888,1.4209,1.4375,1.4824,1.5103,1.5019,1.5099,1.5264,1.5381,1.5439,1.5439,1.5498,1.5498,1.5556,1.5556,1.5556,1.5566,1.5508,1.5508,1.5566,1.5556,1.5556,1.5614,1.5556,1.5498,1.5332,1.5323,1.5313,1.5205,1.5147,1.4951,1.4815,1.4784,1.4793,1.4675,1.4616,1.4556,1.4497,1.4437,1.4318,1.4309,1.4082,1.3788,1.3147,1.2483,1.1981,1.1481,1.1173,1.0962,1.0894,1.0789,1.0566,1.0413,1.0455,1.0256,0.5153,0.5087,0.4821,0.4761,0.4761,0.4691,0.4694,0.4827,0.509,0.5156,0.5156,0.5027,0.5093,0.5292,0.5156,0.5153,0.5219,0.5415,0.5484,0.5675,0.5769,0.6039,0.621,0.6303,0.6383,0.6476,0.6614,0.6952,0.7106,0.7246,0.7413,0.7574,0.7943,0.8315,0.8421,0.8745,0.8962,0.9015,0.9375,0.9577,0.9725,1.0146,1.0565,1.0769,1.0972,1.1175,1.1369,1.1598,1.1727,1.1811,1.2013,1.2163,1.2304,1.2379,1.249,1.2665,1.2936,1.3249,1.3513,1.3959,1.4409,1.4855,1.5205,1.5485,1.5615,1.5389,1.5362,1.5601,1.573,1.573,1.573,1.5788,1.5788,1.5846,1.5904,1.5914,1.5972,1.5856,1.5798,1.5856,1.5856,1.5914,1.5904,1.5856,1.5798,1.5846,1.5894,1.5884,1.5778,1.572,1.5303,1.5119,1.501,1.497,1.4911,1.497,1.4961,1.4902,1.4843,1.4725,1.4519,1.3977,1.3501,1.2841,1.2228,1.187,1.1507,1.1114,1.0912,1.0922,1.0828,1.0718,1.0616,1.0621,1.0269,0.4891,0.4824,0.4561,0.4498,0.4564,0.4498,0.4495,0.4564,0.4697,0.4827,0.4957,0.4894,0.496,0.5226,0.5024,0.5024,0.5087,0.5223,0.5397,0.5485,0.5611,0.5852,0.5981,0.6072,0.6295,0.6401,0.6712,0.6987,0.7139,0.7252,0.7413,0.7574,0.8055,0.8374,0.8474,0.8798,0.9061,0.9218,0.9591,0.9792,0.9888,1.0308,1.0718,1.0922,1.1074,1.1226,1.1427,1.1619,1.1769,1.1927,1.2203,1.236,1.2575,1.2847,1.2899,1.3047,1.3253,1.3659,1.3929,1.4343,1.4891,1.5253,1.5659,1.5827,1.5991,1.5811,1.5889,1.6056,1.5951,1.5951,1.6009,1.6066,1.6134,1.6202,1.6249,1.6306,1.6363,1.6353,1.6306,1.6363,1.6363,1.6363,1.642,1.641,1.6363,1.6306,1.64,1.6343,1.6296,1.6208,1.585,1.5494,1.5351,1.5274,1.5313,1.5371,1.5488,1.5371,1.5294,1.4936,1.4525,1.3839,1.3203,1.2748,1.2362,1.2019,1.1657,1.1335,1.1326,1.1427,1.1226,1.1023,1.093,1.0929,1.0797,0.4558,0.4561,0.4364,0.4303,0.4303,0.4303,0.43,0.43,0.4364,0.45,0.4761,0.4761,0.4891,0.4954,0.4824,0.4891,0.5024,0.5156,0.5325,0.5449,0.5577,0.5812,0.6002,0.6106,0.6384,0.6683,0.6954,0.7095,0.7192,0.7413,0.758,0.7634,0.7949,0.8374,0.8633,0.8896,0.9166,0.942,0.974,1.0007,1.0257,1.0565,1.082,1.1023,1.1175,1.1326,1.1528,1.1728,1.1868,1.2126,1.2431,1.2578,1.2783,1.3076,1.3194,1.3293,1.3661,1.3912,1.4094,1.444,1.481,1.5216,1.5666,1.6037,1.6231,1.6356,1.643,1.64,1.6285,1.6228,1.6343,1.641,1.6477,1.6488,1.6591,1.6637,1.6694,1.6751,1.6751,1.6818,1.6818,1.6818,1.6864,1.6864,1.6864,1.6807,1.6807,1.6751,1.6673,1.661,1.6377,1.6017,1.5767,1.5709,1.5581,1.5648,1.5713,1.5746,1.5571,1.5076,1.4567,1.3828,1.3251,1.2856,1.2494,1.2236,1.2022,1.1828,1.1877,1.1877,1.1628,1.1403,1.1575,1.1584,1.1627,0.4364,0.4364,0.4298,0.4303,0.4303,0.4303,0.4303,0.43,0.4495,0.4561,0.4628,0.4691,0.4824,0.5087,0.4891,0.4891,0.4954,0.5143,0.5189,0.5191,0.5457,0.5807,0.6037,0.623,0.663,0.6905,0.7111,0.7203,0.7354,0.7628,0.7788,0.7842,0.8315,0.858,0.8804,0.9061,0.9316,0.9629,0.9888,1.0205,1.0514,1.0718,1.0812,1.1015,1.1226,1.1427,1.1628,1.1778,1.1977,1.2274,1.2627,1.2774,1.3027,1.3253,1.3389,1.3527,1.3897,1.414,1.4345,1.4707,1.5122,1.5426,1.5946,1.6392,1.6543,1.6661,1.6708,1.6807,1.6694,1.6627,1.6684,1.6797,1.6864,1.6818,1.6864,1.692,1.6965,1.692,1.692,1.6976,1.7022,1.7078,1.719,1.719,1.7245,1.7245,1.7301,1.7245,1.7067,1.698,1.6872,1.647,1.605,1.5808,1.5563,1.571,1.5786,1.5864,1.5746,1.5089,1.4433,1.3799,1.3316,1.2965,1.27,1.2429,1.2283,1.2224,1.2126,1.2126,1.1927,1.184,1.2037,1.2111,1.2086]}]]